[[{"header":{"parameterUnit":"m.s-1","parameterCategory":1,"la1":30.6,"la2":29.2853,"lo1":-89.7004,"lo2":-87.6739,"dy":0.0162,"dx":0.0183,"nx":112,"ny":82,"refTime":"2024-09-07T00:00:00:Z","depth":0,"parameterNumber":2,"parameterNumberName":"U-component_of_WINDS"},"data":[0.0,0.0,0.0,0.0,0.0,0.0,0.0,0.0,0.0,0.0,0.0,0.0,0.0,0.0,0.0,0.0,0.0,0.0,0.0,0.0,0.0,0.0,0.0,0.0,0.0,0.0,0.0,0.0,0.0,0.0,0.0,0.0,0.0,0.0,0.0,0.0,0.0,0.0,0.0,0.0,0.0,0.0,0.0,0.0,0.0,0.0,0.0,0.0,0.0,0.0,0.0,0.0,0.0,0.0,0.0,0.0,0.0,0.0,0.0,0.0,0.0,0.0,0.0,0.0,0.0,0.0,0.0,0.0,0.0,0.0,0.0,0.0,0.0,0.0,0.0,0.0,0.0,0.0,0.0,0.0,0.0,0.0,0.0,0.0,0.0,0.0,0.0,0.0,0.0,0.0,0.0,0.0,0.0,0.0,0.0,0.0,0.0,0.0,0.0,0.0,0.0,0.0,0.0,0.0,0.0,0.0,0.0,0.0,0.0,0.0,0.0,0.0,0.0,0.0,0.0,0.0,0.0,0.0,0.0,0.0,0.0,0.0,0.0,0.0,0.0,0.0,0.0,0.0,0.0,0.0,0.0,0.0,0.0,0.0,0.0,0.0,0.0,0.0,0.0,0.0,0.0,0.0,0.0,0.0,0.0,0.0,0.0,0.0,0.0,0.0,0.0,0.0,0.0,0.0,0.0,0.0,0.0,0.0,0.0,0.0,0.0,0.0,0.0,0.0,0.0,0.0,0.0,0.0,0.0,0.0,0.0,0.0,0.0,0.0,0.0,0.0,0.0,0.0,0.0,0.0,0.0,0.0,0.0,0.0,0.0,0.0,0.0,0.0,0.0,0.0,0.0,0.0,0.0,0.0,0.0,0.0,0.0,0.0,0.0,0.0,0.0,0.0,0.0,0.0,0.0,0.0,0.0,0.0,0.0,0.0,0.0,0.0,0.0,0.0,0.0,0.0,0.0,0.0,0.0,0.0,0.0,0.0,0.0,0.0,0.0,0.0,0.0,0.0,0.0,0.0,0.0,0.0,0.0,0.0,0.0,0.0,0.0,0.0,0.0,0.0,0.0,0.0,0.0,0.0,0.0,0.0,0.0,0.0,0.0,0.0,0.0,0.0,0.0,0.0,0.0,0.0,0.0,0.0,0.0,0.0,0.0,0.0,0.0,0.0,0.0,0.0,0.0,0.0,0.0,0.0,0.0,0.0,0.0,0.0,0.0,0.0,0.0,0.0,0.0,0.0,0.0,0.0,0.0,0.0,0.0,0.0,0.0,0.0,0.0,0.0,0.0,0.0,0.0,0.0,0.0,0.0,0.0,0.0,0.0,0.0,0.0,0.0,0.0,0.0,0.0,0.0,0.0,0.0,0.0,0.0,0.0,0.0,0.0,-0.17,-0.1694,-0.1656,-0.1667,-0.1209,-0.0075,0.0,0.0,0.0,0.0,0.0,0.0,0.0,0.0,0.0,0.0,0.0,0.0,0.0,0.0,0.0,0.0,0.0,0.0,0.0,0.0,0.0,0.0,0.0,0.0,0.0,0.0,0.0,0.0,0.0,0.0,0.0,0.0,0.0,0.0,0.0,0.0,0.0,0.0,0.0,0.0,0.0,0.0,0.0,0.0,0.0,0.0,0.0,0.0,0.0,0.0,0.0,0.0,0.0,0.0,0.0,0.0,0.0,0.0,0.0,0.0,0.0,0.0,0.0,0.0,0.0,0.0,0.0,0.0,0.0,0.0,0.0,0.0,0.0,0.0,0.0,0.0,0.0,0.0,0.0,0.0,0.0,0.0,0.0,0.0,0.0,0.0,0.0,0.0,0.0,0.0,0.0,0.0,0.0,0.0,0.0,0.0,0.0,0.0,0.0,0.0,0.0,0.0,0.0,0.0,0.0,0.0,-0.3506,-0.36,-0.3142,-0.307,-0.229,-0.0152,0.0,0.0,0.0,0.0,0.0,0.0,0.0,0.0,0.0,0.0,0.0,0.0,0.0,0.0,0.0,0.0,0.0,0.0,0.0,0.0,0.0,0.0,0.0,0.0,0.0,0.0,0.0,0.0,0.0,0.0,0.0,0.0,0.0,0.0,0.0,0.0,0.0,0.0,0.0,0.0,0.0,0.0,0.0,0.0,0.0,0.0,0.0,0.0,0.0,0.0,0.0,0.0,0.0,0.0,0.0,0.0,0.0,0.0,0.0,0.0,0.0,0.0,0.0,0.0,0.0,0.0,0.0,0.0,0.0,0.0,0.0,0.0,0.0,0.0,0.0,0.0,0.0,0.0,0.0,0.0,0.0,0.0,0.0,0.0,0.0,0.0,0.0,0.0,0.0,0.0,0.0,0.0,0.0,0.0,0.0,0.0,0.0,0.0,0.0,0.0,0.0,0.0,0.0,0.0,0.0,0.0,-0.4705,-0.5135,-0.3302,-0.3123,-0.227,-0.0152,0.0,0.0,0.0,0.0,0.0,0.0,0.0,0.0,0.0,0.0,0.0,0.0,0.0,0.0,0.0,0.0,0.0,0.0,0.0,0.0,0.0,0.0,0.0,0.0,0.0,0.0,0.0,0.0,0.0,0.0,0.0,0.0,0.0,0.0,0.0,0.0,0.0,0.0,0.0,0.0,0.0,0.0,0.0,0.0,0.0,0.0,0.0,0.0,0.0,0.0,0.0,0.0,0.0,0.0,0.0,0.0,0.0,0.0,0.0,0.0,0.0,0.0,0.0,0.0,0.0,0.0,0.0,0.0,0.0,0.0,0.0,0.0,0.0,0.0,0.0,0.0,0.0,0.0,0.0,0.0,0.0,0.0,0.0,0.0,0.0,0.0,0.0,0.0,0.0,0.0,0.0,0.0,0.0,0.0,0.0,0.0,0.0,0.0,0.0,0.0,0.0,0.0,0.0,0.0,0.0,0.0,-0.7393,-0.7761,-0.7115,-0.5839,-0.4261,-0.2119,-0.175,-0.1178,-0.0065,0.0,0.0,0.0,0.0,0.0,0.0,0.0,0.0,0.0,0.0,0.0,0.0,0.0,0.0,0.0,0.0,0.0,0.0,0.0,0.0,0.0,0.0,0.0,0.0,0.0,0.0,0.0,0.0,0.0,0.0,0.0,0.0,0.0,0.0,0.0,0.0,0.0,0.0,0.0,0.0,0.0,0.0,0.0,0.0,0.0,0.0,0.0,0.0,0.0,0.0,0.0,0.0,0.0,0.0,0.0,0.0,0.0,0.0,0.0,0.0,0.0,0.0,0.0,0.0,0.0,0.0,0.0,0.0,0.0,0.0,0.0,0.0,0.0,0.0,0.0,0.0,0.0,0.0,0.0,0.0,0.0,0.0,0.0,0.0,0.0,0.0,0.0,0.0,0.0,0.0,0.0,0.0,0.0,0.0,0.0,0.0,0.0,0.0,0.0,0.0,0.0,0.0,-0.856,-0.9561,-0.9928,-0.949,-0.7548,-0.5404,-0.3249,-0.2836,-0.1935,-0.013,0.0,0.0,0.0,0.0,0.0,0.0,0.0,0.0,0.0,0.0,0.0,0.0,0.0,0.0,0.0,0.0,0.0,0.0,0.0,0.0,0.0,0.0,0.0,0.0,0.0,0.0,0.0,0.0,0.0,0.0,0.0,0.0,0.0,0.0,0.0,0.0,0.0,0.0,0.0,0.0,0.0,0.0,0.0,0.0,0.0,0.0,0.0,0.0,0.0,0.0,0.0,0.0,0.0,0.0,0.0,0.0,0.0,0.0,0.0,0.0,0.0,0.0,0.0,0.0,0.0,0.0,0.0,0.0,0.0,0.0,0.0,0.0,0.0,0.0,0.0,0.0,0.0,0.0,0.0,0.0,0.0,0.0,0.0,0.0,0.0,0.0,0.0,0.0,0.0,0.0,0.0,0.0,0.0,0.0,0.0,0.0,0.0,0.0,0.0,0.0,0.0,0.0,-0.8861,-1.0734,-1.1409,-0.9661,-0.757,-0.5503,-0.3323,-0.2885,-0.1993,0.0,0.0,0.0,0.0,0.0,0.0,0.0,0.0,0.0,0.0,0.0,0.0,0.0,0.0,0.0,0.0,0.0,0.0,0.0,0.0,0.0,0.0,0.0,0.0,0.0,0.0,0.0,0.0,0.0,0.0,0.0,0.0,0.0,0.0,0.0,0.0,0.0,0.0,0.0,0.0,0.0,0.0,0.0,0.0,0.0,0.0,0.0,0.0,0.0,0.0,0.0,0.0,0.0,0.0,0.0,0.0,0.0,0.0,0.0,0.0,0.0,0.0,0.0,0.0,0.0,0.0,0.0,0.0,0.0,0.0,0.0,0.0,0.0,0.0,0.0,0.0,0.0,0.0,0.0,0.0,0.0,0.0,0.0,0.0,0.0,0.0,0.0,0.0,0.0,0.0,0.0,0.0,0.0,0.0,0.0,0.0,0.0,0.0,0.0,0.0,0.0,0.0,0.0,-1.046,-1.1398,-1.191,-1.1479,-0.958,-0.8029,-0.722,-0.689,-0.5342,-0.226,0.0,0.0,0.0,0.0,0.0,0.0,0.0,0.0,0.0,0.0,0.0,0.0,0.0,0.0,0.0,0.0,0.0,0.0,0.0,0.0,0.0,0.0,0.0,0.0,0.0,0.0,0.0,0.0,0.0,0.0,0.0,0.0,0.0,0.0,0.0,0.0,0.0,0.0,0.0,0.0,0.0,0.0,0.0,0.0,0.0,0.0,0.0,0.0,0.0,0.0,0.0,0.0,0.0,0.0,0.0,0.0,0.0,0.0,0.0,0.0,0.0,0.0,0.0,0.0,0.0,0.0,0.0,0.0,0.0,0.0,0.0,0.0,0.0,0.0,0.0,0.0,0.0,0.0,0.0,0.0,0.0,0.0,0.0,0.0,0.0,0.0,0.0,0.0,0.0,0.0,0.0,0.0,0.0,0.0,0.0,0.0,0.0,0.0,0.0,0.0,0.0,0.0,-1.1084,-1.176,-1.2142,-1.2352,-1.0498,-0.9159,-0.9017,-0.8627,-0.706,-0.3999,0.0,0.0,0.0,0.0,0.0,0.0,0.0,0.0,0.0,0.0,0.0,0.0,0.0,0.0,0.0,0.0,0.0,0.0,0.0,0.0,0.0,0.0,0.0,0.0,0.0,0.0,0.0,0.0,0.0,0.0,0.0,0.0,0.0,0.0,0.0,0.0,0.0,0.0,0.0,0.0,0.0,0.0,0.0,0.0,0.0,0.0,0.0,0.0,0.0,0.0,0.0,0.0,0.0,0.0,0.0,0.0,0.0,0.0,0.0,0.0,0.0,0.0,0.0,0.0,0.0,0.0,0.0,0.0,0.0,0.0,0.0,0.0,0.0,0.0,0.0,0.0,0.0,0.0,0.0,0.0,0.0,0.0,0.0,0.0,0.0,0.0,0.0,0.0,0.0,0.0,0.0,0.0,0.0,0.0,0.0,0.0,0.0,0.0,0.0,0.0,0.0,0.0,-1.1111,-1.1701,-1.2169,-1.2454,-1.069,-0.9484,-0.9468,-0.9008,-0.7819,-0.5566,0.0,0.0,0.0,0.0,0.0,0.0,0.0,0.0,0.0,0.0,0.0,0.0,0.0,0.0,0.0,0.0,0.0,0.0,0.0,0.0,0.0,0.0,0.0,0.0,0.0,0.0,0.0,0.0,0.0,0.0,0.0,0.0,0.0,0.0,0.0,0.0,0.0,0.0,0.0,0.0,0.0,0.0,0.0,0.0,0.0,0.0,0.0,0.0,0.0,0.0,0.0,0.0,0.0,0.0,0.0,0.0,0.0,0.0,0.0,0.0,-2.0453,-1.918,0.0,0.0,0.0,0.0,0.0,0.0,0.0,0.0,0.0,0.0,0.0,0.0,0.0,0.0,0.0,0.0,0.0,0.0,0.0,0.0,0.0,0.0,0.0,0.0,0.0,0.0,0.0,0.0,0.0,0.0,0.0,0.0,0.0,0.0,0.0,0.0,0.0,0.0,0.0,0.0,-1.1267,-1.1762,-1.2135,-1.2318,-1.1861,-1.1405,-1.1289,-1.0992,-0.9908,-0.7923,-0.7627,0.0,0.0,0.0,0.0,0.0,0.0,0.0,0.0,0.0,0.0,0.0,0.0,0.0,0.0,0.0,0.0,0.0,0.0,0.0,0.0,0.0,0.0,0.0,0.0,0.0,0.0,0.0,0.0,0.0,0.0,0.0,0.0,0.0,0.0,0.0,0.0,0.0,0.0,0.0,0.0,0.0,0.0,0.0,0.0,0.0,0.0,0.0,0.0,0.0,0.0,0.0,0.0,0.0,0.0,0.0,0.0,0.0,0.0,0.0,-2.2846,-2.168,0.0,0.0,0.0,0.0,0.0,0.0,0.0,0.0,0.0,0.0,0.0,0.0,0.0,0.0,0.0,0.0,0.0,0.0,0.0,0.0,0.0,0.0,0.0,0.0,0.0,0.0,0.0,0.0,0.0,0.0,0.0,0.0,0.0,0.0,0.0,0.0,0.0,0.0,0.0,0.0,-1.1321,-1.185,-1.223,-1.2379,-1.2264,-1.2108,-1.1952,-1.1735,-1.1023,-0.9704,-0.8821,0.0,0.0,0.0,0.0,0.0,0.0,0.0,0.0,0.0,0.0,0.0,0.0,0.0,0.0,0.0,0.0,0.0,0.0,0.0,0.0,0.0,0.0,0.0,0.0,0.0,0.0,0.0,0.0,0.0,0.0,0.0,0.0,0.0,0.0,0.0,0.0,0.0,0.0,0.0,0.0,0.0,0.0,0.0,0.0,0.0,0.0,0.0,0.0,0.0,0.0,0.0,0.0,0.0,-2.5391,-2.5896,-2.63,-2.674,-2.758,-2.8537,-2.6306,-2.5173,-2.4865,-2.2927,0.0,0.0,0.0,0.0,0.0,0.0,0.0,0.0,0.0,0.0,0.0,0.0,0.0,0.0,0.0,0.0,0.0,0.0,0.0,0.0,0.0,0.0,-1.5777,-1.6676,-1.7202,-1.65,-1.2553,0.0,0.0,0.0,0.0,0.0,0.0,0.0,0.0,0.0,0.0,0.0,-1.1409,-1.1952,-1.2345,-1.2488,-1.2372,-1.223,-1.2074,-1.1918,-1.1599,-1.0988,-0.9789,-0.9359,0.0,0.0,0.0,0.0,0.0,0.0,0.0,0.0,0.0,0.0,0.0,0.0,0.0,0.0,0.0,0.0,0.0,0.0,0.0,0.0,0.0,0.0,0.0,0.0,0.0,0.0,0.0,0.0,0.0,0.0,0.0,0.0,-2.2966,-2.3058,0.0,0.0,0.0,0.0,0.0,0.0,0.0,0.0,0.0,0.0,0.0,0.0,0.0,-2.5718,-2.6197,-2.7283,-2.7865,-2.7916,-2.9418,-3.0531,-3.1251,-3.1675,-3.2291,-3.3029,-3.2675,0.0,-2.7482,-2.6972,0.0,0.0,0.0,0.0,0.0,0.0,0.0,0.0,0.0,0.0,0.0,0.0,0.0,0.0,0.0,0.0,0.0,0.0,0.0,0.0,0.0,0.0,-2.1286,-1.9517,-1.8478,-1.7733,-1.7161,-1.5115,-1.2767,-1.0755,-1.0419,-1.0324,0.0,0.0,0.0,0.0,0.0,0.0,-1.1714,-1.2074,-1.2345,-1.2488,-1.2372,-1.223,-1.2074,-1.1918,-1.1687,-1.1355,-1.1047,-1.0745,-1.0616,-1.0146,0.0,0.0,0.0,0.0,0.0,0.0,0.0,0.0,0.0,0.0,0.0,0.0,0.0,0.0,0.0,0.0,0.0,0.0,0.0,0.0,0.0,0.0,0.0,0.0,0.0,0.0,0.0,0.0,0.0,-2.2245,-2.3352,-2.3054,-2.2757,-2.206,0.0,0.0,0.0,0.0,0.0,0.0,0.0,0.0,0.0,-2.9045,-2.9268,-2.9774,-3.0705,-3.13,-3.1608,-3.1608,-3.2793,-3.35,-3.3822,-3.4455,-3.4874,-3.5182,-3.5182,-3.4242,-3.2435,-3.0544,-2.9065,-2.7832,0.0,0.0,0.0,0.0,-2.5235,-2.5124,-2.6344,-2.7036,-2.7277,-2.6199,0.0,0.0,0.0,0.0,0.0,0.0,0.0,-2.1359,-2.1536,-2.2033,-2.2519,-2.2671,-2.2448,-2.192,-2.0782,-1.8568,-1.6037,-1.3348,-1.2011,-1.1145,-1.0426,-1.0493,0.0,0.0,0.0,-1.1552,-1.1918,-1.2223,-1.2433,-1.2494,-1.2447,-1.2352,-1.2203,-1.2047,-1.187,-1.1653,-1.1497,-1.1321,-1.1104,-1.0894,-1.0561,0.0,0.0,0.0,0.0,0.0,0.0,0.0,0.0,0.0,0.0,0.0,0.0,0.0,0.0,0.0,0.0,0.0,0.0,0.0,0.0,0.0,0.0,0.0,0.0,0.0,0.0,0.0,0.0,-2.427,-2.5249,-2.4193,-2.5046,-2.4802,0.0,0.0,0.0,0.0,0.0,0.0,-2.9961,-3.029,-3.1145,-3.2661,-3.29,-3.3484,-3.4441,-3.4529,-3.4529,-3.4548,-3.5126,-3.5525,-3.5708,-3.6242,-3.6594,-3.6833,-3.6833,-3.6833,-3.6575,-3.3812,-3.2402,-3.1883,-3.038,-2.945,-2.8986,-2.9057,-2.8905,-2.8785,-2.9767,-3.0549,-3.0957,-3.0087,-3.0032,-3.0139,-2.9608,0.0,0.0,0.0,0.0,-2.482,-2.4511,-2.3888,-2.3702,-2.508,-2.5033,-2.4483,-2.347,-2.1168,-1.8455,-1.5544,-1.3468,-1.1959,-1.1097,-1.1145,0.0,-1.109,-1.1477,-1.187,-1.2094,-1.2379,-1.2549,-1.2508,-1.2535,-1.2488,-1.2305,-1.2149,-1.1993,-1.1843,-1.1694,-1.1565,-1.1457,-1.1301,-1.1029,-1.0616,0.0,0.0,0.0,0.0,0.0,0.0,0.0,0.0,0.0,0.0,0.0,0.0,0.0,0.0,0.0,0.0,0.0,0.0,0.0,0.0,0.0,0.0,0.0,0.0,0.0,0.0,0.0,0.0,0.0,-2.8331,-2.9837,0.0,0.0,0.0,0.0,-2.9126,-2.9463,-3.0634,-3.2661,-3.3142,-3.4121,-3.5949,-3.5968,-3.5987,-3.6096,-3.6096,-3.6096,-3.6096,-3.6114,-3.6537,-3.7297,-3.7316,-3.7764,-3.8516,-3.8516,-3.8516,-3.8365,-3.6666,-3.4978,-3.3393,-3.325,-3.1983,-3.0373,-3.2034,-3.2491,-3.2508,-3.4195,-3.479,-3.4556,-3.3198,-3.1219,-2.9898,-3.2331,-3.1154,0.0,0.0,-2.9159,-2.8782,-2.8857,-2.7732,-2.6514,-2.6157,-2.4304,-2.315,-2.4956,-2.233,-1.8927,-1.645,-1.415,-1.2589,-1.2257,0.0,-1.2169,-1.202,-1.2142,-1.2264,-1.2277,-1.2535,-1.2664,-1.2515,-1.263,-1.2603,-1.2318,-1.2149,-1.1993,-1.1843,-1.1694,-1.1613,-1.1606,-1.1463,-1.124,-1.086,-1.0616,0.0,0.0,0.0,0.0,0.0,0.0,0.0,0.0,0.0,0.0,0.0,0.0,0.0,0.0,0.0,0.0,0.0,0.0,0.0,0.0,0.0,0.0,0.0,0.0,0.0,0.0,0.0,0.0,-2.98,-3.1302,0.0,-2.9077,-3.0495,-3.1853,-3.245,-3.3863,-3.5213,-3.6508,-3.6679,-3.7066,-3.7745,-3.7745,-3.7745,-3.7745,-3.7745,-3.7745,-3.7745,-3.7745,-3.7914,-3.8195,-3.8195,-3.8365,-3.8574,-3.8574,-3.8574,-3.8555,-3.7953,-3.736,-3.6774,-3.6774,-3.6278,-3.5656,-3.5784,-3.5709,-3.565,-3.5777,-3.6108,-3.6569,-3.6591,-3.5999,-3.5496,-3.6456,-3.5802,-3.46,-3.3767,-3.2674,-3.1503,-3.0209,-2.8672,-2.7349,-2.6913,-2.5919,-2.5192,-2.5923,-2.3903,-2.1667,-2.0766,-1.8719,-1.7114,-1.6666,-1.5548,-1.4653,-1.4486,-1.3297,-1.2501,-1.2698,-1.2644,-1.2603,-1.2644,-1.261,-1.2542,-1.2433,-1.2203,-1.204,-1.1986,-1.1755,-1.1619,-1.1619,-1.1565,-1.1443,-1.124,-1.0941,-1.0541,0.0,0.0,0.0,0.0,0.0,0.0,0.0,0.0,0.0,0.0,0.0,0.0,0.0,0.0,0.0,0.0,0.0,0.0,0.0,0.0,0.0,0.0,0.0,0.0,0.0,-3.2241,-3.3312,-3.1409,-3.3387,-3.3955,-3.153,-3.3493,-3.5086,-3.565,-3.7005,-3.8064,-3.8555,-3.8574,-3.8574,-3.8574,-3.8574,-3.8574,-3.8574,-3.8574,-3.8574,-3.8574,-3.8574,-3.8574,-3.8574,-3.8574,-3.8574,-3.8574,-3.8574,-3.8574,-3.8574,-3.8574,-3.8574,-3.8574,-3.8574,-3.8574,-3.8535,-3.8045,-3.7784,-3.7745,-3.7168,-3.7336,-3.7914,-3.8404,-3.8574,-3.8574,-3.8574,-3.8302,-3.7731,-3.6238,-3.4658,-3.3055,-3.1146,-2.9321,-2.7908,-2.7467,-2.6867,-2.6413,-2.652,-2.5391,-2.4326,-2.4326,-2.1914,-1.9814,-1.9522,-1.8308,-1.7162,-1.6268,-1.5479,-1.4712,-1.4045,-1.4453,-1.4524,-1.3811,-1.3689,-1.3404,-1.2661,-1.2311,-1.2115,-1.2067,-1.1782,-1.1619,-1.1619,-1.1572,-1.1497,-1.1396,-1.1097,-1.0826,-1.0575,0.0,0.0,0.0,0.0,0.0,0.0,0.0,0.0,0.0,0.0,0.0,0.0,0.0,0.0,0.0,0.0,0.0,0.0,0.0,0.0,0.0,0.0,0.0,-3.4883,-3.5898,-3.5835,-3.3371,-3.6347,-3.747,-3.4637,-3.6933,-3.8574,-3.8574,-3.8574,-3.8574,-3.8574,-3.8574,-3.8574,-3.8574,-3.8574,-3.8574,-3.8574,-3.8574,-3.8574,-3.8574,-3.8574,-3.8574,-3.8574,-3.8574,-3.8574,-3.8574,-3.8574,-3.8574,-3.8574,-3.8574,-3.8574,-3.8574,-3.8574,-3.8574,-3.8574,-3.8574,-3.8574,-3.8574,-3.8574,-3.8574,-3.8574,-3.8574,-3.8574,-3.8574,-3.8574,-3.8302,-3.7715,-3.6516,-3.5094,-3.3489,-3.1819,-2.99,-2.8274,-2.7734,-2.7032,-2.6493,-2.676,-2.6827,-2.6827,-2.6827,-2.3365,-2.0488,-2.0488,-2.0477,-1.9667,-1.7428,-1.8598,0.0,-1.6286,-1.787,-1.8378,-1.6095,-1.5917,-1.5161,-1.2975,-1.2538,-1.2374,-1.2291,-1.1928,-1.1691,-1.177,-1.1626,-1.1557,-1.1628,-1.1262,-1.1111,-1.131,0.0,0.0,0.0,0.0,0.0,0.0,0.0,0.0,0.0,0.0,0.0,0.0,0.0,0.0,0.0,0.0,0.0,0.0,0.0,0.0,0.0,-3.541,-3.6406,-3.6152,-3.7246,-3.7806,-3.7124,-3.7986,-3.8273,-3.747,-3.8142,-3.8574,-3.8574,-3.8574,-3.8574,-3.8574,-3.8574,-3.8574,-3.8574,-3.8574,-3.8574,-3.8574,-3.8574,-3.8574,-3.8574,-3.8574,-3.8574,-3.8574,-3.8574,-3.8574,-3.8574,-3.8574,-3.8574,-3.8574,-3.8574,-3.8574,-3.8574,-3.8574,-3.8574,-3.8574,-3.8574,-3.8574,-3.8574,-3.8574,-3.8574,-3.8574,-3.8574,-3.8574,-3.8574,-3.8574,-3.8136,-3.7329,-3.6442,-3.5068,-3.3439,-3.1824,-3.0251,-2.8884,-2.8114,-2.751,-2.6987,-2.6854,-2.6827,-2.6827,-2.6827,-2.6002,-2.532,-2.5038,-2.3691,-2.2515,-2.1878,-2.0541,-1.9504,-1.8833,-1.9075,-1.8563,-1.6455,-1.6148,-1.5785,-1.4993,-1.4573,-1.4894,-1.6241,-1.4635,-1.4357,-1.5991,-1.4856,-1.4967,-1.6561,-1.4888,-1.3877,0.0,0.0,0.0,0.0,0.0,0.0,0.0,0.0,0.0,0.0,0.0,0.0,0.0,0.0,0.0,0.0,0.0,0.0,0.0,0.0,0.0,0.0,-3.6621,-3.7461,-3.7461,-3.8105,-3.8574,-3.8574,-3.8574,-3.8574,-3.8574,-3.8574,-3.8574,-3.8574,-3.8574,-3.8574,-3.8574,-3.8574,-3.8574,-3.8574,-3.8574,-3.8574,-3.8574,-3.8574,-3.8574,-3.8574,-3.8574,-3.8574,-3.8574,-3.8574,-3.8574,-3.8574,-3.8574,-3.8574,-3.8574,-3.8574,-3.8574,-3.8574,0.0,0.0,0.0,0.0,-3.8574,-3.8574,-3.8574,-3.8574,-3.8574,-3.8574,-3.8574,-3.8574,-3.8574,-3.8063,-3.7255,-3.6442,-3.5157,-3.3685,-3.2248,-3.0715,-2.9398,-2.8745,-2.7946,-2.7255,-2.7201,-2.7188,-2.7188,-2.7188,-2.7428,0.0,-2.7241,-2.6092,-2.4849,-2.3938,-2.3085,-2.2134,-2.121,-2.1682,-2.1402,-1.9234,-1.8976,-1.8533,-1.7553,-1.7093,0.0,0.0,0.0,-1.6673,-1.7929,-1.7034,0.0,0.0,0.0,0.0,0.0,0.0,0.0,0.0,-1.3246,-1.2413,0.0,0.0,0.0,0.0,0.0,0.0,0.0,0.0,0.0,0.0,0.0,0.0,0.0,0.0,0.0,0.0,-3.7773,-3.8574,-3.8574,-3.8574,-3.8574,-3.8574,-3.8574,-3.8574,-3.8574,-3.8647,-3.8647,-3.8647,-3.8647,-3.8647,-3.8647,-3.8647,0.0,0.0,0.0,-3.8574,-3.8574,-3.8574,-3.8574,-3.8574,-3.8574,-3.8574,-3.8574,-3.8574,-3.8574,-3.8574,-3.8574,-3.8574,-3.8574,-3.8574,-3.8574,-3.8574,-3.8574,-3.8574,-3.8574,-3.8574,-3.8574,-3.8574,-3.8574,0.0,0.0,-3.8574,-3.8574,-3.8574,-3.8574,-3.8063,-3.7255,-3.6516,-3.5381,-3.4191,-3.2973,-3.1512,-3.0201,-2.9514,-2.856,-2.7743,-2.7725,-2.7696,-2.7696,-2.7696,-2.7909,-2.8016,-2.7789,-2.7509,-2.6626,-2.4671,-2.5554,-2.5608,-2.3399,-2.4801,-2.5205,-2.2957,-2.2756,0.0,-2.0252,-1.9864,-1.9709,-1.9573,-1.9436,-1.9255,-1.8948,-1.9106,-1.9564,-2.0197,-1.9976,-2.0137,-2.0688,-2.0662,-2.0714,-2.06,-1.5611,-1.3627,0.0,0.0,0.0,0.0,0.0,0.0,0.0,0.0,0.0,0.0,0.0,0.0,0.0,0.0,0.0,-3.709,-3.7969,-3.8574,-3.8574,-3.8574,-3.8574,-3.8574,-3.8574,-3.8574,-3.8574,-3.8865,-3.9103,-3.9103,-3.9103,-3.9103,-3.9103,-3.8793,-3.8574,-3.8574,-3.8574,-3.8574,-3.8574,-3.8574,-3.8574,-3.8574,-3.8574,0.0,-3.8574,-3.8574,-3.8574,-3.8574,-3.8574,-3.8574,-3.8574,-3.8574,-3.8574,-3.8574,-3.8574,-3.8574,-3.8574,-3.8574,-3.8574,-3.8574,-3.8574,-3.8574,-3.8574,-3.8574,-3.8574,-3.8574,-3.8574,-3.8063,0.0,-3.6812,-3.5829,-3.4644,-3.3744,-3.3486,-3.2807,-3.0647,-3.0325,-3.0098,-2.8137,-2.7696,-2.7696,-2.7696,-2.7749,-2.7843,-2.8114,-2.7816,-2.737,-2.679,-2.6718,-2.6467,-2.5767,-2.6056,-2.549,-2.3229,-2.3258,-2.3132,-2.2522,-2.2191,-2.2709,-2.4112,-2.4201,-2.3716,-2.2604,-2.4248,-2.5253,-2.534,-2.3784,-2.3063,-2.3257,-2.172,-2.1199,-2.1638,-2.017,-1.9584,0.0,0.0,0.0,0.0,0.0,0.0,0.0,0.0,0.0,0.0,0.0,-3.5066,-3.613,0.0,-3.7558,-3.8383,-3.8734,-3.8885,-3.8885,-3.872,-3.8574,-3.8574,-3.8574,-3.8574,-3.8574,-3.9135,-3.9493,-3.9493,-3.9493,-3.9493,-3.9493,-3.891,-3.8574,-3.8574,-3.8574,-3.8574,-3.8574,-3.8574,-3.8574,-3.8574,-3.8574,-3.8574,-3.8574,-3.8574,-3.8574,-3.8574,-3.8574,-3.8574,-3.8574,-3.8574,-3.8574,-3.8574,-3.8574,-3.8574,-3.8574,-3.8574,-3.8574,-3.8574,-3.8574,-3.8574,-3.8574,-3.8574,-3.8574,-3.8574,-3.8574,-3.8136,-3.7568,-3.696,-3.6201,-3.5524,-3.5121,-3.4761,-3.4295,-3.3339,-3.3217,-3.2664,-3.0289,-2.9759,-2.9523,-2.8403,-2.803,-2.7963,-2.8207,-2.8016,-2.7816,-2.7522,-2.7108,-2.6827,-2.6827,-2.6694,-2.6254,-2.5324,-2.5382,-2.5407,-2.5188,-2.4924,-2.5187,-2.6094,-2.6026,-2.5806,-2.5486,-2.6475,-2.7255,-2.7709,-2.6684,-2.631,-2.6503,-2.5458,-2.5149,-2.5441,-2.5398,-2.4043,0.0,0.0,0.0,0.0,0.0,0.0,0.0,-3.375,-3.4316,-3.5254,-3.5762,-3.6465,-3.7876,-3.8204,-3.8624,-3.9662,-3.9718,-3.9539,-3.946,-3.9076,-3.8818,-3.8739,-3.8647,-3.8647,-3.872,-3.9406,-3.9957,-4.0031,-4.0031,-4.0031,-3.9884,-3.9175,-3.8647,-3.8574,-3.8574,-3.8574,-3.8574,-3.8574,-3.8574,-3.8574,-3.8574,-3.8574,-3.8574,-3.8574,-3.8574,-3.8574,-3.8574,-3.8574,-3.8574,-3.8574,-3.8574,-3.8574,-3.8574,-3.8574,-3.8574,-3.8574,-3.8574,-3.8574,-3.8574,-3.8574,-3.8574,-3.8574,-3.8574,-3.8574,-3.8574,-3.8302,-3.7862,-3.7107,-3.6664,-3.6328,-3.6444,-3.5987,-3.5678,-3.6063,-3.5876,-3.4998,-3.2532,-3.1963,-3.1307,-2.9278,-2.8649,-2.8473,-2.8473,-2.8473,-2.8295,-2.7749,-2.7295,-2.7054,-2.7241,-2.7054,-2.7001,-2.7241,-2.7321,-2.7375,-2.7428,-2.7215,-2.7108,-2.7161,-2.6947,-2.7054,-2.7589,-2.7615,-2.7949,-2.8671,-2.8684,-2.8831,-2.9125,-2.9125,-2.9152,-2.9219,-2.9459,-2.7409,-2.5518,-2.9123,-3.2859,-3.4076,-3.418,-3.4609,0.0,-3.7051,-3.666,-3.7891,-3.8184,-3.8406,-3.8925,-3.9354,-3.9778,-4.0224,-4.064,-4.076,-4.0285,-3.9951,-3.9519,-3.9143,-3.8793,-3.872,-3.9103,-3.9845,-4.0472,-4.0858,-4.0858,-4.0691,-4.0305,-3.9539,-3.8958,-3.8647,-3.8574,-3.8574,-3.8574,-3.8574,-3.8574,-3.8574,-3.8574,-3.8574,-3.8574,-3.8574,-3.8574,-3.8574,-3.8574,-3.8574,-3.8574,-3.8574,-3.8574,-3.8574,-3.8574,-3.8574,-3.8574,-3.8574,-3.8574,-3.8574,-3.8574,-3.8574,-3.8574,-3.8574,-3.8574,-3.8574,-3.8574,-3.8302,-3.7936,-3.7495,-3.7034,-3.685,-3.7133,-3.7718,-3.7979,-3.6781,-3.6815,-3.627,-3.3265,-3.1963,-3.1164,-3.0222,-2.9691,-2.9314,-2.9314,-2.9314,-2.8965,-2.7915,-2.7642,-2.7522,-2.7295,-2.7241,-2.7228,-2.7268,-2.7495,-2.7762,-2.81,-2.81,-2.811,-2.839,-2.8377,-2.8511,-2.8831,-2.8845,-2.8885,-2.8991,-2.8991,-2.9138,-2.9432,-2.9432,-2.9566,-2.982,-2.9847,-2.9432,-3.2082,-3.369,-3.4609,-3.5898,-3.6269,-3.6582,-3.7598,-3.7617,-3.7617,-3.8418,-3.8574,-3.872,-3.9103,-3.9533,-3.9851,-4.0306,-4.0521,-4.0582,-4.0399,-3.9798,-3.9374,-3.9195,-3.8865,-3.8818,-3.9532,-4.0298,-4.1103,-4.1759,-4.1534,-4.1244,-4.0854,-3.9772,-3.903,-3.8647,-3.8574,-3.8574,-3.8574,-3.8574,-3.8574,-3.8574,-3.8574,-3.8574,-3.8574,-3.8574,-3.8574,-3.8574,-3.8574,-3.8574,-3.8574,-3.8574,-3.8574,-3.8574,-3.8574,-3.8574,-3.8574,-3.8574,-3.8574,-3.8574,-3.8574,-3.8574,-3.8574,-3.8574,-3.8574,-3.8574,-3.8574,-3.8501,-3.8302,-3.7862,-3.7642,-3.7685,-3.8368,-3.8804,-3.9013,-3.8873,-3.9226,-3.8675,-3.557,-3.4424,-3.3533,-3.1598,-3.0698,-3.026,-3.0306,-3.0277,-3.0234,-3.0006,-2.917,-2.8551,-2.8593,-2.8208,-2.7919,-2.7846,-2.7883,-2.8083,-2.839,-2.8417,-2.8537,-2.8845,-2.8858,-2.8991,-2.9285,-2.9299,-2.9379,-2.9553,-2.9553,-2.9606,-2.974,-2.974,-2.9793,-2.9913,-2.9913,-2.9847,-3.578,-3.6309,-3.5996,-3.7031,-3.7695,-3.8027,-3.7715,-3.7891,-3.8184,-3.8516,-3.8574,-3.872,-3.9103,-3.9545,-4.004,-4.0421,-4.0668,-4.0801,-4.0658,-4.008,-3.9605,-3.9393,-3.9083,-3.9169,-3.9917,-4.0532,-4.1225,-4.2112,-4.19,-4.1473,-4.0935,-3.9938,-3.9083,-3.8647,-3.8574,-3.8574,-3.8574,-3.8574,-3.8574,-3.8574,-3.8574,-3.8574,-3.8574,-3.8574,-3.8574,-3.8574,-3.8574,-3.8574,-3.8574,-3.8574,-3.8574,-3.8574,-3.8574,-3.8574,-3.8574,-3.8574,-3.8574,-3.8574,-3.8574,-3.8574,-3.8574,-3.8574,-3.8574,-3.8574,-3.8574,-3.8574,-3.8501,-3.8082,-3.8009,-3.8182,-3.8913,-3.9182,-3.9452,-4.0163,-4.0585,-4.008,-3.7397,-3.6405,-3.5327,-3.3037,-3.1994,-3.1556,-3.1452,-3.1634,-3.1876,-3.2279,-3.1386,-3.0519,-3.0107,-2.9299,-2.8577,-2.8207,-2.8301,-2.839,-2.8698,-2.8804,-2.8978,-2.9259,-2.9285,-2.9379,-2.9593,-2.9606,-2.97,-2.9913,-2.9913,-2.9913,-2.9913,-2.9913,-2.9913,-2.9913,-2.9913,-2.9913,-3.3804,-3.5391,-3.6738,-3.7187,-3.793,-3.8555,-3.8535,-3.8555,-3.8555,-3.8574,-3.8574,-3.872,-3.9103,-3.9878,-4.0525,-4.089,-4.1718,-4.2062,-4.1607,-4.1182,-4.0654,-3.9775,-3.9642,-3.9823,-4.0338,-4.0398,-4.0785,-4.1534,-4.1586,-4.1295,-4.0472,-3.9956,-3.9353,-3.8647,-3.8574,-3.8574,-3.8574,-3.8574,-3.8574,-3.8574,-3.8574,-3.8574,-3.8574,-3.8574,-3.8574,-3.8574,-3.8574,-3.8574,-3.8574,-3.8574,-3.8574,-3.8574,-3.8574,-3.8574,-3.8574,-3.8574,-3.8574,-3.8574,-3.8574,-3.8574,-3.8574,-3.8574,-3.8574,-3.8574,-3.8574,-3.8574,-3.8501,-3.8082,-3.8009,-3.8105,-3.8547,-3.8951,-3.9375,-3.9798,-3.9929,-3.9606,-3.8261,-3.6965,-3.5719,-3.4401,-3.3757,-3.3307,-3.2936,-3.3503,-3.4037,-3.4037,-3.4338,-3.3822,-3.1685,-3.0303,-2.9132,-2.8305,-2.8417,-2.8711,-2.9005,-2.9285,-2.9579,-2.9873,-2.9887,-2.99,-2.99,-2.99,-2.9913,-2.9913,-2.9913,-2.9913,-2.9913,-2.9913,-2.9913,-2.9913,-2.9913,-2.9913,-3.5373,-3.6426,-3.7246,-3.7969,-3.8359,-3.8574,-3.8574,-3.8574,-3.8574,-3.8574,-3.955,-4.0545,-4.107,-4.151,-4.1939,-4.247,-4.1854,-4.1276,-4.1131,-4.0751,-4.0421,-4.0115,-3.9858,-3.9847,-4.0297,-4.0582,-4.1179,-4.2,-4.1533,-4.0983,-4.0451,-3.9758,-3.9156,-3.8647,-3.8574,-3.8574,-3.8574,-3.8574,-3.8574,-3.8574,-3.8574,-3.8574,-3.8574,-3.8574,-3.8574,-3.8574,-3.8574,-3.8574,-3.8574,-3.8574,-3.8574,-3.8574,-3.8574,-3.8574,-3.8574,-3.8574,-3.8574,-3.8574,-3.8574,-3.8574,-3.8574,-3.8574,-3.8574,-3.8574,-3.8574,-3.8574,-3.8574,-3.8428,-3.8428,-3.8452,-3.888,-3.9093,-3.9232,-3.9431,-3.928,-3.8838,-3.7833,-3.6802,-3.5905,-3.5234,-3.4868,-3.4732,-3.4607,-3.5078,-3.5397,-3.5409,-3.475,-3.4243,-3.4079,-3.3128,-3.2183,-3.1204,-3.0891,-3.0368,-2.9373,-2.9419,-2.9606,-2.99,-2.9913,-2.9913,-2.9913,-2.9913,-2.9913,-2.9913,-2.9913,-2.9913,-2.9913,-2.9913,-2.9913,-2.9913,-2.9913,-2.9913,-3.6465,-3.709,-3.75,-3.8359,-3.8574,-3.8574,-3.8574,-3.8574,-3.8574,-3.8574,-3.9891,-4.1171,-4.1775,-4.2067,-4.2705,-4.4145,-4.3357,-4.2441,-4.2293,-4.2183,-4.1689,-4.0443,-4.0238,-4.0146,-4.031,-4.0575,-4.0954,-4.1533,-4.1068,-4.0541,-4.0011,-3.946,-3.903,-3.8647,-3.8574,-3.8574,-3.8574,-3.8574,-3.8574,-3.8574,-3.8574,-3.8574,-3.8574,-3.8574,-3.8574,-3.8574,-3.8574,-3.8574,-3.8574,-3.8574,-3.8574,-3.8574,-3.8574,-3.8574,-3.8574,-3.8574,-3.8574,-3.8574,-3.8574,-3.8574,-3.8574,-3.8574,-3.8574,-3.8574,-3.8574,-3.8574,-3.8574,-3.8574,-3.8574,-3.8633,-3.8906,-3.9082,-3.9129,-3.9026,-3.8917,-3.8728,-3.7966,-3.7257,-3.6664,-3.6231,-3.6101,-3.6052,-3.598,-3.6563,-3.7065,-3.7385,-3.6692,-3.6035,-3.5557,-3.5393,-3.4849,-3.386,-3.356,-3.2664,-3.0899,-3.0775,-3.0574,-2.99,-2.9913,-2.9913,-2.9913,-2.9913,-2.9913,-2.9913,-2.9913,-2.9913,-2.9913,-2.9913,-2.9913,-2.9913,-2.9913,-2.9913,-3.6973,-3.7324,-3.7559,-3.8379,-3.8574,-3.8574,-3.8574,-3.8574,-3.8627,-3.8661,-3.9698,-4.085,-4.139,-4.1695,-4.2817,-4.5774,-4.5694,-4.5055,-4.4545,-4.4946,-4.4025,-4.074,-4.0668,-4.074,-4.031,-4.031,-4.031,-4.0238,-4.0238,-3.9971,-3.9248,-3.9176,-3.903,-3.8647,-3.8574,-3.8574,-3.8574,-3.8574,-3.8574,-3.8574,-3.8574,-3.8574,-3.8574,-3.8574,-3.8574,-3.8574,-3.8574,-3.8574,-3.8574,-3.8574,-3.8574,-3.8574,-3.8574,-3.8574,-3.8574,-3.8574,-3.8574,-3.8574,-3.8574,-3.8574,-3.8574,-3.8574,-3.8574,-3.8574,-3.8574,-3.8574,-3.8574,-3.8574,-3.8574,-3.8574,-3.8574,-3.8867,-3.9106,-3.866,-3.8894,-3.9031,-3.8671,-3.8215,-3.7856,-3.7464,-3.739,-3.7353,-3.6979,-3.7874,-3.8971,-3.9778,-3.9987,-3.9123,-3.6624,-3.6967,-3.7107,-3.6192,-3.6425,-3.5621,-3.3334,-3.3375,-3.2602,-3.0272,-3.0093,-3.0003,-2.9913,-2.9913,-2.9913,-2.9913,-2.9913,-2.9913,-2.9913,-2.9913,-2.9913,-2.9913,-2.9913,-2.9913,-3.7207,-3.7754,-3.8301,-3.8516,-3.8574,-3.8574,-3.8574,-3.8574,-3.8741,-3.9301,-4.1108,-4.2881,-4.3997,-4.3883,-4.4047,-4.5302,-4.3507,-4.194,-4.1888,-4.2015,-4.1737,-4.0852,-4.0811,-4.074,-4.031,-4.031,-4.0115,-3.9538,-3.9465,-3.9393,-3.9176,-3.8958,-3.872,-3.8574,-3.8574,-3.8574,-3.8574,-3.8574,-3.8574,-3.8574,-3.8574,-3.8574,-3.8574,-3.8574,-3.8574,-3.8574,-3.8574,-3.8574,-3.8574,-3.8574,-3.8574,-3.8574,-3.8574,-3.8574,-3.8574,-3.8574,-3.8574,-3.8574,-3.8574,-3.8574,-3.8574,-3.8574,-3.8574,-3.8574,-3.8574,-3.8574,-3.8574,-3.8574,-3.8574,-3.8574,-3.8574,-3.8652,-3.873,-3.8603,-3.8461,-3.8262,-3.8188,-3.7817,-3.7538,-3.7444,-3.7893,-3.8363,-3.8545,-3.9387,-3.9949,-3.9932,-4.0936,-4.141,-4.0459,-4.0228,-3.9933,-3.9294,-3.8918,-3.7994,-3.5978,-3.5918,-3.494,-3.2602,-3.2528,-3.1745,-3.0003,-2.9913,-2.9913,-2.9913,-2.9913,-2.9913,-2.9913,-2.9913,-2.9913,-2.9913,-2.9913,-2.9913,-3.7754,-3.8203,-3.8574,-3.8574,-3.8574,-3.8675,-3.8977,-3.9111,-3.9321,-3.9993,-4.186,-4.3632,-4.4317,-4.4161,-4.4375,-4.5841,-4.423,-4.2726,-4.2557,-4.2778,-4.2462,-4.1087,-4.0882,-4.074,-4.031,-4.0166,-3.9806,-3.9248,-3.9176,-3.9103,-3.8958,-3.872,-3.8574,-3.8574,-3.8574,-3.8574,-3.8574,-3.8574,-3.8574,-3.8574,-3.8574,-3.8574,-3.8574,-3.8574,-3.8574,-3.8574,-3.8574,-3.8574,-3.8574,-3.8574,-3.8574,-3.8574,-3.8574,-3.8574,-3.8574,-3.8574,-3.8574,-3.8574,-3.8574,-3.8574,-3.8574,-3.8574,-3.8574,-3.8574,-3.8574,-3.8574,-3.8574,-3.8574,-3.8574,-3.8574,-3.8574,-3.8574,-3.8574,-3.8574,-3.8428,-3.8302,-3.8302,-3.8063,-3.7974,-3.8147,-3.8525,-3.9038,-3.9651,-4.0195,-4.0509,-4.0453,-4.1561,-4.2342,-4.212,-4.2187,-4.2182,-4.1834,-4.1601,-4.061,-3.8527,-3.8374,-3.7347,-3.5027,-3.4853,-3.4329,-3.294,-3.1997,-3.1479,-3.1479,-3.0437,-2.9913,-2.9913,-2.9913,-2.9913,-2.9913,-2.9913,-2.9913,-3.8379,-3.8574,-3.8574,-3.8574,-3.8574,-3.8754,-3.9502,-3.9687,-3.9918,-4.0795,-4.2269,-4.3417,-4.3545,-4.3546,-4.4149,-4.6327,-4.5711,-4.4724,-4.4158,-4.4601,-4.399,-4.1221,-4.0882,-4.0668,-4.0238,-3.9858,-3.9518,-3.9176,-3.9103,-3.8958,-3.8647,-3.8574,-3.8574,-3.8574,-3.8574,-3.8574,-3.8574,-3.8574,-3.8574,-3.8574,-3.8574,-3.8574,-3.8574,-3.8574,-3.8574,-3.8574,-3.8574,-3.8574,-3.8574,-3.8574,-3.8574,-3.8574,-3.8574,-3.8574,-3.8574,-3.8574,-3.8574,-3.8574,-3.8574,-3.8574,-3.8574,-3.8574,-3.8574,-3.8574,-3.8574,-3.8574,-3.8574,-3.8574,-3.8574,-3.8574,-3.8574,-3.8574,-3.8574,-3.8574,-3.8574,-3.8574,-3.8574,-3.8613,-3.8769,-3.9141,-3.9297,-3.9629,-4.0391,-4.0566,-4.0762,-4.1191,-4.1933,-4.2441,-4.25,-4.3203,-4.3711,-4.3711,-4.3711,-4.2927,-4.0932,-4.0764,-3.9734,-3.7432,-3.7261,-3.7089,-3.683,-3.494,-3.3819,-3.3819,-3.1568,-3.0348,-3.0348,-3.0093,-2.9913,-2.9913,-2.9913,-2.9913,-3.8535,-3.8574,-3.8574,-3.8574,-3.8574,-3.8754,-3.9502,-3.9687,-4.0064,-4.143,-4.2329,-4.3046,-4.3647,-4.3839,-4.3778,-4.3435,-4.2965,-4.2382,-4.1486,-4.1594,-4.1489,-4.0974,-4.0596,-4.0238,-3.9858,-3.9518,-3.9103,-3.872,-3.872,-3.8647,-3.8574,-3.8574,-3.8574,-3.8574,-3.8574,-3.8574,-3.8574,-3.8574,-3.8574,-3.8574,-3.8574,-3.8574,-3.8574,-3.8574,-3.8574,-3.8574,-3.8574,-3.8574,-3.8574,-3.8574,-3.8574,-3.8574,-3.8574,-3.8574,-3.8574,-3.8574,-3.8574,-3.8574,-3.8574,-3.8574,-3.8574,-3.8574,-3.8574,-3.8574,-3.8574,-3.8574,-3.8574,-3.8574,-3.8574,-3.8574,-3.8574,-3.8574,-3.8574,-3.8574,-3.8574,-3.8574,-3.8574,-3.8848,-3.9121,-3.9199,-3.9785,-4.0351,-4.0488,-4.082,-4.1211,-4.1621,-4.2109,-4.2558,-4.291,-4.3398,-4.3711,-4.3711,-4.3711,-4.3526,-4.3093,-4.3093,-4.2141,-3.9818,-3.9649,-3.88,-3.6917,-3.6399,-3.6226,-3.6226,-3.3994,-3.2778,-3.2778,-3.087,-2.9913,-2.9913,-2.9913,-2.9913,-3.8574,-3.8574,-3.8574,-3.8574,-3.872,-3.9138,-4.0082,-4.0428,-4.0928,-4.2195,-4.2925,-4.3306,-4.3344,-4.3431,-4.3385,-4.2899,-4.2225,-4.1638,-4.1463,-4.113,-4.0811,-4.0596,-4.0382,-4.0094,-3.9518,-3.9321,-3.903,-3.8647,-3.8574,-3.8574,-3.8574,-3.8574,-3.8574,-3.8574,-3.8574,-3.8574,-3.8574,-3.8574,-3.8574,-3.8574,-3.8574,-3.8574,-3.8574,-3.8574,-3.8574,-3.8574,-3.8574,-3.8574,-3.8574,-3.8574,-3.8574,-3.8574,-3.8574,-3.8574,-3.8574,-3.8574,-3.8574,-3.8574,-3.8574,-3.8574,-3.8574,-3.8574,-3.8574,-3.8574,-3.8574,-3.8574,-3.8574,-3.8574,-3.8574,-3.8574,-3.8574,-3.8574,-3.8574,-3.8574,-3.8574,-3.8633,-3.8848,-3.9062,-3.9336,-3.9805,-4.0234,-4.0586,-4.082,-4.1035,-4.1308,-4.1738,-4.2148,-4.2578,-4.3027,-4.3437,-4.3711,-4.3711,-4.3711,-4.3711,-4.3711,-4.3711,-4.3278,-4.2141,-4.2057,-4.1537,-4.0427,-3.9225,-3.863,-3.863,-3.6313,-3.5201,-3.5201,-3.2867,-3.1745,-3.1657,-3.069,-3.014,-3.8899,-3.8924,-3.9003,-3.9003,-3.9301,-3.9871,-4.0804,-4.1338,-4.1827,-4.2789,-4.3313,-4.3489,-4.3062,-4.3136,-4.3311,-4.3585,-4.3168,-4.2736,-4.257,-4.221,-4.1544,-4.0453,-4.0166,-3.9827,-3.9248,-3.9103,-3.8958,-3.8647,-3.8574,-3.8574,-3.8574,-3.8574,-3.8574,-3.8574,-3.8574,-3.8574,-3.8574,-3.8574,-3.8574,-3.8574,-3.8574,-3.8574,-3.8574,-3.8574,-3.8574,-3.8574,-3.8574,-3.8574,-3.8574,-3.8574,-3.8574,-3.8574,-3.8574,-3.8574,-3.8574,-3.8574,-3.8574,-3.8574,-3.8574,-3.8574,-3.8574,-3.8574,-3.8574,-3.8574,-3.8574,-3.8574,-3.8574,-3.8574,-3.8574,-3.8574,-3.8574,-3.8574,-3.8574,-3.8574,-3.8652,-3.8809,-3.9121,-3.9355,-3.9687,-4.0391,-4.0662,-4.0916,-4.1268,-4.1327,-4.1504,-4.2013,-4.2287,-4.2617,-4.3144,-4.3496,-4.3711,-4.3711,-4.3711,-4.3711,-4.3711,-4.3711,-4.3711,-4.3711,-4.3711,-4.3711,-4.3711,-4.1974,-4.1071,-4.1163,-3.8767,-3.7552,-3.7636,-3.532,-3.42,-3.4189,-3.21,-3.1185,-3.9809,-3.9943,-4.0245,-4.0245,-4.0566,-4.1068,-4.1728,-4.1918,-4.2178,-4.2863,-4.3011,-4.3037,-4.2986,-4.3407,-4.4048,-4.5056,-4.656,-4.6785,-4.446,-4.4861,-4.4152,-4.0689,-3.9682,-3.9248,-3.9176,-3.8885,-3.8647,-3.8574,-3.8574,-3.8574,-3.8574,-3.8574,-3.8574,-3.8574,-3.8574,-3.8574,-3.8574,-3.8574,-3.8574,-3.8574,-3.8574,-3.8574,-3.8574,-3.8574,-3.8574,-3.8574,-3.8574,-3.8574,-3.8574,-3.8574,-3.8574,-3.8574,-3.8574,-3.8574,-3.8574,-3.8574,-3.8574,-3.8574,-3.8574,-3.8574,-3.8574,-3.8574,-3.8574,-3.8574,-3.8574,-3.8574,-3.8574,-3.8574,-3.8574,-3.8574,-3.8574,-3.8574,-3.8574,-3.8574,-3.8867,-3.916,-3.9199,-3.9824,-4.043,-4.0508,-4.1148,-4.1733,-4.1773,-4.1773,-4.205,-4.2883,-4.2642,-4.2715,-4.3535,-4.3691,-4.3711,-4.3711,-4.3711,-4.3711,-4.3711,-4.3711,-4.3711,-4.3711,-4.3711,-4.3711,-4.3711,-4.3526,-4.3555,-4.3981,-4.1321,-4.0185,-4.0561,-3.7773,-3.6736,-3.7064,-3.4644,-3.3679,-3.9226,-3.9202,-3.934,-3.934,-3.9982,-4.0717,-4.1177,-4.1851,-4.2674,-4.3908,-4.3547,-4.3492,-4.5155,-4.4963,-4.5161,-4.7213,-4.7717,-4.7788,-4.7424,-4.5797,-4.4053,-4.2283,-4.038,-3.9103,-3.8885,-3.872,-3.8574,-3.8574,-3.8574,-3.8574,-3.8574,-3.8574,-3.8574,-3.8574,-3.8574,-3.8574,-3.8574,-3.8574,-3.8574,-3.8574,-3.8574,-3.8574,-3.8574,-3.8574,-3.8574,-3.8574,-3.8574,-3.8574,-3.8574,-3.8574,-3.8574,-3.8574,-3.8574,-3.8574,-3.8574,-3.8574,-3.8574,-3.8574,-3.8574,-3.8574,-3.8574,-3.8574,-3.8574,-3.8574,-3.8574,-3.8574,-3.8574,-3.8574,-3.8574,-3.8574,-3.8574,-3.8793,-3.9017,-3.9273,-3.947,-3.9727,-4.0239,-4.0633,-4.1045,-4.1532,-4.1942,-4.2139,-4.2139,-4.2126,-4.2367,-4.2982,-4.2978,-4.3027,-4.3633,-4.3711,-4.3711,-4.3711,-4.3711,-4.3711,-4.3711,-4.3711,-4.3711,-4.3711,-4.3711,-4.3711,-4.3711,-4.3711,-4.3926,-4.4394,-4.3342,-4.2932,-4.3349,-4.0898,-3.9756,-3.9914,-3.7654,-3.6744,-3.9525,-3.9181,-3.9135,-3.9135,-4.0023,-4.0929,-4.1109,-4.1962,-4.3041,-4.4193,-4.3657,-4.3602,-4.5502,-4.5395,-4.5902,-4.8511,-4.9091,-4.955,-5.0509,-4.8793,-4.7133,-4.6092,-4.4362,-4.2586,-4.0843,-3.9453,-3.8574,-3.8574,-3.8574,-3.8574,-3.8574,-3.8574,-3.8574,-3.8574,-3.8574,-3.8574,-3.8574,-3.8574,-3.8574,-3.8574,-3.8574,-3.8574,-3.8574,-3.8574,-3.8574,-3.8574,-3.8574,-3.8574,-3.8574,-3.8574,-3.8574,-3.8574,-3.8574,-3.8574,-3.8574,-3.8574,-3.8574,-3.8574,-3.8574,-3.8574,-3.8574,-3.8574,-3.8574,-3.8574,-3.8574,-3.8574,-3.8574,-3.8574,-3.872,-3.8793,-3.8938,-3.9255,-3.9652,-3.9878,-4.0156,-4.0514,-4.1131,-4.137,-4.1702,-4.2309,-4.2524,-4.26,-4.26,-4.2674,-4.2881,-4.3241,-4.3277,-4.3386,-4.3652,-4.3711,-4.3711,-4.3711,-4.3711,-4.3711,-4.3711,-4.3711,-4.3711,-4.3711,-4.3711,-4.3711,-4.3711,-4.3711,-4.3984,-4.457,-4.4453,-4.4668,-4.5215,-4.348,-4.2685,-4.2728,-4.056,-3.9217,-4.1239,-4.0589,-4.0378,-4.0378,-4.1295,-4.2176,-4.2059,-4.2557,-4.306,-4.3031,-4.3042,-4.3042,-4.3042,-4.4126,-4.5902,-4.8645,-5.1311,-5.3134,-5.3469,-5.4901,-5.4983,-5.2567,-5.2486,-5.0771,-4.6101,-4.1316,-3.8574,-3.8574,-3.8574,-3.8574,-3.8574,-3.8574,-3.8574,-3.8574,-3.8574,-3.8574,-3.8574,-3.8574,-3.8574,-3.8574,-3.8574,-3.8574,-3.8574,-3.8574,-3.8574,-3.8574,-3.8574,-3.8574,-3.8574,-3.8574,-3.8574,-3.8574,-3.8574,-3.8574,-3.8574,-3.8574,-3.8574,-3.8574,-3.8574,-3.8574,-3.8574,-3.8574,-3.8574,-3.8574,-3.8574,-3.8574,-3.8574,-3.8574,-3.8885,-3.9248,-3.957,-4.0036,-4.0378,-4.0378,-4.1042,-4.1686,-4.1706,-4.2048,-4.237,-4.237,-4.2697,-4.3004,-4.3004,-4.3392,-4.3685,-4.3657,-4.3679,-4.3712,-4.3735,-4.3711,-4.3711,-4.3711,-4.3711,-4.3711,-4.3711,-4.3711,-4.3711,-4.3711,-4.3711,-4.3711,-4.3711,-4.3711,-4.4121,-4.5,-4.4609,-4.4824,-4.5664,-4.5234,-4.5149,-4.5578,-4.3135,-4.0892,-4.2626,-4.1885,-4.1582,-4.2046,-4.2444,-4.278,-4.2724,-4.3581,-4.4386,-4.4367,-4.4372,-4.4941,-4.6888,-4.7554,-4.9212,-5.3325,-5.4635,-5.6031,-5.8417,-5.4721,-5.1471,-5.0727,-4.6149,-4.2536,-4.0987,-3.9453,-3.8574,-3.8574,-3.8574,-3.8574,-3.8574,-3.8574,-3.8574,-3.8574,-3.8574,-3.8574,-3.8574,-3.8574,-3.8574,-3.8574,-3.8574,-3.8574,-3.8574,-3.8574,-3.8574,-3.8574,-3.8574,-3.8574,-3.8574,-3.8574,-3.8574,-3.8574,-3.8574,-3.8574,-3.8574,-3.8574,-3.8574,-3.8574,-3.8574,-3.8574,-3.8574,-3.8574,-3.8574,-3.8574,-3.8574,-3.8574,-3.8647,-3.8958,-3.9228,-3.9722,-4.0407,-4.0736,-4.1,-4.1536,-4.1901,-4.2185,-4.249,-4.2673,-4.2927,-4.3157,-4.331,-4.3386,-4.3386,-4.3792,-4.403,-4.3698,-4.3938,-4.4047,-4.3774,-4.3711,-4.3711,-4.3711,-4.3711,-4.3711,-4.3711,-4.3711,-4.3711,-4.3711,-4.3711,-4.3711,-4.3711,-4.4004,-4.4453,-4.5019,-4.5195,-4.5547,-4.6113,-4.5957,-4.5957,-4.6094,-4.5269,-4.3704,-4.373,-4.2837,-4.2484,-4.312,-4.3554,-4.3858,-4.406,-4.5009,-4.582,-4.582,-4.582,-4.6188,-4.7402,-4.8489,-5.0146,-5.3046,-5.4805,-5.634,-5.7817,-5.4666,-5.188,-5.1042,-4.5231,-4.1316,-4.1316,-3.9618,-3.8574,-3.8574,-3.8574,-3.8574,-3.8574,-3.8574,-3.8574,-3.8574,-3.8574,-3.8574,-3.8574,-3.8574,-3.8574,-3.8574,-3.8574,-3.8574,-3.8574,-3.8574,-3.8574,-3.8574,-3.8574,-3.8574,0.0,-3.8574,-3.8574,-3.8574,-3.8574,-3.8574,-3.8574,-3.8574,-3.8574,-3.8574,-3.8574,-3.8574,-3.8574,-3.8574,-3.872,-3.8812,-3.8812,-3.8812,-3.8938,-3.9465,-3.9855,-4.0326,-4.1068,-4.1469,-4.1859,-4.2413,-4.2679,-4.2885,-4.3172,-4.3233,-4.331,-4.3539,-4.3615,-4.3677,-4.3842,-4.4251,-4.4491,-4.4198,-4.4421,-4.4452,-4.4041,-4.3793,-4.3711,-4.3711,-4.3711,-4.3711,-4.3711,-4.3711,-4.3711,-4.3711,-4.3711,-4.3711,-4.3711,-4.3984,-4.4414,-4.5019,-4.5293,-4.5723,-4.6308,-4.6308,-4.6308,-4.6308,-4.6308,-4.548,0.0,-4.3632,-4.3251,-4.3954,-4.4668,-4.536,-4.5941,-4.6676,0.0,-4.7094,-4.7197,-4.6864,-4.5662,-4.7615,-4.9488,-4.9693,-5.2995,-5.4972,-5.3492,-5.4419,-5.4548,-5.2597,-4.814,-4.5357,-4.5728,-4.1408,-3.8574,-3.8574,-3.8574,-3.8574,-3.8574,-3.8574,-3.8574,-3.8574,-3.8574,-3.8574,-3.8574,-3.8574,-3.8574,-3.8574,-3.8574,-3.8574,-3.8574,-3.8574,-3.8574,-3.8574,-3.8574,-3.8574,-3.8574,-3.8574,-3.8574,-3.8574,-3.8574,-3.8574,-3.8574,-3.8574,-3.8574,-3.8574,-3.8574,-3.8574,-3.8574,-3.8574,-3.8865,-3.9176,-3.9248,-3.9248,-3.9393,-4.0135,-4.0677,-4.115,-4.1576,-4.229,-4.2932,-4.2952,-4.338,-4.3691,-4.3691,-4.3691,-4.3691,-4.3615,-4.3615,-4.376,-4.4215,-4.4691,-4.4989,-4.4963,-4.5008,-4.4882,-4.4452,-4.3958,-4.3711,-4.3711,-4.3711,-4.3711,-4.3711,-4.3711,-4.3711,-4.3711,-4.3711,-4.3711,-4.3711,-4.373,-4.4141,-4.4961,-4.5039,-4.5469,-4.625,-4.6289,-4.6308,-4.6308,-4.6308,-4.6308,-4.5725,0.0,-4.5092,-4.6215,-4.6642,-4.682,0.0,-4.7879,-4.8389,-4.7299,-4.7959,-4.8874,-4.9586,-5.0676,-5.2487,-5.5512,-5.7232,-5.7647,-5.6205,-5.1432,-4.8106,-4.8122,-4.3478,-4.1934,-4.6065,-4.1668,-3.8574,-3.8574,-3.8574,-3.8574,-3.8574,-3.8574,-3.8574,-3.8574,-3.8574,-3.8574,-3.8574,-3.8574,-3.8574,-3.8574,-3.8574,-3.8574,-3.8574,-3.8574,-3.8574,-3.8574,-3.8574,-3.8574,-3.8574,-3.8574,-3.8574,-3.8574,-3.8574,-3.8574,-3.8574,-3.8574,-3.8574,-3.8574,-3.8574,-3.8574,-3.8574,-3.8574,-3.8865,-3.9248,-3.9518,-3.9806,-4.0176,-4.0666,-4.112,-4.1658,-4.2435,-4.299,-4.3443,-4.382,-4.4193,-4.4504,-4.4504,-4.4504,-4.4428,-4.4125,-4.405,-4.4141,-4.4292,-4.4691,-4.4989,-4.4963,-4.5008,-4.4882,-4.4452,-4.3958,-4.3711,-4.3711,-4.3711,-4.3711,-4.3711,-4.3711,-4.3711,-4.3711,-4.3711,-4.3711,-4.3711,-4.4043,-4.4336,-4.4551,-4.5195,-4.5625,-4.582,-4.6152,-4.6308,-4.6308,-4.6308,-4.6308,-4.5574,-4.6267,-4.7021,-4.8298,-4.8636,-4.8823,-4.9362,-4.9567,-4.9522,-4.9104,-4.9582,-5.0155,-5.0204,-5.0256,-5.1519,-5.5236,-5.4767,-5.424,-5.4905,-5.1758,-4.8704,-4.6927,-4.4118,-4.2505,-4.2949,-4.0306,-3.8574,-3.8574,-3.8574,-3.8574,-3.8574,-3.8574,-3.8574,-3.8574,-3.8574,-3.8574,-3.8574,-3.8574,-3.8574,-3.8574,-3.8574,-3.8574,-3.8574,-3.8574,-3.8574,-3.8574,-3.8574,-3.8574,-3.8574,-3.8574,-3.8574,-3.8574,-3.8574,-3.8574,-3.8574,-3.8574,-3.8574,-3.8574,-3.8574,-3.8574,-3.8647,-3.8793,-3.9156,-3.9558,-4.0121,-4.0544,-4.0966,-4.1213,-4.1876,-4.2585,-4.3085,-4.3602,-4.4187,-4.444,-4.4654,-4.4805,-4.4805,-4.4805,-4.473,-4.4504,-4.4694,-4.4837,-4.4836,-4.5315,-4.5616,-4.5591,-4.5291,-4.4882,-4.4698,-4.4123,-4.3711,-4.3711,-4.3711,-4.3711,-4.3711,-4.3711,-4.3711,-4.3711,-4.3711,-4.3711,-4.3711,-4.3945,-4.418,-4.4394,-4.5234,-4.5683,-4.5683,-4.6094,-4.6308,-4.6308,-4.6308,-4.6308,-4.5065,-4.6618,-4.8117,-4.9417,-4.9956,-5.0465,-5.1528,-5.105,-5.0495,-5.1063,-5.1229,-5.0864,-4.98,-4.9437,-5.0276,-5.3152,-5.0548,-4.896,-5.1264,-5.1507,-5.0271,-4.7092,-4.5943,-4.3953,-4.0213,-3.909,-3.8574,-3.8574,-3.8574,-3.8574,-3.8574,-3.8574,-3.8574,-3.8574,-3.8574,-3.8574,-3.8574,-3.8574,-3.8574,-3.8574,-3.8574,-3.8574,-3.8574,-3.8574,-3.8574,-3.8574,-3.8574,-3.8574,-3.8574,-3.8574,-3.8574,-3.8574,-3.8574,-3.8574,-3.8574,-3.8574,-3.8574,-3.8574,-3.8574,-3.8574,-3.8647,-3.9103,-3.9445,-3.9867,-4.0715,-4.1409,-4.1835,-4.1897,-4.27,-4.353,-4.3667,-4.4283,-4.488,-4.488,-4.4955,-4.5031,-4.5031,-4.5031,-4.4977,-4.5041,-4.5382,-4.5622,-4.5763,-4.6048,-4.6309,-4.6366,-4.5617,-4.4964,-4.4964,-4.4205,-4.3711,-4.3711,-4.3711,-4.3711,-4.3711,-4.3711,-4.3711,-4.3711,-4.3711,-4.3711,-4.3711,-4.3711,-4.3887,-4.4277,-4.5078,-4.5508,-4.5566,-4.5996,-4.623,-4.6308,-4.6308,-4.6308,-4.5663,-4.5861,-4.5965,-4.7377,-4.897,-5.0106,-4.9793,-5.0421,-5.1109,-5.1199,-5.1229,-5.1206,-5.1318,-5.3326,-5.5248,-5.5994,-5.2375,-4.8698,-4.6239,-4.3089,-4.2348,-4.6223,-4.2598,-4.1358,-4.5123,-4.1266,-3.8574,-3.8574,-3.8574,-3.8574,-3.8574,-3.8574,-3.8574,-3.8574,-3.8574,-3.8574,-3.8574,-3.8574,-3.8574,-3.8574,-3.8574,-3.8574,-3.8574,-3.8574,-3.8574,-3.8574,-3.8574,-3.8574,-3.8574,-3.8574,-3.8574,-3.8574,-3.8574,-3.8574,-3.8574,-3.8574,-3.8574,-3.8574,-3.8574,-3.8574,-3.8647,-3.9103,-3.9445,-3.9867,-4.0715,-4.1761,-4.2743,-4.312,-4.3329,-4.3667,-4.4442,-4.4966,-4.533,-4.533,-4.5555,-4.5928,-4.6225,-4.6077,-4.5909,-4.6301,-4.6225,-4.6167,-4.6635,-4.6474,-4.6468,-4.6849,-4.5779,-4.4964,-4.4964,-4.4205,-4.3711,-4.3711,-4.3711,-4.3711,-4.3711,-4.3711,-4.3711,-4.3711,-4.3711,-4.3711,-4.3711,-4.3711,-4.373,-4.3808,-4.4336,-4.4766,-4.5117,-4.5566,-4.5957,-4.6308,-4.6308,-4.6308,-4.5334,-4.605,-4.6232,-4.6139,-4.6739,-4.7378,-4.7405,-4.7351,-4.7802,-4.9666,-5.0052,-5.0269,-5.1042,-5.0878,-4.9802,-4.7312,-4.9142,-4.9685,-4.6264,-4.6399,-4.6792,-4.674,-4.4491,-4.2784,-4.234,-4.0048,-3.8574,-3.8574,-3.8574,-3.8574,-3.8574,-3.8574,-3.8574,-3.8574,-3.8574,-3.8574,-3.8574,-3.8574,-3.8574,-3.8574,-3.8574,-3.8574,-3.8574,-3.8574,-3.8574,-3.8574,-3.8574,-3.8574,-3.8574,-3.8574,-3.8574,-3.8574,-3.8574,-3.8574,-3.8574,-3.8574,-3.8574,-3.8574,-3.8574,-3.8574,-3.872,-3.9301,-3.957,-3.9907,-4.1293,-4.223,-4.3057,-4.3975,-4.4336,-4.4678,-4.5266,-4.5779,-4.6077,-4.6299,-4.6522,-4.6758,-4.7247,-4.724,-4.7224,-4.7711,-4.764,-4.7563,-4.761,-4.744,-4.73,-4.7052,-4.6266,-4.5515,-4.5046,-4.4452,-4.3958,-4.3711,-4.3711,-4.3711,-4.3711,-4.3711,-4.3711,-4.3711,-4.3711,-4.3711,-4.3711,-4.3711,-4.3711,-4.3711,-4.416,-4.4609,-4.5019,-4.5469,-4.5898,-4.6308,-4.6308,-4.6308,-4.5125,-4.6016,-4.6338,-4.5558,-4.5874,-4.6206,-4.5585,-4.5212,-4.5642,-4.7953,-4.8593,-4.9117,-5.0271,-4.8799,-4.6109,-4.2107,-4.6495,-4.9097,-4.5341,-4.7959,-4.8893,-4.5266,-4.4771,-4.3135,-3.8997,-3.8574,-3.8574,-3.8574,-3.8574,-3.8574,-3.8574,-3.8574,-3.8574,-3.8574,-3.8574,-3.8574,-3.8574,-3.8574,-3.8574,-3.8574,-3.8574,-3.8574,-3.8574,-3.8574,-3.8574,-3.8574,-3.8574,-3.8574,-3.8574,-3.8574,-3.8574,-3.8574,-3.8574,-3.8574,-3.8574,-3.8574,-3.8574,-3.8574,-3.8574,-3.8574,-3.872,-3.9425,-3.9714,-4.002,-4.1885,-4.269,-4.332,-4.4699,-4.5405,-4.5779,-4.6077,-4.6448,-4.6817,-4.7112,-4.7186,-4.7342,-4.8007,-4.8044,-4.8224,-4.8883,-4.9004,-4.8908,-4.8708,-4.8567,-4.8193,-4.7394,-4.673,-4.5982,-4.5127,-4.4616,-4.4205,-4.3793,-4.3711,-4.3711,-4.3711,-4.3711,-4.3711,-4.3711,-4.3711,-4.3711,-4.3711,-4.3711,-4.3711,-4.3711,-4.416,-4.4609,-4.5019,-4.5469,-4.5898,-4.6308,-4.6308,-4.6308,-4.5681,-4.5276,-4.4606,-4.5762,-4.8397,-4.9559,-4.5062,-4.626,-4.7919,-4.6671,-4.7144,-4.823,-4.9594,-5.1023,-5.1576,-5.0172,-4.7777,-4.4498,-3.9823,-3.9493,-3.9565,-3.9255,-3.9182,-3.8997,-3.8647,-3.8574,-3.8574,-3.8574,-3.8574,-3.8574,-3.8574,-3.8574,-3.8574,-3.8574,-3.8574,-3.8574,-3.8574,-3.8574,-3.8574,-3.8574,-3.8574,-3.8574,-3.8574,-3.8574,-3.8574,-3.8574,-3.8574,-3.8574,-3.8574,-3.8574,-3.8574,-3.8574,-3.8574,-3.8574,-3.8574,-3.8574,-3.8574,-3.8574,-3.8574,-3.8574,-3.872,-3.9425,-3.9714,-4.0092,-4.2178,-4.313,-4.3833,-4.5444,-4.6225,-4.6522,-4.6522,-4.6817,-4.7186,-4.7186,-4.7186,-4.7394,-4.8259,-4.8246,-4.8389,-4.9692,-4.9612,-4.9483,-4.9953,-4.9438,-4.8749,-4.8273,-4.7111,-4.5982,-4.5127,-4.4616,-4.4205,-4.3793,-4.3711,-4.3711,-4.3711,-4.3711,-4.3711,-4.3711,-4.3711,-4.3711,-4.3711,-4.3711,-4.3711,-4.3711,-4.416,-4.4609,-4.5019,-4.5469,-4.5898,-4.6308,-4.6308,-4.6308,-4.5155,-4.491,-4.4416,-4.5792,-4.8009,-4.8512,-4.3198,-4.3591,-4.5759,-4.7996,-4.7587,-4.7548,-4.9691,-4.7644,-4.5757,-4.6338,-4.3529,-4.0679,-3.8812,-3.8574,-3.8574,-3.8574,-3.8574,-3.8574,-3.8574,-3.8574,-3.8574,-3.8574,-3.8574,-3.8574,-3.8574,-3.8574,-3.8574,-3.8574,-3.8574,-3.8574,-3.8574,-3.8574,-3.8574,-3.8574,-3.8574,-3.8574,-3.8574,-3.8574,-3.8574,-3.8574,-3.8574,-3.8574,-3.8574,-3.8574,-3.8574,-3.8574,-3.8574,-3.8574,-3.8574,-3.8574,-3.8574,-3.8574,-3.8574,-3.8574,-3.872,-3.9425,-3.9714,-4.0092,-4.2251,-4.3328,-4.4104,-4.557,-4.704,-4.8106,-4.7789,-4.7794,-4.8155,-4.8964,-4.9106,-4.9411,-5.0416,-5.0526,-5.066,-5.1483,-5.1317,-5.1025,-5.0976,-5.0455,-4.9774,-4.8828,-4.8012,-4.6951,-4.5596,-4.5025,-4.4534,-4.3793,-4.3711,-4.3711,-4.3711,-4.3711,-4.3711,-4.3711,-4.3711,-4.3711,-4.3711,-4.3711,-4.3711,-4.3711,-4.3867,-4.4316,-4.5019,-4.5195,-4.5625,-4.6308,-4.6308,-4.6308,-4.4124,-4.4697,-4.4807,-4.5023,-4.6948,-4.7436,-4.2166,-4.2801,-4.4991,-4.6839,-4.6878,-4.7191,-4.9286,-4.5655,-4.267,-4.3712,-4.0938,-3.8574,-3.8574,-3.8574,-3.8574,-3.8574,-3.8574,-3.8574,-3.8574,-3.8574,-3.8574,-3.8574,-3.8574,-3.8574,-3.8574,-3.8574,-3.8574,-3.8574,-3.8574,-3.8574,-3.8574,-3.8574,-3.8574,-3.8574,-3.8574,-3.8574,-3.8574,-3.8574,-3.8574,-3.8574,-3.8574,-3.8574,-3.8574,-3.8574,-3.8574,-3.8574,-3.8574,-3.8574,-3.8574,-3.8574,-3.8574,-3.8574,-3.8574,-3.8574,-3.872,-3.9425,-3.9714,-4.0092,-4.2397,-4.3547,-4.4395,-4.6087,-4.784,-4.9213,-4.9355,-4.9328,-4.9464,-5.0376,-5.0543,-5.0778,-5.1671,-5.1859,-5.2,-5.2494,-5.2383,-5.2077,-5.1847,-5.1462,-5.0789,-4.9673,-4.8943,-4.7991,-4.6144,-4.5515,-4.4862,-4.3793,-4.3711,-4.3711,-4.3711,-4.3711,-4.3711,-4.3711,-4.3711,-4.3711,-4.3711,-4.3711,-4.3711,-4.3711,-4.3848,-4.4219,-4.4824,-4.4961,-4.5391,-4.6113,-4.5957,-4.5976,-4.2798,-4.4552,-4.5526,-4.3462,-4.5515,-4.6848,-4.2374,-4.4618,-4.6558,-4.2572,-4.4436,-4.7141,-4.8227,-4.6157,-4.4279,-4.4279,-4.108,-3.8574,-3.8574,-3.8574,-3.8574,-3.8574,-3.8574,-3.8574,-3.8574,-3.8574,-3.8574,-3.8574,-3.8574,-3.8574,-3.8574,-3.8574,-3.8574,-3.8574,-3.8574,-3.8574,-3.8574,-3.8574,-3.8574,-3.8574,-3.8574,-3.8574,-3.8574,-3.8574,-3.8574,-3.8574,-3.8574,-3.8574,-3.8574,-3.8574,-3.8574,-3.8574,-3.8574,-3.8574,-3.8574,-3.8574,-3.8574,-3.8574,-3.8574,-3.8574,-3.872,-3.9425,-3.9714,-4.0164,-4.2761,-4.3765,-4.454,-4.7063,-4.8452,-4.9577,-5.1081,-5.1342,-5.1107,-5.1107,-5.1107,-5.1322,-5.184,-5.1934,-5.2099,-5.2494,-5.2588,-5.2588,-5.2612,-5.2307,-5.177,-5.0876,-5.002,-4.8763,-4.6608,-4.5901,-4.5169,-4.3856,-4.3711,-4.3711,-4.3711,-4.3711,-4.3711,-4.3711,-4.3711,-4.3711,-4.3711,-4.3711,-4.3711,-4.3711,-4.416,-4.4394,-4.4394,-4.4824,-4.5254,-4.5664,-4.5234,-4.5254,-4.4414,-4.3601,-4.2928,-4.4701,-4.4928,-4.4341,-4.2776,-4.392,-4.4912,-4.3653,-4.5926,-4.8071,-4.7671,-4.4226,-4.2086,-4.3961,-4.108,-3.8574,-3.8574,-3.8574,-3.8574,-3.8574,-3.8574,-3.8574,-3.8574,-3.8574,-3.8574,-3.8574,-3.8574,-3.8574,-3.8574,-3.8574,-3.8574,-3.8574,-3.8574,-3.8574,-3.8574,-3.8574,-3.8574,-3.8574,-3.8574,-3.8574,-3.8574,-3.8574,-3.8574,-3.8574,-3.8574,-3.8574,-3.8574,-3.8574,-3.8574,-3.8574,-3.8574,-3.8574,-3.8574,-3.8574,-3.8574,-3.8574,-3.8574,-3.8574,-3.872,-3.9425,-3.9858,-4.0617,-4.3103,-4.4322,-4.5335,-4.7572,-4.9364,-5.0775,-5.1776,-5.2476,-5.2814,-5.272,-5.3035,-5.3351,-5.3447,-5.3787,-5.4102,-5.4248,-5.4272,-5.4197,-5.3873,-5.3723,-5.3422,-5.2565,-5.2007,-5.0462,-4.7139,-4.5271,-4.4005,-4.3382,-4.3535,-4.3711,-4.3711,-4.3711,-4.3711,-4.3711,-4.3711,-4.3711,-4.3711,-4.3711,-4.3711,-4.3711,-4.3848,-4.4062,-4.4394,-4.4531,-4.4805,-4.5215,-4.5078,-4.5098,-4.3197,-4.284,-4.2632,-4.3011,-4.2899,-4.246,-4.1791,-4.2492,-4.3252,-4.3372,-4.4547,-4.5486,-4.488,-4.2117,-4.0392,-4.2043,-4.0167,-3.8574,-3.8574,-3.8574,-3.8574,-3.8574,-3.8574,-3.8574,-3.8574,-3.8574,-3.8574,-3.8574,-3.8574,-3.8574,-3.8574,-3.8574,-3.8574,-3.8574,-3.8574,-3.8574,-3.8574,-3.8574,-3.8574,-3.8574,-3.8574,-3.8574,-3.8574,-3.8574,-3.8574,-3.8574,-3.8574,-3.8574,-3.8574,-3.8574,-3.8574,-3.8574,-3.8574,-3.8574,-3.8574,-3.8574,-3.8574,-3.8574,-3.8574,-3.872,-3.8938,-3.9498,-4.0074,-4.0976,-4.332,-4.4539,-4.5694,-4.7934,-4.9756,-5.1265,-5.2478,-5.3278,-5.374,-5.369,-5.3812,-5.3959,-5.418,-5.4427,-5.4795,-5.4918,-5.4967,-5.4892,-5.4645,-5.4645,-5.4421,-5.3798,-5.2845,-5.101,-4.7553,-4.5874,-4.4418,-4.2952,-4.3359,-4.3633,-4.3476,-4.3613,-4.3711,-4.3711,-4.3711,-4.3711,-4.3711,-4.3711,-4.3711,-4.3711,-4.3711,-4.3848,-4.4121,-4.4121,-4.4355,-4.4766,-4.459,-4.459,-4.0523,-4.2195,-4.3559,-3.9725,-4.0139,-4.1151,-4.0068,-4.063,-4.1555,-4.203,-4.1489,-4.091,-4.0902,-3.9943,-3.9176,-3.9176,-3.8885,-3.8574,-3.8574,-3.8574,-3.8574,-3.8574,-3.8574,-3.8574,-3.8574,-3.8574,-3.8574,-3.8574,-3.8574,-3.8574,-3.8574,-3.8574,-3.8574,-3.8574,-3.8574,-3.8574,-3.8574,-3.8574,-3.8574,-3.8574,-3.8574,-3.8574,-3.8574,-3.8574,-3.8574,-3.8574,-3.8574,-3.8574,-3.8574,-3.8574,-3.8574,-3.8574,-3.8574,-3.8574,-3.8574,-3.8574,-3.8574,-3.8574,-3.8647,-3.8865,-3.9248,-3.9662,-4.0402,-4.1447,-4.3464,-4.4727,-4.5882,-4.8272,-4.9957,-5.1345,-5.2886,-5.3607,-5.397,-5.4104,-5.381,-5.3613,-5.4056,-5.4204,-5.4376,-5.4869,-5.5016,-5.5041,-5.5041,-5.509,-5.4967,-5.4645,-5.31,-5.0918,-4.8189,-4.734,-4.5847,-4.2922,-4.333,-4.3683,-4.3105,-4.3418,-4.3672,-4.3711,-4.3711,-4.3711,-4.3711,-4.3711,-4.3711,-4.3711,-4.3711,-4.3711,-4.3711,-4.3711,-4.3926,-4.4316,-4.3906,-4.3926,-4.2605,-4.1658,-4.079,-4.0427,-4.0,-3.9739,-3.9702,-3.9927,-4.0213,-4.0732,-4.0679,-4.0424,-4.006,-3.9578,-3.9176,-3.9176,-3.8885,-3.8574,-3.8574,-3.8574,-3.8574,-3.8574,-3.8574,-3.8574,-3.8574,-3.8574,-3.8574,-3.8574,-3.8574,-3.8574,-3.8574,-3.8574,-3.8574,-3.8574,-3.8574,-3.8574,-3.8574,-3.8574,-3.8574,-3.8574,-3.8574,-3.8574,-3.8574,-3.8574,-3.8574,-3.8574,-3.8574,-3.8574,-3.8574,-3.8574,-3.8574,-3.8574,-3.8574,-3.8574,-3.8574,-3.8574,-3.8574,-3.8647,-3.8958,-3.9103,-3.9393,-4.031,-4.1468,-4.2728,-4.4436,-4.5953,-4.7408,-4.8963,-5.0341,-5.1585,-5.2517,-5.3038,-5.3346,-5.3753,-5.4098,-5.4248,-5.3853,-5.4198,-5.4574,-5.4674,-5.5049,-5.5276,-5.5276,-5.5626,-5.5901,-5.5827,-5.3761,-5.1844,-5.0857,-4.9133,-4.6995,-4.4458,-4.4679,-4.4518,-4.3209,-4.3164,-4.3359,-4.3691,-4.3711,-4.3711,-4.3711,-4.3711,-4.3711,-4.3711,-4.3711,-4.3711,-4.3711,-4.3711,-4.375,-4.3848,-4.375,-4.375,-4.2091,-4.165,-4.1433,-4.0091,-3.9465,-3.9176,-3.9156,-3.9301,-3.9505,-3.9506,-3.9712,-3.9725,-3.9268,-3.9011,-3.8865,-3.8865,-3.872,-3.8574,-3.8574,-3.8574,-3.8574,-3.8574,-3.8574,-3.8574,-3.8574,-3.8574,-3.8574,-3.8574,-3.8574,-3.8574,-3.8574,-3.8574,-3.8574,-3.8574,-3.8574,-3.8574,-3.8574,-3.8574,-3.8574,-3.8574,-3.8574,-3.8574,-3.8574,-3.8574,-3.8574,-3.8574,-3.8574,-3.8574,-3.8574,-3.8574,-3.8574,-3.8574,-3.8574,-3.8574,-3.8574,-3.8574,-3.872,-3.8958,-3.9103,-3.9538,-4.0094,-4.074,-4.196,-4.3571,-4.4838,-4.6329,-4.7855,-4.9153,-5.0437,-5.158,-5.2367,-5.2808,-5.3103,-5.3563,-5.3733,-5.3758,-5.3708,-5.3934,-5.4235,-5.4511,-5.4787,-5.4988,-5.4988,-5.544,-5.5917,-5.6168,-5.504,-5.357,-5.1846,-5.097,-4.936,-4.6127,-4.6615,-4.6365,-4.4398,-4.4361,-4.4664,-4.5169,-4.521,-4.521,-4.521,-4.521,-4.474,-4.3711,-4.3711,-4.3711,-4.3711,-4.3711,-4.3711,-4.3711,-4.3711,-4.3711,-4.0912,-4.1602,-4.2467,-3.9333,-3.8865,-3.903,-3.8647,-3.8885,-3.903,-3.8647,-3.8885,-3.903,-3.8647,-3.8574,-3.8574,-3.8574,-3.8574,-3.8574,-3.8574,-3.8574,-3.8574,-3.8574,-3.8574,-3.8574,-3.8574,-3.8574,-3.8574,-3.8574,-3.8574,-3.8574,-3.8574,-3.8574,-3.8574,-3.8574,-3.8574,-3.8574,-3.8574,-3.8574,-3.8574,-3.8574,-3.8574,-3.8574,-3.8574,-3.8574,-3.8574,-3.8574,-3.8574,-3.8574,-3.8574,-3.8574,-3.8574,-3.8574,-3.8574,-3.8574,-3.8574,-3.8647,-3.8865,-3.9248,-3.9465,-4.0094,-4.0954,-4.1239,-4.2593,-4.4272,-4.5217,-4.6612,-4.8162,-4.932,-5.0435,-5.1449,-5.2266,-5.27,-5.303,-5.3457,-5.3231,-5.3055,-5.3482,-5.3557,-5.3708,-5.4185,-5.4361,-5.4436,-5.4536,-5.5013,-5.5516,-5.5867,-5.5917,-5.4936,-5.226,-5.2618,-5.1666,-4.7941,-4.8575,-4.8351,-4.6018,-4.6167,-4.6632,-4.7178,-4.7284,-4.7166,-4.6786,-4.6888,-4.586,-4.3691,-4.3711,-4.3711,-4.3711,-4.3711,-4.3711,-4.3711,-4.3711,-4.3711,-4.1329,-4.066,-4.0084,-3.8906,-3.8647,-3.8647,-3.8647,-3.8647,-3.8647,-3.8647,-3.8647,-3.8647,-3.8574,-3.8574,-3.8574,-3.8574,-3.8574,-3.8574,-3.8574,-3.8574,-3.8574,-3.8574,-3.8574,-3.8574,-3.8574,-3.8574,-3.8574,-3.8574,-3.8574,-3.8574,-3.8574,-3.8574,-3.8574,-3.8574,-3.8574,-3.8574,-3.8574,-3.8574,-3.8574,-3.8574,-3.8574,-3.8574,-3.8574,-3.8574,-3.8574,-3.8574,-3.8574,-3.8574,-3.8574,-3.8574,-3.8574,-3.8574,-3.8574,-3.8574,-3.8647,-3.903,-3.9176,-3.9321,-4.031,-4.0811,-4.1096,-4.237,-4.3801,-4.5261,-4.6345,-4.7861,-4.9343,-4.9866,-5.0813,-5.1751,-5.1894,-5.2427,-5.2955,-5.3005,-5.298,-5.2955,-5.3005,-5.303,-5.3055,-5.313,-5.3507,-5.3984,-5.4486,-5.5013,-5.5239,-5.4838,-5.4787,-5.4465,-5.3533,-5.3113,-5.2066,-4.9866,-4.9794,-4.9186,-4.7559,-4.7875,-4.8364,-4.8753,-4.9274,-4.8755,-4.6867,-4.6786,-4.5839,-4.3691,-4.3711,-4.3711,-4.3711,-4.3711,-4.3711,-4.3711,-4.3711,-4.3711,-4.1452,-4.0457,-3.9623,-3.8803,-3.8574,-3.8574,-3.8574,-3.8574,-3.8574,-3.8574,-3.8574,-3.8574,-3.8574,-3.8574,-3.8574,-3.8574,-3.8574,-3.8574,-3.8574,-3.8574,-3.8574,-3.8574,-3.8574,-3.872,-3.8865,-3.8958,-3.8958,-3.8958,-3.8958,-3.8865,-3.8647,-3.8574,-3.8574,-3.8574,-3.8574,-3.8574,-3.8574,-3.8574,-3.8574,-3.8574,-3.8574,-3.8574,-3.8574,-3.8574,-3.8574,-3.8574,-3.8574,-3.8574,-3.8574,-3.8574,-3.8574,-3.8574,-3.8574,-3.872,-3.8958,-3.9103,-3.961,-4.0238,-4.074,-4.1452,-4.2229,-4.2861,-4.4302,-4.5841,-4.6652,-4.8075,-4.9511,-4.9961,-5.0884,-5.182,-5.182,-5.2377,-5.2929,-5.2929,-5.2929,-5.2929,-5.2929,-5.2929,-5.2929,-5.2929,-5.3105,-5.3432,-5.3984,-5.4285,-5.4461,-5.4561,-5.4561,-5.4361,-5.3783,-5.3783,-5.3303,-5.1796,-5.1922,-5.1294,-4.9464,-4.9526,-4.9989,-5.0799,-5.0799,-5.0513,-4.9946,-4.9869,-4.8863,-4.6765,-4.4763,-4.3711,-4.3711,-4.3711,-4.3711,-4.3711,-4.3711,-4.3711,-4.1638,-4.1031,-4.0395,-3.9178,-3.9111,-3.9281,-3.8714,-3.8574,-3.8574,-3.8574,-3.8574,-3.8574,-3.8574,-3.8574,-3.8574,-3.8574,-3.8574,-3.8574,-3.8574,-3.8574,-3.8574,-3.8574,-3.8574,-3.872,-3.9176,-3.9176,-3.9176,-3.9176,-3.9176,-3.903,-3.8647,-3.8574,-3.8574,-3.8574,-3.8574,-3.8574,-3.8574,-3.8574,-3.8574,-3.8574,-3.8574,-3.8574,-3.8574,-3.8574,-3.8574,-3.8574,-3.8574,-3.8574,-3.8574,-3.8574,-3.8574,-3.8647,-3.872,-3.8958,-3.9248,-3.9538,-4.0166,-4.0954,-4.131,-4.2159,-4.3141,-4.3419,-4.4725,-4.6196,-4.6773,-4.8029,-4.9414,-5.0007,-5.0998,-5.182,-5.196,-5.2446,-5.2929,-5.2929,-5.2929,-5.2929,-5.2929,-5.2929,-5.2929,-5.2929,-5.2929,-5.3055,-5.3432,-5.3607,-5.3808,-5.411,-5.426,-5.4135,-5.3582,-5.3884,-5.3833,-5.3005,-5.3281,-5.2829,-5.1295,-5.132,-5.173,-5.2622,-5.2356,-5.2137,-5.2101,-5.2244,-5.132,-4.9148,-4.6615,-4.5047,-4.4494,-4.3939,-4.3711,-4.3711,-4.3711,-4.3711,-4.2084,-4.2699,-4.2398,-4.0275,-4.065,-4.1047,-3.9042,-3.8574,-3.8574,-3.8574,-3.8574,-3.8574,-3.8574,-3.8574,-3.8574,-3.8574,-3.8574,-3.8574,-3.8574,-3.8574,-3.8574,-3.8574,-3.8574,-3.872,-3.9176,-3.9176,-3.9176,-3.9176,-3.9176,-3.903,-3.8647,-3.8574,-3.8574,-3.8574,-3.8574,-3.8574,-3.8574,-3.8574,-3.8574,-3.8574,-3.8574,-3.8574,-3.8574,-3.8574,-3.8574,-3.8574,-3.8574,-3.8574,-3.8574,-3.8574,-3.8574,-3.8647,-3.903,-3.9176,-3.9321,-4.0382,-4.0882,-4.1096,-4.2511,-4.3001,-4.328,-4.4388,-4.5347,-4.6266,-4.6954,-4.8141,-4.9459,-5.018,-5.1056,-5.189,-5.2308,-5.2654,-5.2929,-5.2929,-5.2929,-5.2929,-5.2929,-5.2929,-5.2929,-5.2929,-5.2929,-5.2929,-5.2955,-5.3381,-5.3557,-5.308,-5.3432,-5.3557,-5.303,-5.3005,-5.298,-5.2929,-5.2955,-5.2886,-5.2817,-5.3268,-5.3568,-5.3643,-5.4119,-5.3513,-5.1554,-5.198,-5.132,-4.9148,-4.9507,-4.8676,-4.6727,-4.4658,-4.3711,-4.3711,-4.3711,-4.3711,-4.2636,-4.318,-4.3357,-4.2357,-4.1751,-4.1167,-4.0234,-3.9273,-3.8574,-3.8574,-3.8574,-3.8574,-3.8574,-3.8574,-3.8574,-3.8574,-3.8574,-3.8574,-3.8574,-3.8574,-3.8574,-3.8574,-3.8574,-3.872,-3.9176,-3.9176,-3.9176,-3.9176,-3.9176,-3.903,-3.8647,-3.8574,-3.8574,-3.8574,-3.8574,-3.8574,-3.8574,-3.8574,-3.8574,-3.8574,-3.8574,-3.8574,-3.8574,-3.8574,-3.8574,-3.8574,-3.8574,-3.8574,-3.8574,-3.8574,-3.872,-3.903,-3.9103,-3.9682,-4.0382,-4.1004,-4.1714,-4.2441,-4.3211,-4.3974,-4.4572,-4.4983,-4.5802,-4.6782,-4.7383,-4.8318,-4.9376,-5.0198,-5.1101,-5.189,-5.2308,-5.2654,-5.2929,-5.2929,-5.2929,-5.2929,-5.2929,-5.2929,-5.2929,-5.2929,-5.2929,-5.2929,-5.2929,-5.308,-5.313,-5.2955,-5.308,-5.313,-5.2955,-5.2929,-5.2929,-5.2929,-5.2929,-5.2929,-5.2929,-5.3105,-5.3356,-5.3683,-5.3582,-5.3283,-5.285,-5.3072,-5.2859,-5.2043,-5.1679,-4.9904,-4.6786,-4.6082,-4.4965,-4.3711,-4.3711,-4.3711,-4.3247,-4.3974,-4.4474,-4.3852,-4.3369,-4.2649,-4.1363,-4.0193,-3.9212,-3.8675,-3.8574,-3.8574,-3.8574,-3.8574,-3.8574,-3.8574,-3.8574,-3.8574,-3.8574,-3.8574,-3.8574,-3.8574,-3.8574,-3.872,-3.9176,-3.9176,-3.9176,-3.9176,-3.9176,-3.903,-3.8647,-3.8574,-3.8574,-3.8574,-3.8574,-3.8574,-3.8574,-3.8574,-3.8574,-3.8574,-3.8574,-3.8574,-3.8574,-3.8574,-3.8574,-3.8574,-3.872,-3.8793,-3.8793,-3.8793,-3.9103,-3.961,-3.9754,-4.0382,-4.1289,-4.1785,-4.263,-4.3558,-4.4043,-4.4778,-4.5528,-4.5663,-4.6294,-4.7103,-4.7595,-4.8319,-4.9165,-4.9981,-5.096,-5.1803,-5.2148,-5.2573,-5.2929,-5.2929,-5.2929,-5.2929,-5.2929,-5.2929,-5.2929,-5.2929,-5.2929,-5.2929,-5.2929,-5.2929,-5.2929,-5.2929,-5.2929,-5.2929,-5.2929,-5.2929,-5.2929,-5.2929,-5.2929,-5.2929,-5.2929,-5.2929,-5.308,-5.3406,-5.313,-5.308,-5.3432,-5.3607,-5.3708,-5.3708,-5.3274,-5.162,-4.8649,-4.8115,-4.6786,-4.474,-4.474,-4.433,0.0,0.0,0.0,-4.4697,-4.5458,-4.5665,-4.2523,-4.1286,-4.0356,-3.8994,-3.8627,-3.8574,-3.8574,-3.8574,-3.8574,-3.8574,-3.8574,-3.8574,-3.8574,-3.8574,-3.8574,-3.8574,-3.8574,-3.872,-3.9103,-3.9176,-3.9176,-3.9176,-3.9176,-3.903,-3.8647,-3.8574,-3.8574,-3.8574,-3.8574,-3.8574,-3.8574,-3.8574,-3.8574,-3.8574,-3.8574,-3.8574,-3.8574,-3.8647,-3.8647,-3.8647,-3.903,-3.9248,-3.9248,-3.9248,-3.9682,-4.0382,-4.074,-4.1381,-4.2159,-4.2861,-4.3628,-4.4366,-4.5051,-4.5595,-4.6025,-4.6338,-4.6697,-4.7122,-4.7431,-4.8125,-4.8962,-4.9694,-5.0663,-5.1575,-5.2033,-5.2503,-5.2904,-5.2929,-5.2929,-5.2929,-5.2929,-5.2929,-5.2929,-5.2929,-5.2929,-5.2929,-5.2929,-5.2929,-5.2929,-5.2929,-5.2929,-5.2929,-5.2929,-5.2929,-5.2929,-5.2929,-5.2929,-5.2929,-5.2929,-5.2929,-5.2929,-5.2929,-5.2929,-5.2929,-5.2929,-5.3406,-5.3683,-5.3683,-5.4235,-5.3807,-5.2342,-5.0796,-4.8969,-4.6867,-4.6867,-4.5677,-4.5027,0.0,0.0,0.0,0.0,0.0,-4.4359,-4.2029,-4.0192,-4.0715,-3.9627,-3.8574,-3.8574,-3.8574,-3.8574,-3.8574,-3.8574,-3.8574,-3.8574,-3.8574,-3.8574,-3.8574,-3.8574,-3.8647,-3.872,-3.8793,-3.8793,-3.8793,-3.8793,-3.872,-3.8574,-3.8574,-3.8574,-3.8574,-3.8574,-3.8574,-3.8574,-3.8574,-3.8574,-3.8574,-3.8574,-3.8574,-3.8574,-3.8885,-3.903,-3.9103,-3.9754,-4.0166,-4.0382,-4.0094,-4.031,-4.0811,-4.1452,-4.2159,-4.2931,-4.3974,-4.4594,-4.5119,-4.5866,-4.654,-4.7098,-4.7165,-4.763,-4.8182,-4.8248,-4.868,-4.9296,-4.976,-5.0389,-5.1078,-5.1933,-5.2226,-5.2427,-5.2829,-5.2929,-5.2929,-5.2929,-5.2929,-5.2929,-5.2929,-5.2929,-5.2929,-5.2929,-5.2929,-5.2929,-5.2929,-5.2929,-5.2929,-5.2929,-5.2929,-5.2929,-5.2929,-5.2929,-5.2929,-5.2929,-5.2929,-5.2929,-5.2929,-5.2929,-5.2929,-5.2929,-5.3055,-5.313,-5.313,-5.3658,-5.3728,-5.3332,-5.2175,-5.0804,-4.9047,-4.7486,-4.5677,-4.5669,-4.6481,-4.7298,-4.7492,0.0,0.0,-4.5551,-4.3191,-4.1142,-4.0533,-3.9465,-3.8574,-3.8574,-3.8574,-3.8574,-3.8574,-3.8574,-3.8574,-3.8574,-3.8574,-3.8574,-3.8574,-3.8574,-3.8574,-3.8574,-3.8574,-3.8574,-3.8574,-3.8574,-3.8574,-3.8574,-3.8574,-3.8574,-3.8574,-3.8574,-3.8574,-3.8574,-3.8574,-3.8574,-3.8574,-3.8574,-3.872,-3.8885,-3.9228,-3.9518,-3.9682,-4.0596,-4.1167,-4.1381,-4.1785,-4.1855,-4.1877,-4.263,-4.3397,-4.409,-4.4937,-4.5619,-4.6069,-4.6674,-4.7232,-4.7762,-4.7894,-4.8248,-4.8666,-4.8772,-4.8969,-4.9282,-4.9675,-5.014,-5.0755,-5.1532,-5.1925,-5.2176,-5.2503,-5.2754,-5.2929,-5.2929,-5.2929,-5.2929,-5.2929,-5.2929,-5.2929,-5.2929,-5.2929,-5.2929,-5.2929,-5.2929,-5.2929,-5.2929,-5.2929,-5.2929,-5.2929,-5.2929,-5.2929,-5.2929,-5.2929,-5.2929,-5.2929,-5.2929,-5.2929,-5.2929,-5.2929,-5.2929,-5.2929,-5.3231,-5.3482,-5.3708,-5.3394,-5.2371,-5.0506,-4.8432,-4.6358,-4.622,-4.7158,-4.8467,-4.9288,-4.9741,0.0,-4.6514,-4.4828,-4.3035,-4.0045,-3.9252,-3.909,-3.91,-3.916,-3.92,-3.92,-3.9054,-3.8853,-3.8627,-3.8574,-3.8574,-3.8574,-3.8574,-3.8574,-3.8574,-3.8574,-3.8574,-3.8574,-3.8574,-3.8574,-3.8574,-3.8574,-3.8574,-3.8574,-3.8574,-3.8574,-3.8574,-3.8574,-3.8647,-3.8647,-3.872,-3.8938,-3.9321,-3.9786,-4.0146,-4.0525,-4.1735,-4.2208,-4.2349,-4.3814,-4.3952,-4.328,-4.409,-4.4778,-4.546,-4.5957,-4.6496,-4.7165,-4.7497,-4.7828,-4.8158,-4.8576,-4.8731,-4.8837,-4.9137,-4.9267,-4.9332,-4.959,-5.0057,-5.061,-5.1122,-5.1699,-5.2101,-5.2101,-5.2528,-5.2904,-5.2854,-5.2879,-5.2929,-5.2929,-5.2929,-5.2929,-5.2929,-5.2929,-5.2929,-5.2929,-5.2929,-5.2929,-5.2929,-5.2929,-5.2929,-5.2929,-5.2929,-5.2929,-5.2929,-5.2929,-5.2929,-5.2929,-5.2929,-5.2929,-5.2929,-5.2929,-5.2929,-5.2929,-5.2929,-5.3155,-5.3607,-5.426,-5.3488,-5.136,-4.9462,-4.7596,-4.8178,-4.9458,-5.0283,-4.9159,-5.0243,0.0,-4.9013,-4.7496,-4.6155,-4.5152,-4.365,-4.2362,-4.2131,-4.2518,-4.2838,-4.2838,-4.1873,-4.0525,-3.8872,-3.8574,-3.8574,-3.8574,-3.8574,-3.8574,-3.8574,-3.8574,-3.8574,-3.8574,-3.8574,-3.8574,-3.8574,-3.8574,-3.8574,-3.8574,-3.8574,-3.8574,-3.8574,-3.8574,-3.872,-3.9103,-3.9373,-3.9734,-4.0094,-4.1096,-4.1573,-4.1735,-4.3189,-4.3744,-4.3883,-4.5392,-4.5187,-4.409,-4.5119,-4.5799,-4.6271,-4.6965,-4.7431,-4.7828,-4.8248,-4.8576,-4.8942,-4.9267,-4.9615,-4.9873,-5.0232,-5.0334,-5.027,-5.004,-5.0381,-5.0897,-5.1188,-5.1699,-5.2101,-5.2101,-5.2528,-5.2804,-5.2352,-5.2628,-5.2929,-5.2929,-5.2929,-5.2929,-5.2929,-5.2929,-5.2929,-5.2929,-5.2929,-5.2929,-5.2929,-5.2929,-5.2929,-5.2929,-5.2929,-5.2929,-5.2929,-5.2929,-5.2929,-5.2929,-5.2929,-5.2929,-5.2929,-5.2929,-5.2929,-5.2929,-5.2929,-5.298,-5.308,-5.4084,-5.3488,-5.136,-5.0969,-4.9709,-4.9519,-5.0371,-5.1155,-5.1129,-5.1629,0.0,0.0,-4.8943,-4.77,-4.6941,-4.5367,-4.4051,-4.3815,-4.3966,-4.3986,-4.3496,-4.2448,-4.1728,-4.1728,-3.9956,-3.8574,-3.8574,-3.8574,-3.8574,-3.8574,-3.8574,-3.8574,-3.8574,-3.8574,-3.8574,-3.8574,-3.8574,-3.8574,-3.8574,-3.8574,-3.872,-3.8885,-3.9083,-3.9373,-3.9754,-4.0289,-4.079,-4.1167,-4.2349,-4.3049,-4.3445,-4.4778,-4.5392,-4.5663,-4.6741,-4.6874,-4.6382,-4.6808,-4.7032,-4.7274,-4.8026,-4.842,-4.8616,-4.9162,-4.9486,-4.9654,-4.9976,-5.0232,-5.0423,-5.0741,-5.0968,-5.1031,-5.0931,-5.0819,-5.0779,-5.093,-5.1109,-5.1272,-5.1272,-5.19,-5.2452,-5.2176,-5.2528,-5.2929,-5.2929,-5.2929,-5.2929,-5.2929,-5.2929,-5.2929,-5.2929,-5.2929,-5.2929,-5.2929,-5.2929,-5.2929,-5.2929,-5.2929,-5.2929,-5.2929,-5.2929,-5.2929,-5.2929,-5.2929,-5.2929,-5.2929,-5.2929,-5.2929,-5.2929,-5.2929,-5.2929,-5.2929,-5.3482,-5.3217,-5.2179,-5.2179,-5.1058,-5.1195,-5.1725,-5.2536,-5.3484,-5.345,-5.2831,0.0,0.0,0.0,-4.8068,-4.6867,-4.5951,-4.5754,-4.558,-4.5182,-4.4361,-4.3396,-4.3357,-4.5069,-4.2141,-3.9827,-3.9827,-3.9094,-3.8767,-3.9198,-3.9178,-3.9042,-3.8627,-3.8938,-3.899,-3.8627,-3.872,-3.8793,-3.8793,-3.8938,-3.9228,-3.959,-3.9858,-4.0289,-4.0882,-4.1481,-4.2116,-4.27,-4.3722,-4.4618,-4.5346,-4.6382,-4.7008,-4.734,-4.8067,-4.8592,-4.8828,-4.8396,-4.8289,-4.8486,-4.9072,-4.9332,-4.9461,-5.0104,-5.0295,-5.0359,-5.0741,-5.0905,-5.1031,-5.1309,-5.1622,-5.1846,-5.1783,-5.1612,-5.1313,-5.0933,-5.0997,-5.1064,-5.0534,-5.1272,-5.2051,-5.1825,-5.2226,-5.2628,-5.2754,-5.2678,-5.2678,-5.2879,-5.2929,-5.2929,-5.2929,-5.2929,-5.2929,-5.2929,-5.2929,-5.2929,-5.2929,-5.2829,-5.2779,-5.2779,-5.2678,-5.2653,-5.2754,-5.2779,-5.2829,-5.2929,-5.2929,-5.2929,-5.2929,-5.2929,-5.2929,-5.2929,-5.2929,-5.2929,-5.2929,-5.2929,-5.205,-5.4598,-5.5615,-5.5886,-5.4769,-5.5378,-5.5543,-5.2771,0.0,-5.2454,-5.0728,0.0,-5.0031,-4.9779,0.0,0.0,-4.9048,-4.7589,-4.6571,-4.6839,-4.5302,-4.4157,-4.4157,-4.0882,-3.9312,-4.1164,-4.1346,-4.0552,-3.8714,-4.0306,-4.0573,-3.8734,-3.9208,-3.957,-3.957,-4.0289,-4.079,-4.1126,-4.1197,-4.1764,-4.2818,-4.3236,-4.3999,-4.4937,-4.5708,-4.6449,-4.716,-4.7911,-4.8436,-4.8828,-4.959,-5.004,-5.027,-4.9332,-4.9332,-4.9847,-4.9937,-5.0168,-5.0461,-5.0867,-5.0994,-5.112,-5.1747,-5.2121,-5.2404,-5.2404,-5.2677,-5.2861,-5.2553,-5.3367,-5.3901,-5.2201,-5.2919,-5.34,-5.0948,-5.1272,-5.1825,-5.082,-5.1071,-5.1599,-5.2101,-5.18,-5.1774,-5.2754,-5.2929,-5.2929,-5.2929,-5.2929,-5.2929,-5.2929,-5.2929,-5.2929,-5.2929,-5.2477,-5.2201,-5.2201,-5.1749,-5.1674,-5.2176,-5.2201,-5.2427,-5.2904,-5.2929,-5.2929,-5.2929,-5.2929,-5.2929,-5.2929,-5.2929,-5.2929,-5.2929,-5.2929,-5.2792,-5.5314,-5.5724,-5.5662,-5.5304,-5.5188,-5.4865,-5.3855,-5.3551,-5.3416,-5.3073,0.0,0.0,0.0,0.0,0.0,0.0,-4.8185,-4.7594,-4.8278,-4.5681,-4.4013,-4.4808,-4.3325,-4.2122,-4.1728,-4.0599,-3.9688,-3.9241,-4.0032,-4.0464,-4.0249,-4.0484,-4.0912,-4.1318,-4.1672,-4.2165,-4.2962,-4.3193,-4.3885,-4.4983,-4.5526,-4.6201,-4.6803,-4.7755,-4.8477,-4.8908,-4.9707,-5.0181,-5.0499,-5.0842,-5.1283,-5.1721,-5.1283,-5.1094,-5.0994,-5.1183,-5.1372,-5.156,-5.1846,-5.2121,-5.2368,-5.2799,-5.3227,-5.347,-5.347,-5.3833,-5.4194,-5.4047,-5.4424,-5.4649,-5.3863,-5.3592,-5.3133,-5.1687,-5.1467,-5.1398,-5.0594,-5.087,-5.1348,-5.1574,-5.1448,-5.1423,-5.19,-5.1975,-5.1975,-5.1975,-5.1975,-5.1975,-5.1975,-5.1975,-5.1975,-5.1975,-5.1774,-5.1624,-5.1624,-5.1423,-5.1373,-5.1599,-5.1925,-5.2352,-5.2904,-5.2929,-5.2929,-5.2929,-5.2929,-5.2929,-5.2929,-5.2929,-5.2929,-5.2929,-5.2929,-5.2929,-5.5816,-5.5903,-5.5625,-5.5671,-5.5046,-5.4379,-5.4292,-5.4025,-5.389,-5.4228,-5.3551,0.0,0.0,0.0,-5.134,-4.986,0.0,-4.8471,-4.9327,-4.6673,-4.5054,-4.6212,-4.6025,-4.4918,-4.2775,-4.1437,-4.0726,-4.0647,-4.1007,-4.1279,-4.155,-4.2097,-4.2627,-4.3181,-4.3589,-4.4322,-4.5254,-4.5548,-4.6244,-4.7311,-4.7863,-4.8387,-4.8908,-4.9707,-5.0346,-5.0853,-5.1445,-5.1819,-5.2156,-5.2156,-5.2465,-5.3017,-5.3017,-5.2834,-5.2527,-5.2553,-5.2492,-5.2553,-5.2895,-5.3227,-5.3558,-5.3773,-5.4074,-5.4373,-5.4373,-5.479,-5.5261,-5.5379,-5.5498,-5.5644,-5.5208,-5.4616,-5.3793,-5.2342,-5.1857,-5.1438,-5.0383,-5.0519,-5.087,-5.1021,-5.0921,-5.087,-5.1021,-5.1172,-5.1272,-5.1272,-5.1272,-5.1272,-5.1272,-5.1272,-5.1272,-5.1272,-5.1147,-5.1046,-5.1046,-5.0896,-5.0896,-5.1021,-5.1574,-5.2126,-5.2678,-5.2703,-5.2703,-5.2703,-5.2854,-5.2779,-5.2477,-5.2628,-5.2628,-5.2477,-5.2779,-5.2929,-5.6849,-5.7222,-5.6996,-5.5982,-5.5681,-5.5241,-5.389,-5.4059,-5.4363,-5.3687,-5.4059,-5.4296,-5.3585,-5.2592,-5.1885,-5.1813,-5.0652,0.0,0.0,-4.9411,-4.931,-4.9948,-4.8827,-4.7152,-4.4988,-4.559,-4.5201,-4.3258,-4.4223,-4.4064,-4.2126,-4.3799,-4.4784,-4.4851,-4.6385,-4.7599,-4.8273,-4.8273,-4.8818,-4.99,-4.99,-5.0473,-5.1471,-5.1534,-5.2094,-5.3017,-5.3017,-5.32,-5.3531,-5.3531,-5.3713,-5.4074,-5.4074,-5.4373,-5.479,-5.3894,-5.3531,-5.3592,-5.3954,-5.4281,-5.4548,-5.4548,-5.4758,-5.4967,-5.4967,-5.5437,-5.6019,-5.6308,-5.705,-5.7416,-5.6136,-5.6592,-5.6526,-5.2895,-5.2375,-5.216,-5.0102,-4.964,-4.9816,-5.0343,-5.0017,-4.9816,-5.0343,-5.0921,-5.1272,-5.1272,-5.1272,-5.1272,-5.1272,-5.1272,-5.1272,-5.1272,-5.077,-5.0444,-5.0444,-4.9967,-4.9866,-5.0419,-5.0996,-5.1548,-5.2101,-5.2126,-5.2126,-5.2126,-5.2653,-5.2402,-5.1348,-5.1875,-5.185,-5.1373,-5.2427,-5.2929,-5.7416,-5.7477,-5.7094,-5.6549,-5.5819,-5.5052,-5.436,-5.4397,-5.4397,-5.3653,-5.4093,-5.4363,-5.3653,-5.3179,-5.2697,-5.2029,-5.0934,-5.02,0.0,-4.9895,-4.9733,-4.9904,-4.8448,-4.7134,-4.6455,-4.5276,-4.4304,-4.371,-4.451,-4.5019,-4.5101,-4.6709,-4.7838,-4.8244,-4.9266,-5.0079,-5.0802,-5.0965,-5.1554,-5.2324,-5.257,-5.2937,-5.3537,-5.3779,-5.4019,-5.4378,-5.4584,-5.479,-5.4849,-5.4849,-5.5026,-5.5379,-5.5379,-5.5613,-5.5817,-5.4908,-5.4671,-5.4908,-5.5261,-5.5437,-5.5582,-5.5729,-5.5845,-5.5933,-5.5933,-5.6337,-5.6851,-5.6964,-5.764,-5.828,-5.7863,-5.7653,-5.7196,-5.5526,-5.4741,-5.3828,-5.1622,-5.1205,-5.0905,-5.001,-4.9715,-4.9665,-4.9841,-5.0042,-5.0167,-5.0167,-5.0167,-5.0167,-5.0167,-5.0167,-5.0167,-5.0167,-4.9992,-4.9866,-4.9866,-4.969,-4.9841,-5.0393,-5.0594,-5.0971,-5.1548,-5.1548,-5.1548,-5.1548,-5.1749,-5.1649,-5.1272,-5.1473,-5.1473,-5.1297,-5.1674,-5.185,-5.7527,-5.7477,-5.7166,-5.6853,-5.6224,-5.5455,-5.4766,-5.4803,-5.4769,-5.4025,-5.4262,-5.4532,-5.4329,-5.3856,-5.328,-5.2592,-5.1365,-5.043,0.0,-4.9676,-4.9543,-4.976,-4.8869,-4.8189,-4.8189,-4.6514,-4.552,-4.587,-4.5846,-4.6332,-4.7586,-4.9176,-5.039,-5.111,-5.2029,-5.2822,-5.3396,-5.3577,-5.4024,-5.4529,-5.4765,-5.5001,-5.5323,-5.5556,-5.5731,-5.5847,-5.6049,-5.6135,-5.6135,-5.6135,-5.6308,-5.648,-5.648,-5.6652,-5.6794,-5.5817,-5.5613,-5.5845,-5.6077,-5.6135,-5.6193,-5.648,-5.6623,-5.6737,-5.6851,-5.7247,-5.764,-5.7751,-5.8225,-5.8748,-5.8828,-5.849,-5.7909,-5.6936,-5.6191,-5.5186,-5.3268,-5.2394,-5.1678,-5.0664,-5.0014,-4.959,-4.959,-4.959,-4.959,-4.959,-4.959,-4.959,-4.959,-4.959,-4.959,-4.959,-4.959,-4.959,-4.959,-4.959,-4.9741,-5.0092,-5.0117,-5.0393,-5.0946,-5.0971,-5.0971,-5.0971,-5.1172,-5.1096,-5.0695,-5.087,-5.087,-5.0695,-5.0695,-5.0695]},{"header":{"parameterUnit":"m.s-1","parameterCategory":1,"la1":30.6,"la2":29.2853,"lo1":-89.7004,"lo2":-87.6739,"dy":0.0162,"dx":0.0183,"nx":112,"ny":82,"refTime":"2024-09-07T00:00:00:Z","depth":0,"parameterNumber":3,"parameterNumberName":"V-component_of_WINDS"},"data":[0.0,0.0,0.0,0.0,0.0,0.0,0.0,0.0,0.0,0.0,0.0,0.0,0.0,0.0,0.0,0.0,0.0,0.0,0.0,0.0,0.0,0.0,0.0,0.0,0.0,0.0,0.0,0.0,0.0,0.0,0.0,0.0,0.0,0.0,0.0,0.0,0.0,0.0,0.0,0.0,0.0,0.0,0.0,0.0,0.0,0.0,0.0,0.0,0.0,0.0,0.0,0.0,0.0,0.0,0.0,0.0,0.0,0.0,0.0,0.0,0.0,0.0,0.0,0.0,0.0,0.0,0.0,0.0,0.0,0.0,0.0,0.0,0.0,0.0,0.0,0.0,0.0,0.0,0.0,0.0,0.0,0.0,0.0,0.0,0.0,0.0,0.0,0.0,0.0,0.0,6.0508,6.3476,6.6445,6.8203,6.8203,6.7265,6.4531,5.9531,0.0,0.0,0.0,0.0,0.0,0.0,0.0,0.0,0.0,0.0,0.0,0.0,0.0,0.0,0.0,0.0,0.0,0.0,0.0,0.0,0.0,0.0,0.0,0.0,0.0,0.0,0.0,0.0,0.0,0.0,0.0,0.0,0.0,0.0,0.0,0.0,0.0,0.0,0.0,0.0,0.0,0.0,0.0,0.0,0.0,0.0,0.0,0.0,0.0,0.0,0.0,0.0,0.0,0.0,0.0,0.0,0.0,0.0,0.0,0.0,0.0,0.0,0.0,0.0,0.0,0.0,0.0,0.0,0.0,0.0,0.0,0.0,0.0,0.0,0.0,0.0,0.0,0.0,0.0,0.0,0.0,0.0,0.0,0.0,0.0,0.0,0.0,0.0,0.0,0.0,0.0,0.0,0.0,0.0,0.0,0.0,0.0,0.0,0.0,0.0,0.0,0.0,0.0,0.0,6.207,6.6914,6.789,6.8203,6.8203,6.6719,6.3906,5.9492,0.0,0.0,0.0,0.0,0.0,0.0,0.0,0.0,0.0,0.0,0.0,0.0,0.0,0.0,0.0,0.0,0.0,0.0,0.0,0.0,0.0,0.0,0.0,0.0,0.0,0.0,0.0,0.0,0.0,0.0,0.0,0.0,0.0,0.0,0.0,0.0,0.0,0.0,0.0,0.0,0.0,0.0,0.0,0.0,0.0,0.0,0.0,0.0,0.0,0.0,0.0,0.0,0.0,0.0,0.0,0.0,0.0,0.0,0.0,0.0,0.0,0.0,0.0,0.0,0.0,0.0,0.0,0.0,0.0,0.0,0.0,0.0,0.0,0.0,0.0,0.0,0.0,0.0,0.0,0.0,0.0,0.0,0.0,0.0,0.0,0.0,0.0,0.0,0.0,0.0,0.0,0.0,0.0,0.0,0.0,0.0,0.0,0.0,0.0,0.0,0.0,0.0,0.0,6.232,6.4704,6.9003,6.9433,6.9286,6.8867,6.7734,6.4765,5.9531,5.9219,0.0,0.0,0.0,0.0,0.0,0.0,0.0,0.0,0.0,0.0,0.0,0.0,0.0,0.0,0.0,0.0,0.0,0.0,0.0,0.0,0.0,0.0,0.0,0.0,0.0,0.0,0.0,0.0,0.0,0.0,0.0,0.0,0.0,0.0,0.0,0.0,0.0,0.0,0.0,0.0,0.0,0.0,0.0,0.0,0.0,0.0,0.0,0.0,0.0,0.0,0.0,0.0,0.0,0.0,0.0,0.0,0.0,0.0,0.0,0.0,0.0,0.0,0.0,0.0,0.0,0.0,0.0,0.0,0.0,0.0,0.0,0.0,0.0,0.0,0.0,0.0,0.0,0.0,0.0,0.0,0.0,0.0,0.0,0.0,0.0,0.0,0.0,0.0,0.0,0.0,0.0,0.0,0.0,0.0,0.0,0.0,0.0,0.0,0.0,0.0,0.0,0.0,6.5531,6.7286,7.0203,7.0323,6.9962,6.9453,6.793,6.4765,5.9531,5.8633,0.0,0.0,0.0,0.0,0.0,0.0,0.0,0.0,0.0,0.0,0.0,0.0,0.0,0.0,0.0,0.0,0.0,0.0,0.0,0.0,0.0,0.0,0.0,0.0,0.0,0.0,0.0,0.0,0.0,0.0,0.0,0.0,0.0,0.0,0.0,0.0,0.0,0.0,0.0,0.0,0.0,0.0,0.0,0.0,0.0,0.0,0.0,0.0,0.0,0.0,0.0,0.0,0.0,0.0,0.0,0.0,0.0,0.0,0.0,0.0,0.0,0.0,0.0,0.0,0.0,0.0,0.0,0.0,0.0,0.0,0.0,0.0,0.0,0.0,0.0,0.0,0.0,0.0,0.0,0.0,0.0,0.0,0.0,0.0,0.0,0.0,0.0,0.0,0.0,0.0,0.0,0.0,0.0,0.0,0.0,0.0,0.0,0.0,0.0,0.0,0.0,0.0,6.6239,6.9106,7.0352,6.9774,6.9338,6.9492,6.5742,6.2187,5.9375,5.6914,0.0,0.0,0.0,0.0,0.0,0.0,0.0,0.0,0.0,0.0,0.0,0.0,0.0,0.0,0.0,0.0,0.0,0.0,0.0,0.0,0.0,0.0,0.0,0.0,0.0,0.0,0.0,0.0,0.0,0.0,0.0,0.0,0.0,0.0,0.0,0.0,0.0,0.0,0.0,0.0,0.0,0.0,0.0,0.0,0.0,0.0,0.0,0.0,0.0,0.0,0.0,0.0,0.0,0.0,0.0,0.0,0.0,0.0,0.0,0.0,0.0,0.0,0.0,0.0,0.0,0.0,0.0,0.0,0.0,0.0,0.0,0.0,0.0,0.0,0.0,0.0,0.0,0.0,0.0,0.0,0.0,0.0,0.0,0.0,0.0,0.0,0.0,0.0,0.0,0.0,0.0,0.0,0.0,0.0,0.0,0.0,0.0,0.0,0.0,0.0,0.0,0.0,6.5522,6.8114,7.0658,7.0265,6.9674,6.9342,6.6813,6.3505,5.9453,0.0,0.0,0.0,0.0,0.0,0.0,0.0,0.0,0.0,0.0,0.0,0.0,0.0,0.0,0.0,0.0,0.0,0.0,0.0,0.0,0.0,0.0,0.0,0.0,0.0,0.0,0.0,0.0,0.0,0.0,0.0,0.0,0.0,0.0,0.0,0.0,0.0,0.0,0.0,0.0,0.0,0.0,0.0,0.0,0.0,0.0,0.0,0.0,0.0,0.0,0.0,0.0,0.0,0.0,0.0,0.0,0.0,0.0,0.0,0.0,0.0,0.0,0.0,0.0,0.0,0.0,0.0,0.0,0.0,0.0,0.0,0.0,0.0,0.0,0.0,0.0,0.0,0.0,0.0,0.0,0.0,0.0,0.0,0.0,0.0,0.0,0.0,0.0,0.0,0.0,0.0,0.0,0.0,0.0,0.0,0.0,0.0,0.0,0.0,0.0,0.0,0.0,6.2897,6.5438,6.795,7.0891,7.0338,6.9634,6.922,6.6619,6.333,5.9453,0.0,0.0,0.0,0.0,0.0,0.0,0.0,0.0,0.0,0.0,0.0,0.0,0.0,0.0,0.0,0.0,0.0,0.0,0.0,0.0,0.0,0.0,0.0,0.0,0.0,0.0,0.0,0.0,0.0,0.0,0.0,0.0,0.0,0.0,0.0,0.0,0.0,0.0,0.0,0.0,0.0,0.0,0.0,0.0,0.0,0.0,0.0,0.0,0.0,0.0,0.0,0.0,0.0,0.0,0.0,0.0,0.0,0.0,0.0,0.0,0.0,0.0,0.0,0.0,0.0,0.0,0.0,0.0,0.0,0.0,0.0,0.0,0.0,0.0,0.0,0.0,0.0,0.0,0.0,0.0,0.0,0.0,0.0,0.0,0.0,0.0,0.0,0.0,0.0,0.0,0.0,0.0,0.0,0.0,0.0,0.0,0.0,0.0,0.0,0.0,0.0,0.0,6.3052,6.6364,6.9103,7.0986,6.9825,6.896,6.9178,6.4467,6.0866,0.0,0.0,0.0,0.0,0.0,0.0,0.0,0.0,0.0,0.0,0.0,0.0,0.0,0.0,0.0,0.0,0.0,0.0,0.0,0.0,0.0,0.0,0.0,0.0,0.0,0.0,0.0,0.0,0.0,0.0,0.0,0.0,0.0,0.0,0.0,0.0,0.0,0.0,0.0,0.0,0.0,0.0,0.0,0.0,0.0,0.0,0.0,0.0,0.0,0.0,0.0,0.0,0.0,0.0,0.0,0.0,0.0,0.0,0.0,0.0,0.0,0.0,0.0,0.0,0.0,0.0,0.0,0.0,0.0,0.0,0.0,0.0,0.0,0.0,0.0,0.0,0.0,0.0,0.0,0.0,0.0,0.0,0.0,0.0,0.0,0.0,0.0,0.0,0.0,0.0,0.0,0.0,0.0,0.0,0.0,0.0,0.0,0.0,0.0,0.0,0.0,0.0,0.0,6.2926,6.6332,6.886,7.0002,6.9262,6.8476,6.7977,6.4869,6.184,5.9175,0.0,0.0,0.0,0.0,0.0,0.0,0.0,0.0,0.0,0.0,0.0,0.0,0.0,0.0,0.0,0.0,0.0,0.0,0.0,0.0,0.0,0.0,0.0,0.0,0.0,0.0,0.0,0.0,0.0,0.0,0.0,0.0,0.0,0.0,0.0,0.0,0.0,0.0,0.0,0.0,0.0,0.0,0.0,0.0,0.0,0.0,0.0,0.0,0.0,0.0,0.0,0.0,0.0,0.0,0.0,0.0,0.0,0.0,0.0,0.0,0.0,0.0,0.0,0.0,0.0,0.0,0.0,0.0,0.0,0.0,0.0,0.0,0.0,0.0,0.0,0.0,0.0,0.0,0.0,0.0,0.0,0.0,0.0,0.0,0.0,0.0,0.0,0.0,0.0,0.0,0.0,0.0,0.0,0.0,0.0,0.0,0.0,0.0,0.0,0.0,0.0,0.0,6.2858,6.6269,6.8859,7.0052,6.9208,6.8413,6.792,6.5528,6.2572,5.9044,0.0,0.0,0.0,0.0,0.0,0.0,0.0,0.0,0.0,0.0,0.0,0.0,0.0,0.0,0.0,0.0,0.0,0.0,0.0,0.0,0.0,0.0,0.0,0.0,0.0,0.0,0.0,0.0,0.0,0.0,0.0,0.0,0.0,0.0,0.0,0.0,0.0,0.0,0.0,0.0,0.0,0.0,0.0,0.0,0.0,0.0,0.0,0.0,0.0,0.0,0.0,0.0,0.0,0.0,0.0,0.0,0.0,0.0,0.0,0.0,0.0,0.0,0.0,0.0,0.0,0.0,0.0,0.0,0.0,0.0,0.0,0.0,0.0,0.0,0.0,0.0,0.0,0.0,0.0,0.0,0.0,0.0,0.0,0.0,0.0,0.0,0.0,0.0,0.0,0.0,0.0,0.0,0.0,0.0,0.0,0.0,0.0,0.0,0.0,0.0,0.0,0.0,6.3012,6.6359,6.9013,7.0629,6.9455,6.8566,6.845,6.6187,6.3111,5.9153,0.0,0.0,0.0,0.0,0.0,0.0,0.0,0.0,0.0,0.0,0.0,0.0,0.0,0.0,0.0,0.0,0.0,0.0,0.0,0.0,0.0,0.0,0.0,0.0,0.0,0.0,0.0,0.0,0.0,0.0,0.0,0.0,0.0,0.0,0.0,0.0,0.0,0.0,0.0,0.0,0.0,0.0,0.0,0.0,0.0,0.0,0.0,0.0,0.0,0.0,0.0,0.0,0.0,0.0,0.0,0.0,0.0,0.0,0.0,0.0,5.1266,5.0128,0.0,0.0,0.0,0.0,0.0,0.0,0.0,0.0,0.0,0.0,0.0,0.0,0.0,0.0,0.0,0.0,0.0,0.0,0.0,0.0,0.0,0.0,0.0,0.0,0.0,0.0,0.0,0.0,0.0,0.0,0.0,0.0,0.0,0.0,0.0,0.0,0.0,0.0,0.0,0.0,6.3897,6.6705,6.8821,6.986,6.9027,6.8154,6.746,6.5688,6.345,6.0696,5.8922,0.0,0.0,0.0,0.0,0.0,0.0,0.0,0.0,0.0,0.0,0.0,0.0,0.0,0.0,0.0,0.0,0.0,0.0,0.0,0.0,0.0,0.0,0.0,0.0,0.0,0.0,0.0,0.0,0.0,0.0,0.0,0.0,0.0,0.0,0.0,0.0,0.0,0.0,0.0,0.0,0.0,0.0,0.0,0.0,0.0,0.0,0.0,0.0,0.0,0.0,0.0,0.0,0.0,0.0,0.0,0.0,0.0,0.0,0.0,5.3659,5.2665,0.0,0.0,0.0,0.0,0.0,0.0,0.0,0.0,0.0,0.0,0.0,0.0,0.0,0.0,0.0,0.0,0.0,0.0,0.0,0.0,0.0,0.0,0.0,0.0,0.0,0.0,0.0,0.0,0.0,0.0,0.0,0.0,0.0,0.0,0.0,0.0,0.0,0.0,0.0,0.0,6.4205,6.7205,6.936,7.0206,6.9552,6.8667,6.7782,6.6551,6.4574,6.1702,6.0374,0.0,0.0,0.0,0.0,0.0,0.0,0.0,0.0,0.0,0.0,0.0,0.0,0.0,0.0,0.0,0.0,0.0,0.0,0.0,0.0,0.0,0.0,0.0,0.0,0.0,0.0,0.0,0.0,0.0,0.0,0.0,0.0,0.0,0.0,0.0,0.0,0.0,0.0,0.0,0.0,0.0,0.0,0.0,0.0,0.0,0.0,0.0,0.0,0.0,0.0,0.0,0.0,0.0,5.6039,5.6496,5.7213,5.7181,5.7822,5.8835,5.6737,5.5881,5.5847,5.4176,0.0,0.0,0.0,0.0,0.0,0.0,0.0,0.0,0.0,0.0,0.0,0.0,0.0,0.0,0.0,0.0,0.0,0.0,0.0,0.0,0.0,0.0,6.1283,5.9626,6.1507,6.2951,6.0349,0.0,0.0,0.0,0.0,0.0,0.0,0.0,0.0,0.0,0.0,0.0,6.4705,6.7782,7.0014,7.0821,7.0167,6.936,6.8475,6.759,6.5782,6.2716,6.1808,5.9938,0.0,0.0,0.0,0.0,0.0,0.0,0.0,0.0,0.0,0.0,0.0,0.0,0.0,0.0,0.0,0.0,0.0,0.0,0.0,0.0,0.0,0.0,0.0,0.0,0.0,0.0,0.0,0.0,0.0,0.0,0.0,0.0,5.3778,5.3993,0.0,0.0,0.0,0.0,0.0,0.0,0.0,0.0,0.0,0.0,0.0,0.0,0.0,5.7092,5.7818,5.8178,5.8421,5.8527,5.9491,6.0244,6.0841,6.1502,6.2195,6.2779,6.2435,0.0,5.8602,5.7677,0.0,0.0,0.0,0.0,0.0,0.0,0.0,0.0,0.0,0.0,0.0,0.0,0.0,0.0,0.0,0.0,0.0,0.0,0.0,0.0,0.0,0.0,6.385,6.4086,6.5246,6.6181,6.5766,6.2656,5.9745,5.9107,5.9088,5.855,0.0,0.0,0.0,0.0,0.0,0.0,6.6436,6.8475,7.0014,7.0821,7.0167,6.936,6.8475,6.759,6.6282,6.4397,6.346,6.2124,6.0204,5.866,0.0,0.0,0.0,0.0,0.0,0.0,0.0,0.0,0.0,0.0,0.0,0.0,0.0,0.0,0.0,0.0,0.0,0.0,0.0,0.0,0.0,0.0,0.0,0.0,0.0,0.0,0.0,0.0,0.0,5.4544,5.6031,5.6704,5.6149,5.5293,0.0,0.0,0.0,0.0,0.0,0.0,0.0,0.0,0.0,5.9717,6.0174,6.0709,6.125,6.1431,6.1536,6.1536,6.2329,6.2839,6.311,6.3789,6.4229,6.4461,6.4461,6.3727,6.2473,6.0763,5.9925,5.9517,0.0,0.0,0.0,0.0,5.735,5.6929,5.8823,5.9325,5.8999,5.816,0.0,0.0,0.0,0.0,0.0,0.0,0.0,6.0107,6.1453,6.3761,6.5866,6.631,6.758,6.8738,6.905,6.7816,6.5849,6.3136,6.3642,6.3205,5.9127,5.9511,0.0,0.0,0.0,6.5513,6.759,6.9321,7.0514,7.086,7.0591,7.0052,6.9206,6.8321,6.7321,6.609,6.5205,6.4205,6.2974,6.1781,5.9896,0.0,0.0,0.0,0.0,0.0,0.0,0.0,0.0,0.0,0.0,0.0,0.0,0.0,0.0,0.0,0.0,0.0,0.0,0.0,0.0,0.0,0.0,0.0,0.0,0.0,0.0,0.0,0.0,5.6151,5.8068,5.877,5.9006,5.843,0.0,0.0,0.0,0.0,0.0,0.0,6.0922,6.1761,6.2297,6.2575,6.3199,6.3643,6.393,6.3927,6.3927,6.3961,6.4359,6.4585,6.4752,6.5215,6.5511,6.5601,6.5601,6.5601,6.5477,6.3425,6.2577,6.2405,6.0932,6.0215,6.0093,6.0579,6.0262,5.9843,6.2058,6.2635,6.226,6.1687,6.1235,6.0616,5.9222,0.0,0.0,0.0,0.0,6.2014,6.3646,6.5632,6.7399,6.7982,6.9247,7.0354,7.0657,7.1462,7.104,6.733,6.8095,6.7821,6.2935,6.3205,0.0,6.2897,6.5089,6.7321,6.859,7.0206,7.1168,7.0937,7.1091,7.0821,6.9783,6.8898,6.8013,6.7167,6.632,6.559,6.4974,6.4089,6.2551,6.0204,0.0,0.0,0.0,0.0,0.0,0.0,0.0,0.0,0.0,0.0,0.0,0.0,0.0,0.0,0.0,0.0,0.0,0.0,0.0,0.0,0.0,0.0,0.0,0.0,0.0,0.0,0.0,0.0,0.0,5.9065,6.0504,0.0,0.0,0.0,0.0,6.0893,6.1771,6.2636,6.3586,6.4349,6.4853,6.5021,6.5055,6.5089,6.5118,6.5118,6.5118,6.5118,6.5152,6.5409,6.5922,6.5956,6.6241,6.6711,6.6711,6.6711,6.6617,6.5471,6.4927,6.4836,6.4733,6.4148,6.35,6.4603,6.4462,6.3972,6.5167,6.5604,6.5507,6.5155,6.3306,6.13,6.1778,6.0979,0.0,0.0,6.3251,6.4836,6.7573,6.8211,6.84,6.9498,7.0333,7.0721,7.0229,7.1639,7.2532,7.1251,7.1544,7.1398,6.9513,0.0,6.9013,6.8167,6.8859,6.9552,6.9629,7.1091,7.1822,7.0975,7.1629,7.1475,6.986,6.8898,6.8013,6.7167,6.632,6.5859,6.582,6.5013,6.3743,6.1985,6.0204,0.0,0.0,0.0,0.0,0.0,0.0,0.0,0.0,0.0,0.0,0.0,0.0,0.0,0.0,0.0,0.0,0.0,0.0,0.0,0.0,0.0,0.0,0.0,0.0,0.0,0.0,0.0,0.0,6.1955,6.2611,0.0,6.1478,6.2008,6.2684,6.3344,6.4194,6.5023,6.5693,6.6,6.6187,6.6207,6.6207,6.6207,6.6207,6.6207,6.6207,6.6207,6.6207,6.6336,6.649,6.649,6.6617,6.6812,6.6812,6.6812,6.6779,6.6403,6.6201,6.6171,6.6171,6.5955,6.5671,6.5735,6.5598,6.5319,6.5382,6.5647,6.5972,6.6183,6.5617,6.4868,6.5096,6.4923,6.4731,6.5214,6.6074,6.6985,6.8049,6.9007,6.9877,7.034,7.1211,7.1885,7.1708,7.2489,7.3147,7.2718,7.2707,7.1978,6.9755,7.0133,7.0445,6.9642,7.0038,7.0898,7.2014,7.1706,7.1475,7.1706,7.1514,7.1129,7.0514,6.9206,6.8282,6.7975,6.6667,6.5897,6.5897,6.559,6.4897,6.3743,6.205,5.9781,0.0,0.0,0.0,0.0,0.0,0.0,0.0,0.0,0.0,0.0,0.0,0.0,0.0,0.0,0.0,0.0,0.0,0.0,0.0,0.0,0.0,0.0,0.0,0.0,0.0,6.1119,6.2983,6.3169,6.4135,6.4366,6.324,6.4168,6.4958,6.5319,6.5908,6.643,6.6779,6.6812,6.6812,6.6812,6.6812,6.6812,6.6812,6.6812,6.6812,6.6812,6.6812,6.6812,6.6812,6.6812,6.6812,6.6812,6.6812,6.6812,6.6812,6.6812,6.6812,6.6812,6.6812,6.6812,6.6745,6.6396,6.6275,6.6207,6.5861,6.599,6.6336,6.6685,6.6812,6.6812,6.6812,6.7014,6.7202,6.7266,6.7655,6.8149,6.8742,6.9709,7.0623,7.1089,7.186,7.2569,7.2863,7.3222,7.3501,7.3501,7.3685,7.3307,7.1605,7.2086,7.2528,7.1893,7.1668,7.1909,7.2679,7.1842,7.1389,7.1888,7.1673,7.1449,7.1346,6.9821,6.8706,6.8436,6.6821,6.5897,6.5897,6.5628,6.5205,6.4628,6.2935,6.1396,5.9973,0.0,0.0,0.0,0.0,0.0,0.0,0.0,0.0,0.0,0.0,0.0,0.0,0.0,0.0,0.0,0.0,0.0,0.0,0.0,0.0,0.0,0.0,0.0,6.0419,6.2178,6.3339,6.2598,6.5068,6.6228,6.48,6.5948,6.6812,6.6812,6.6812,6.6812,6.6812,6.6812,6.6812,6.6812,6.6812,6.6812,6.6812,6.6812,6.6812,6.6812,6.6812,6.6812,6.6812,6.6812,6.6812,6.6812,6.6812,6.6812,6.6812,6.6812,6.6812,6.6812,6.6812,6.6812,6.6812,6.6812,6.6812,6.6812,6.6812,6.6812,6.6812,6.6812,6.6812,6.6812,6.6812,6.7014,6.7346,6.7959,6.7958,6.8284,7.0023,7.044,7.0646,7.1781,7.2299,7.2789,7.3523,7.3707,7.3707,7.3707,7.4672,7.5472,7.5472,7.5434,7.5367,7.5114,7.3907,0.0,7.1609,7.1673,7.1706,7.1492,7.2172,7.2494,7.2203,7.0654,6.9294,6.8396,6.6795,6.5885,6.591,6.5103,6.4718,6.4706,6.3065,6.2615,6.3334,0.0,0.0,0.0,0.0,0.0,0.0,0.0,0.0,0.0,0.0,0.0,0.0,0.0,0.0,0.0,0.0,0.0,0.0,0.0,0.0,0.0,6.1332,6.3057,6.2618,6.4512,6.5812,6.5617,6.6294,6.6625,6.6228,6.6565,6.6812,6.6812,6.6812,6.6812,6.6812,6.6812,6.6812,6.6812,6.6812,6.6812,6.6812,6.6812,6.6812,6.6812,6.6812,6.6812,6.6812,6.6812,6.6812,6.6812,6.6812,6.6812,6.6812,6.6812,6.6812,6.6812,6.6812,6.6812,6.6812,6.6812,6.6812,6.6812,6.6812,6.6812,6.6812,6.6812,6.6812,6.6812,6.6812,6.7063,6.7516,6.7999,6.8454,6.9134,7.0236,7.1267,7.2169,7.2765,7.358,7.4147,7.378,7.3707,7.3707,7.3707,7.4457,7.4857,7.4292,7.4569,7.481,7.4755,7.3755,7.3107,7.3484,7.2453,7.2102,7.3092,7.2841,7.2321,7.1691,7.0063,6.8597,6.7326,6.6014,6.5436,6.5659,6.6325,6.6821,6.7047,6.5797,6.494,0.0,0.0,0.0,0.0,0.0,0.0,0.0,0.0,0.0,0.0,0.0,0.0,0.0,0.0,0.0,0.0,0.0,0.0,0.0,0.0,0.0,0.0,6.3429,6.4884,6.4884,6.6,6.6812,6.6812,6.6812,6.6812,6.6812,6.6812,6.6812,6.6812,6.6812,6.6812,6.6812,6.6812,6.6812,6.6812,6.6812,6.6812,6.6812,6.6812,6.6812,6.6812,6.6812,6.6812,6.6812,6.6812,6.6812,6.6812,6.6812,6.6812,6.6812,6.6812,6.6812,6.6812,0.0,0.0,0.0,0.0,6.6812,6.6812,6.6812,6.6812,6.6812,6.6812,6.6812,6.6812,6.6812,6.7105,6.7557,6.7999,6.8628,6.9449,7.0558,7.1706,7.2762,7.3442,7.4251,7.4882,7.4735,7.4698,7.4698,7.4698,7.5359,0.0,7.4845,7.4716,7.4809,7.5064,7.3777,7.2967,7.3363,7.2328,7.1963,7.3057,7.2721,7.2311,7.2073,7.0858,0.0,0.0,0.0,6.6255,6.6047,6.6767,0.0,0.0,0.0,0.0,0.0,0.0,0.0,0.0,6.9769,7.0398,0.0,0.0,0.0,0.0,0.0,0.0,0.0,0.0,0.0,0.0,0.0,0.0,0.0,0.0,0.0,0.0,6.5425,6.6812,6.6812,6.6812,6.6812,6.6812,6.6812,6.6812,6.6812,6.677,6.677,6.677,6.677,6.677,6.677,6.677,0.0,0.0,0.0,6.6812,6.6812,6.6812,6.6812,6.6812,6.6812,6.6812,6.6812,6.6812,6.6812,6.6812,6.6812,6.6812,6.6812,6.6812,6.6812,6.6812,6.6812,6.6812,6.6812,6.6812,6.6812,6.6812,6.6812,0.0,0.0,6.6812,6.6812,6.6812,6.6812,6.7105,6.7557,6.7959,6.8513,6.9332,7.0912,7.1829,7.2686,7.3978,7.4645,7.5202,7.5916,7.6093,7.6093,7.6093,7.668,7.6974,7.635,7.5579,7.519,7.5649,7.3951,7.2567,7.2283,7.1773,7.1674,7.2261,7.2448,0.0,7.3025,7.224,7.1068,6.9402,6.8629,6.799,6.7468,6.7464,6.8511,7.0727,7.0831,7.2003,7.4282,7.5141,7.5653,7.5886,7.2279,7.2639,0.0,0.0,0.0,0.0,0.0,0.0,0.0,0.0,0.0,0.0,0.0,0.0,0.0,0.0,0.0,6.4241,6.5764,6.6812,6.6812,6.6812,6.6812,6.6812,6.6812,6.6812,6.6812,6.6643,6.655,6.655,6.655,6.655,6.655,6.6686,6.6812,6.6812,6.6812,6.6812,6.6812,6.6812,6.6812,6.6812,6.6812,0.0,6.6812,6.6812,6.6812,6.6812,6.6812,6.6812,6.6812,6.6812,6.6812,6.6812,6.6812,6.6812,6.6812,6.6812,6.6812,6.6812,6.6812,6.6812,6.6812,6.6812,6.6812,6.6812,6.6812,6.7105,0.0,6.7799,6.828,6.9107,7.0548,7.1405,7.2406,7.4446,7.5294,7.568,7.6014,7.6093,7.6093,7.6093,7.624,7.6497,7.698,7.6423,7.5712,7.5132,7.4162,7.3214,7.2511,7.2324,7.2484,7.3117,7.3764,7.3926,7.3379,7.2582,7.1479,7.0027,6.979,7.0369,7.1963,7.2209,7.2567,7.3075,7.3473,7.4275,7.5482,7.6061,7.7424,7.9369,7.7294,7.676,0.0,0.0,0.0,0.0,0.0,0.0,0.0,0.0,0.0,0.0,0.0,6.0583,6.1953,0.0,6.424,6.5161,6.6087,6.6677,6.6677,6.6728,6.6812,6.6812,6.6812,6.6812,6.6812,6.6938,6.7045,6.7045,6.7045,6.7045,6.7045,6.6888,6.6812,6.6812,6.6812,6.6812,6.6812,6.6812,6.6812,6.6812,6.6812,6.6812,6.6812,6.6812,6.6812,6.6812,6.6812,6.6812,6.6812,6.6812,6.6812,6.6812,6.6812,6.6812,6.6812,6.6812,6.6812,6.6812,6.6812,6.6812,6.6812,6.6812,6.6812,6.6812,6.6812,6.7063,6.7428,6.7719,6.8083,6.8791,7.0441,7.1271,7.2103,7.4009,7.5047,7.58,7.6403,7.6526,7.666,7.7248,7.7011,7.6827,7.7237,7.6974,7.6423,7.5616,7.4478,7.3707,7.3707,7.334,7.3374,7.4072,7.4506,7.458,7.4201,7.3424,7.2632,7.1937,7.1505,7.2124,7.4016,7.4249,7.4882,7.613,7.6412,7.6955,7.7797,7.8063,7.886,8.0079,7.9642,7.9572,0.0,0.0,0.0,0.0,0.0,0.0,0.0,5.8457,5.9438,6.1061,6.1941,6.2843,6.4461,6.4858,6.5245,6.6172,6.6594,6.6791,6.6657,6.6837,6.6897,6.6762,6.677,6.677,6.6728,6.7232,6.7497,6.7453,6.7453,6.7453,6.754,6.7006,6.677,6.6812,6.6812,6.6812,6.6812,6.6812,6.6812,6.6812,6.6812,6.6812,6.6812,6.6812,6.6812,6.6812,6.6812,6.6812,6.6812,6.6812,6.6812,6.6812,6.6812,6.6812,6.6812,6.6812,6.6812,6.6812,6.6812,6.6812,6.6812,6.6812,6.6812,6.6812,6.6812,6.7014,6.7263,6.7638,6.7879,6.8502,7.0382,7.1011,7.156,7.3331,7.4378,7.5269,7.6409,7.6692,7.7004,7.8048,7.7657,7.7181,7.7181,7.7181,7.6955,7.624,7.4992,7.4331,7.4845,7.4331,7.4184,7.4845,7.5065,7.5212,7.5359,7.4771,7.4478,7.4625,7.4037,7.4331,7.5799,7.5873,7.679,7.8772,7.8809,7.9213,8.0021,8.0021,8.0094,8.0277,8.0938,8.1326,5.5036,5.6094,5.7347,5.917,5.9201,5.9945,0.0,6.4174,6.3497,6.5628,6.6136,6.6187,6.6246,6.681,6.7194,6.711,6.7636,6.7837,6.7211,6.7319,6.7257,6.6617,6.6686,6.6728,6.655,6.6973,6.719,6.7001,6.7001,6.7057,6.7244,6.6791,6.6635,6.677,6.6812,6.6812,6.6812,6.6812,6.6812,6.6812,6.6812,6.6812,6.6812,6.6812,6.6812,6.6812,6.6812,6.6812,6.6812,6.6812,6.6812,6.6812,6.6812,6.6812,6.6812,6.6812,6.6812,6.6812,6.6812,6.6812,6.6812,6.6812,6.6812,6.6812,6.6812,6.7014,6.7222,6.7469,6.7678,6.8223,7.0021,7.0196,7.0499,7.2973,7.3437,7.3751,7.5155,7.576,7.6176,7.6723,7.6846,7.6866,7.6866,7.6866,7.6705,7.6179,7.5946,7.5616,7.4992,7.4845,7.4808,7.4918,7.5542,7.6276,7.6943,7.6943,7.7231,7.8002,7.7965,7.8332,7.9213,7.925,7.936,7.9653,7.9653,8.0057,8.0865,8.0865,8.1232,8.1929,8.2003,8.1696,6.0496,6.0467,5.9945,6.2178,6.2821,6.3362,6.5121,6.5155,6.5155,6.6542,6.6812,6.6728,6.655,6.6613,6.6651,6.6422,6.6612,6.6712,6.6412,6.6728,6.6843,6.6541,6.6643,6.6897,6.7113,6.7567,6.7903,6.8144,6.7778,6.7635,6.7826,6.7017,6.6592,6.677,6.6812,6.6812,6.6812,6.6812,6.6812,6.6812,6.6812,6.6812,6.6812,6.6812,6.6812,6.6812,6.6812,6.6812,6.6812,6.6812,6.6812,6.6812,6.6812,6.6812,6.6812,6.6812,6.6812,6.6812,6.6812,6.6812,6.6812,6.6812,6.6812,6.6812,6.6812,6.6854,6.7014,6.7263,6.7387,6.781,6.9396,6.9646,7.0021,7.1969,7.2622,7.3315,7.4784,7.5318,7.5762,7.6758,7.6702,7.633,7.5723,7.565,7.5542,7.5212,7.5498,7.5859,7.5969,7.5696,7.5678,7.6246,7.6607,7.7157,7.8002,7.8075,7.8405,7.925,7.9286,7.9653,8.0461,8.0498,8.0718,8.1195,8.1195,8.1342,8.1709,8.1709,8.1856,8.2186,8.2186,8.2003,6.2921,6.2888,6.2347,6.414,6.529,6.5865,6.5324,6.5628,6.6136,6.6711,6.6812,6.6728,6.655,6.647,6.631,6.6124,6.6202,6.6257,6.6024,6.6377,6.657,6.6378,6.6516,6.6828,6.743,6.7791,6.8104,6.8386,6.7874,6.7678,6.7959,6.6963,6.6516,6.677,6.6812,6.6812,6.6812,6.6812,6.6812,6.6812,6.6812,6.6812,6.6812,6.6812,6.6812,6.6812,6.6812,6.6812,6.6812,6.6812,6.6812,6.6812,6.6812,6.6812,6.6812,6.6812,6.6812,6.6812,6.6812,6.6812,6.6812,6.6812,6.6812,6.6812,6.6812,6.6812,6.6854,6.7139,6.718,6.7486,6.8778,6.9254,6.973,7.0988,7.1916,7.2868,7.4194,7.4642,7.5115,7.598,7.5832,7.5253,7.4322,7.4075,7.3971,7.3796,7.4392,7.53,7.6432,7.6327,7.6434,7.7237,7.7494,7.8002,7.8846,7.914,7.9617,8.0388,8.0461,8.0718,8.1305,8.1342,8.1599,8.2186,8.2186,8.2186,8.2186,8.2186,8.2186,8.2186,8.2186,8.2186,5.9596,6.1298,6.3632,6.441,6.5696,6.6779,6.6745,6.6779,6.6779,6.6812,6.6812,6.6728,6.655,6.6863,6.7112,6.689,6.7252,6.7314,6.6585,6.6711,6.6668,6.6196,6.6139,6.644,6.7133,6.7234,6.7046,6.663,6.6552,6.6733,6.719,6.6497,6.6311,6.677,6.6812,6.6812,6.6812,6.6812,6.6812,6.6812,6.6812,6.6812,6.6812,6.6812,6.6812,6.6812,6.6812,6.6812,6.6812,6.6812,6.6812,6.6812,6.6812,6.6812,6.6812,6.6812,6.6812,6.6812,6.6812,6.6812,6.6812,6.6812,6.6812,6.6812,6.6812,6.6812,6.6854,6.7139,6.718,6.735,6.8132,6.8846,6.9594,7.0342,7.1299,7.2193,7.2915,7.3537,7.3846,7.3564,7.3647,7.3509,7.2691,7.2259,7.1966,7.1966,7.2601,7.3789,7.5792,7.6439,7.6893,7.7243,7.8075,7.8883,7.969,8.0461,8.1269,8.2076,8.2113,8.215,8.215,8.215,8.2186,8.2186,8.2186,8.2186,8.2186,8.2186,8.2186,8.2186,8.2186,8.2186,6.1579,6.3091,6.4512,6.5764,6.644,6.6812,6.6812,6.6812,6.6812,6.6812,6.6148,6.5681,6.6045,6.5631,6.5358,6.5712,6.6014,6.6055,6.5823,6.6013,6.6124,6.5945,6.6009,6.6153,6.6245,6.6712,6.7034,6.7214,6.6953,6.6879,6.7156,6.6661,6.6473,6.677,6.6812,6.6812,6.6812,6.6812,6.6812,6.6812,6.6812,6.6812,6.6812,6.6812,6.6812,6.6812,6.6812,6.6812,6.6812,6.6812,6.6812,6.6812,6.6812,6.6812,6.6812,6.6812,6.6812,6.6812,6.6812,6.6812,6.6812,6.6812,6.6812,6.6812,6.6812,6.6812,6.6812,6.6896,6.6896,6.7108,6.7853,6.8226,6.8642,6.9517,7.014,7.0609,7.1153,7.1648,7.2014,7.2041,7.2088,7.1807,7.0955,7.0549,7.0609,7.1214,7.2448,7.3854,7.5432,7.5513,7.6049,7.772,7.7676,7.8343,8.0429,8.0828,8.1342,8.215,8.2186,8.2186,8.2186,8.2186,8.2186,8.2186,8.2186,8.2186,8.2186,8.2186,8.2186,8.2186,8.2186,8.2186,6.3159,6.4241,6.4952,6.644,6.6812,6.6812,6.6812,6.6812,6.6812,6.6812,6.5578,6.4782,6.5416,6.4623,6.4063,6.4835,6.5505,6.5824,6.5594,6.5897,6.6072,6.5836,6.5824,6.5834,6.578,6.6213,6.6668,6.6953,6.6689,6.6645,6.692,6.6657,6.6592,6.677,6.6812,6.6812,6.6812,6.6812,6.6812,6.6812,6.6812,6.6812,6.6812,6.6812,6.6812,6.6812,6.6812,6.6812,6.6812,6.6812,6.6812,6.6812,6.6812,6.6812,6.6812,6.6812,6.6812,6.6812,6.6812,6.6812,6.6812,6.6812,6.6812,6.6812,6.6812,6.6812,6.6812,6.6812,6.6812,6.6914,6.7387,6.7692,6.8116,6.8804,6.9314,6.9688,7.0106,7.0441,7.062,7.0536,7.0471,7.0188,6.9302,6.9129,6.9526,7.0683,7.2011,7.3475,7.5179,7.5257,7.5811,7.7411,7.7413,7.8134,8.0232,8.0698,8.1234,8.215,8.2186,8.2186,8.2186,8.2186,8.2186,8.2186,8.2186,8.2186,8.2186,8.2186,8.2186,8.2186,8.2186,8.2186,6.4038,6.4647,6.5053,6.6474,6.6812,6.6812,6.6812,6.6812,6.6736,6.6627,6.51,6.3967,6.4503,6.3747,6.3329,6.432,6.5714,6.6484,6.5886,6.6322,6.6515,6.5836,6.5559,6.5514,6.578,6.578,6.578,6.5824,6.5824,6.6032,6.6464,6.6507,6.6592,6.677,6.6812,6.6812,6.6812,6.6812,6.6812,6.6812,6.6812,6.6812,6.6812,6.6812,6.6812,6.6812,6.6812,6.6812,6.6812,6.6812,6.6812,6.6812,6.6812,6.6812,6.6812,6.6812,6.6812,6.6812,6.6812,6.6812,6.6812,6.6812,6.6812,6.6812,6.6812,6.6812,6.6812,6.6812,6.6812,6.6812,6.6812,6.732,6.7904,6.8158,6.8744,6.934,6.9586,6.9837,6.9722,6.9001,6.8863,6.8617,6.7931,6.8152,6.888,7.0308,7.1401,7.2811,7.4883,7.5585,7.6081,7.6521,7.7232,7.8164,7.9251,8.0081,8.0947,8.2055,8.2121,8.2154,8.2186,8.2186,8.2186,8.2186,8.2186,8.2186,8.2186,8.2186,8.2186,8.2186,8.2186,8.2186,6.4444,6.5392,6.6339,6.6711,6.6812,6.6812,6.6812,6.6812,6.6264,6.4291,6.315,6.2102,6.0835,6.0677,6.1185,6.264,6.3899,6.4892,6.5436,6.5634,6.5672,6.5536,6.547,6.5514,6.578,6.578,6.5945,6.6292,6.6335,6.6378,6.6507,6.6635,6.6728,6.6812,6.6812,6.6812,6.6812,6.6812,6.6812,6.6812,6.6812,6.6812,6.6812,6.6812,6.6812,6.6812,6.6812,6.6812,6.6812,6.6812,6.6812,6.6812,6.6812,6.6812,6.6812,6.6812,6.6812,6.6812,6.6812,6.6812,6.6812,6.6812,6.6812,6.6812,6.6812,6.6812,6.6812,6.6812,6.6812,6.6812,6.6812,6.6948,6.7083,6.7201,6.7463,6.78,6.7842,6.8049,6.807,6.7899,6.8186,6.8326,6.7954,6.8913,6.9897,7.0401,7.1987,7.3379,7.4131,7.4478,7.5301,7.6911,7.6795,7.7256,7.8946,7.9273,7.988,8.0947,8.1018,8.137,8.2154,8.2186,8.2186,8.2186,8.2186,8.2186,8.2186,8.2186,8.2186,8.2186,8.2186,8.2186,6.5392,6.617,6.6812,6.6812,6.6812,6.6483,6.5353,6.5091,6.4324,6.1732,6.0482,5.9507,5.8411,5.8871,5.9833,6.0833,6.302,6.4705,6.491,6.5559,6.5857,6.5435,6.5425,6.5514,6.578,6.5867,6.6086,6.6464,6.6507,6.655,6.6635,6.6728,6.6812,6.6812,6.6812,6.6812,6.6812,6.6812,6.6812,6.6812,6.6812,6.6812,6.6812,6.6812,6.6812,6.6812,6.6812,6.6812,6.6812,6.6812,6.6812,6.6812,6.6812,6.6812,6.6812,6.6812,6.6812,6.6812,6.6812,6.6812,6.6812,6.6812,6.6812,6.6812,6.6812,6.6812,6.6812,6.6812,6.6812,6.6812,6.6812,6.6812,6.6812,6.6812,6.6896,6.7014,6.7014,6.7105,6.729,6.7596,6.792,6.8303,6.8852,6.962,7.0341,7.0778,7.235,7.3523,7.3695,7.4376,7.5321,7.6451,7.6222,7.6578,7.8126,7.8245,7.874,7.9842,7.9918,8.0144,8.0768,8.123,8.1474,8.1474,8.1952,8.2186,8.2186,8.2186,8.2186,8.2186,8.2186,8.2186,6.6474,6.6812,6.6812,6.6812,6.6812,6.612,6.3524,6.2901,6.2059,5.9081,5.7648,5.6838,5.6493,5.7525,5.8587,5.9031,6.2342,6.477,6.4401,6.5659,6.6304,6.549,6.5425,6.5559,6.5824,6.6009,6.6259,6.6507,6.655,6.6635,6.677,6.6812,6.6812,6.6812,6.6812,6.6812,6.6812,6.6812,6.6812,6.6812,6.6812,6.6812,6.6812,6.6812,6.6812,6.6812,6.6812,6.6812,6.6812,6.6812,6.6812,6.6812,6.6812,6.6812,6.6812,6.6812,6.6812,6.6812,6.6812,6.6812,6.6812,6.6812,6.6812,6.6812,6.6812,6.6812,6.6812,6.6812,6.6812,6.6812,6.6812,6.6812,6.6812,6.6812,6.6812,6.6812,6.6812,6.688,6.7151,6.7793,6.8064,6.8639,6.9958,7.0263,7.0601,7.1345,7.2631,7.351,7.3612,7.483,7.5709,7.5709,7.5709,7.6067,7.6982,7.7071,7.7563,7.87,7.8781,7.8862,7.8983,7.988,8.0403,8.0403,8.1439,8.1985,8.1985,8.2121,8.2186,8.2186,8.2186,8.2186,6.6745,6.6812,6.6812,6.6812,6.6812,6.612,6.3524,6.2901,6.1546,5.6762,5.6045,5.5595,5.3421,5.4622,5.6412,5.7902,6.0374,6.2539,6.3883,6.4976,6.5598,6.5414,6.5603,6.5824,6.6009,6.6259,6.655,6.6728,6.6728,6.677,6.6812,6.6812,6.6812,6.6812,6.6812,6.6812,6.6812,6.6812,6.6812,6.6812,6.6812,6.6812,6.6812,6.6812,6.6812,6.6812,6.6812,6.6812,6.6812,6.6812,6.6812,6.6812,6.6812,6.6812,6.6812,6.6812,6.6812,6.6812,6.6812,6.6812,6.6812,6.6812,6.6812,6.6812,6.6812,6.6812,6.6812,6.6812,6.6812,6.6812,6.6812,6.6812,6.6812,6.6812,6.6812,6.6812,6.6812,6.7286,6.776,6.7895,6.891,6.9891,7.0128,7.0703,7.1379,7.209,7.2935,7.3713,7.4322,7.5168,7.5709,7.5709,7.5709,7.5771,7.5973,7.5973,7.6416,7.752,7.7606,7.8034,7.8943,7.9183,7.9262,7.9262,8.0329,8.0875,8.0875,8.1748,8.2186,8.2186,8.2186,8.2186,6.6812,6.6812,6.6812,6.6812,6.6728,6.5621,6.1721,6.0792,5.9274,5.4129,5.3603,5.3597,5.2,5.3395,5.5033,5.5906,5.879,6.1297,6.2496,6.4252,6.547,6.5603,6.5736,6.5911,6.6259,6.6421,6.6592,6.677,6.6812,6.6812,6.6812,6.6812,6.6812,6.6812,6.6812,6.6812,6.6812,6.6812,6.6812,6.6812,6.6812,6.6812,6.6812,6.6812,6.6812,6.6812,6.6812,6.6812,6.6812,6.6812,6.6812,6.6812,6.6812,6.6812,6.6812,6.6812,6.6812,6.6812,6.6812,6.6812,6.6812,6.6812,6.6812,6.6812,6.6812,6.6812,6.6812,6.6812,6.6812,6.6812,6.6812,6.6812,6.6812,6.6812,6.6812,6.6914,6.7286,6.7658,6.8132,6.8944,6.9688,7.0297,7.0703,7.1075,7.1548,7.2293,7.3003,7.3747,7.4525,7.5236,7.5709,7.5709,7.5709,7.5709,7.5709,7.5709,7.5913,7.6416,7.6462,7.6701,7.7248,7.7822,7.8119,7.8119,7.9222,7.9765,7.9765,8.084,8.137,8.1405,8.2358,8.281,6.6534,6.6745,6.688,6.688,6.6886,6.5544,6.0352,5.9036,5.7439,5.2255,5.1618,5.1828,5.1319,5.2678,5.3844,5.3823,5.7027,5.9914,6.0796,6.3172,6.5054,6.5692,6.5867,6.6119,6.6464,6.655,6.6635,6.677,6.6812,6.6812,6.6812,6.6812,6.6812,6.6812,6.6812,6.6812,6.6812,6.6812,6.6812,6.6812,6.6812,6.6812,6.6812,6.6812,6.6812,6.6812,6.6812,6.6812,6.6812,6.6812,6.6812,6.6812,6.6812,6.6812,6.6812,6.6812,6.6812,6.6812,6.6812,6.6812,6.6812,6.6812,6.6812,6.6812,6.6812,6.6812,6.6812,6.6812,6.6812,6.6812,6.6812,6.6812,6.6812,6.6812,6.6948,6.7218,6.776,6.8166,6.8741,6.9958,7.0252,7.0512,7.112,7.1222,7.1526,7.2404,7.3058,7.3815,7.4728,7.5337,7.5709,7.5709,7.5709,7.5709,7.5709,7.5709,7.5709,7.5709,7.5709,7.5709,7.5709,7.6508,7.7041,7.7213,7.8182,7.8729,7.8906,7.9798,8.0327,8.0544,8.228,8.3132,6.5765,6.6641,6.7144,6.7144,6.768,6.6689,6.0999,5.9727,5.8053,5.2346,5.1259,5.1289,5.1229,5.1845,5.2378,5.229,5.4756,5.7263,5.9135,6.1463,6.3645,6.5592,6.6206,6.6464,6.6507,6.6677,6.677,6.6812,6.6812,6.6812,6.6812,6.6812,6.6812,6.6812,6.6812,6.6812,6.6812,6.6812,6.6812,6.6812,6.6812,6.6812,6.6812,6.6812,6.6812,6.6812,6.6812,6.6812,6.6812,6.6812,6.6812,6.6812,6.6812,6.6812,6.6812,6.6812,6.6812,6.6812,6.6812,6.6812,6.6812,6.6812,6.6812,6.6812,6.6812,6.6812,6.6812,6.6812,6.6812,6.6812,6.6812,6.6812,6.6812,6.6812,6.732,6.7827,6.7895,6.8977,7.0026,7.0161,7.0558,7.0849,7.0916,7.0916,7.1387,7.2801,7.3304,7.3984,7.5405,7.5676,7.5709,7.5709,7.5709,7.5709,7.5709,7.5709,7.5709,7.5709,7.5709,7.5709,7.5709,7.5771,7.6205,7.6951,7.7306,7.7814,7.8543,7.897,7.9458,8.0167,8.1369,8.2322,6.5932,6.6718,6.6954,6.6954,6.5888,6.3913,6.0193,5.8001,5.5488,5.0958,5.065,5.0698,4.9063,4.9609,5.0377,5.0189,5.196,5.3896,5.5404,5.9147,6.2045,6.2983,6.5094,6.655,6.6677,6.6728,6.6812,6.6812,6.6812,6.6812,6.6812,6.6812,6.6812,6.6812,6.6812,6.6812,6.6812,6.6812,6.6812,6.6812,6.6812,6.6812,6.6812,6.6812,6.6812,6.6812,6.6812,6.6812,6.6812,6.6812,6.6812,6.6812,6.6812,6.6812,6.6812,6.6812,6.6812,6.6812,6.6812,6.6812,6.6812,6.6812,6.6812,6.6812,6.6812,6.6812,6.6812,6.6812,6.6812,6.6812,6.6812,6.6686,6.6736,6.7174,6.7511,6.795,6.8827,6.9501,7.003,7.0332,7.0498,7.0654,7.0654,7.1161,7.1926,7.2969,7.3696,7.4525,7.5574,7.5709,7.5709,7.5709,7.5709,7.5709,7.5709,7.5709,7.5709,7.5709,7.5709,7.5709,7.5709,7.5709,7.6082,7.6893,7.6999,7.7451,7.8203,7.8985,7.9522,7.9836,8.1443,8.2286,6.4657,6.6186,6.6938,6.6938,6.4993,6.2427,5.9813,5.7098,5.411,5.0504,5.0555,5.0603,4.8688,4.8787,4.9116,4.8936,4.9846,5.1199,5.2878,5.6752,5.9788,6.0889,6.3356,6.5264,6.6002,6.6479,6.6812,6.6812,6.6812,6.6812,6.6812,6.6812,6.6812,6.6812,6.6812,6.6812,6.6812,6.6812,6.6812,6.6812,6.6812,6.6812,6.6812,6.6812,6.6812,6.6812,6.6812,6.6812,6.6812,6.6812,6.6812,6.6812,6.6812,6.6812,6.6812,6.6812,6.6812,6.6812,6.6812,6.6812,6.6812,6.6812,6.6812,6.6812,6.6812,6.6812,6.6812,6.6812,6.6728,6.6686,6.6601,6.6641,6.6815,6.7362,6.7833,6.8438,6.948,6.9883,7.0095,7.0415,7.0423,7.0376,7.0376,7.1198,7.2076,7.2862,7.3838,7.4769,7.5608,7.5709,7.5709,7.5709,7.5709,7.5709,7.5709,7.5709,7.5709,7.5709,7.5709,7.5709,7.5709,7.5709,7.6183,7.7198,7.6995,7.7367,7.8314,7.8845,7.9233,7.9521,8.1129,8.222,6.1284,6.4641,6.72,6.72,6.5766,6.357,6.0486,5.7776,5.4991,5.1854,5.1182,5.1182,5.1182,5.0095,4.9116,4.8858,4.8586,4.944,5.2315,5.4424,5.6813,5.9941,6.1047,6.2279,6.4038,6.5799,6.6812,6.6812,6.6812,6.6812,6.6812,6.6812,6.6812,6.6812,6.6812,6.6812,6.6812,6.6812,6.6812,6.6812,6.6812,6.6812,6.6812,6.6812,6.6812,6.6812,6.6812,6.6812,6.6812,6.6812,6.6812,6.6812,6.6812,6.6812,6.6812,6.6812,6.6812,6.6812,6.6812,6.6812,6.6812,6.6812,6.6812,6.6812,6.6812,6.6812,6.6812,6.6812,6.6677,6.6464,6.6182,6.6631,6.72,6.72,6.8305,6.9377,6.941,6.998,7.0515,7.0515,7.0363,7.0176,7.0176,7.0809,7.1637,7.2658,7.3601,7.4579,7.556,7.5709,7.5709,7.5709,7.5709,7.5709,7.5709,7.5709,7.5709,7.5709,7.5709,7.5709,7.5709,7.5709,7.642,7.7942,7.7266,7.7638,7.9092,7.8348,7.8397,7.9142,8.0278,8.1793,5.5426,5.7783,5.9247,5.8004,5.6839,5.5752,5.4807,5.2868,5.1061,5.0038,4.9824,4.9259,4.7299,4.663,4.6598,4.749,4.7598,4.8493,5.1343,5.5321,5.8305,5.9262,6.2796,6.5344,6.5913,6.6479,6.6812,6.6812,6.6812,6.6812,6.6812,6.6812,6.6812,6.6812,6.6812,6.6812,6.6812,6.6812,6.6812,6.6812,6.6812,6.6812,6.6812,6.6812,6.6812,6.6812,6.6812,6.6812,6.6812,6.6812,6.6812,6.6812,6.6812,6.6812,6.6812,6.6812,6.6812,6.6812,6.6812,6.6812,6.6812,6.6812,6.6812,6.6812,6.6812,6.6812,6.677,6.6635,6.643,6.6273,6.6589,6.6801,6.7235,6.8281,6.8881,6.9349,6.9849,7.015,7.0223,7.0082,6.9988,6.9941,6.9941,7.1113,7.2204,7.2725,7.4037,7.5152,7.5628,7.5709,7.5709,7.5709,7.5709,7.5709,7.5709,7.5709,7.5709,7.5709,7.5709,7.5709,7.5709,7.6217,7.6995,7.7976,7.828,7.8889,7.987,7.96,7.96,7.9837,8.0217,8.1125,5.0751,5.3373,5.4746,5.3847,5.2485,5.1464,5.1702,4.9988,4.8389,4.8389,4.8389,4.8038,4.6785,4.5714,4.5649,4.745,4.7223,4.8013,5.1491,5.5265,5.8255,5.9763,6.3412,6.5799,6.5799,6.6426,6.6812,6.6812,6.6812,6.6812,6.6812,6.6812,6.6812,6.6812,6.6812,6.6812,6.6812,6.6812,6.6812,6.6812,6.6812,6.6812,6.6812,6.6812,6.6812,6.6812,6.6812,6.6812,0.0,6.6812,6.6812,6.6812,6.6812,6.6812,6.6812,6.6812,6.6812,6.6812,6.6812,6.6812,6.6812,6.6812,6.6728,6.672,6.672,6.672,6.6601,6.6335,6.633,6.6456,6.6689,6.7176,6.7808,6.8705,6.9138,6.947,6.9935,7.0035,6.9988,6.9846,6.9798,6.9898,7.0163,7.1335,7.2426,7.3016,7.4295,7.5277,7.5518,7.5662,7.5709,7.5709,7.5709,7.5709,7.5709,7.5709,7.5709,7.5709,7.5709,7.5709,7.5709,7.6183,7.6927,7.7976,7.845,7.9194,8.0209,8.0209,8.0209,8.0209,8.0209,8.0591,0.0,5.0526,5.2584,5.2966,5.1385,4.9828,5.0356,4.8652,0.0,4.7094,4.6991,4.7378,4.8753,4.6791,4.5846,4.8409,4.7508,4.8103,5.2681,5.5015,5.7608,6.1312,6.3307,6.4328,6.4257,6.5787,6.6812,6.6812,6.6812,6.6812,6.6812,6.6812,6.6812,6.6812,6.6812,6.6812,6.6812,6.6812,6.6812,6.6812,6.6812,6.6812,6.6812,6.6812,6.6812,6.6812,6.6812,6.6812,6.6812,6.6812,6.6812,6.6812,6.6812,6.6812,6.6812,6.6812,6.6812,6.6812,6.6812,6.6812,6.6812,6.6812,6.6643,6.6507,6.6464,6.6464,6.6378,6.5978,6.6379,6.6822,6.6697,6.7678,6.8705,6.8738,6.9254,6.9751,6.9751,6.9751,6.9751,6.9798,6.9798,7.003,7.0759,7.1521,7.2348,7.3374,7.4353,7.5067,7.5277,7.5566,7.5709,7.5709,7.5709,7.5709,7.5709,7.5709,7.5709,7.5709,7.5709,7.5709,7.5709,7.5743,7.6454,7.7874,7.801,7.8754,8.0107,8.0175,8.0209,8.0209,8.0209,8.0209,4.0811,0.0,4.4119,4.3285,4.3972,4.4918,0.0,4.5336,4.582,4.6888,4.6213,4.5875,4.7055,4.5529,4.5126,4.8256,4.8773,5.0444,5.4992,5.9428,6.2693,6.4006,6.5378,6.5824,6.488,6.6039,6.6812,6.6812,6.6812,6.6812,6.6812,6.6812,6.6812,6.6812,6.6812,6.6812,6.6812,6.6812,6.6812,6.6812,6.6812,6.6812,6.6812,6.6812,6.6812,6.6812,6.6812,6.6812,6.6812,6.6812,6.6812,6.6812,6.6812,6.6812,6.6812,6.6812,6.6812,6.6812,6.6812,6.6812,6.6812,6.6812,6.6643,6.6464,6.6259,6.6086,6.6045,6.6524,6.6611,6.6829,6.791,6.83,6.8522,6.9115,6.9202,6.9188,6.9188,6.9188,6.9237,6.943,6.9478,6.979,7.0711,7.1521,7.2348,7.3374,7.4353,7.5067,7.5277,7.5566,7.5709,7.5709,7.5709,7.5709,7.5709,7.5709,7.5709,7.5709,7.5709,7.5709,7.5709,7.6284,7.6792,7.7164,7.828,7.9025,7.9363,7.9938,8.0209,8.0209,8.0209,8.0209,3.8241,3.9778,4.1055,4.0887,4.1815,4.2911,4.348,4.3661,4.4007,4.4995,4.4643,4.4471,4.5702,4.6051,4.6694,4.8335,5.1183,5.4477,5.8238,6.141,6.376,6.4887,6.5561,6.5923,6.5821,6.6422,6.6812,6.6812,6.6812,6.6812,6.6812,6.6812,6.6812,6.6812,6.6812,6.6812,6.6812,6.6812,6.6812,6.6812,6.6812,6.6812,6.6812,6.6812,6.6812,6.6812,6.6812,6.6812,6.6812,6.6812,6.6812,6.6812,6.6812,6.6812,6.6812,6.6812,6.6812,6.6812,6.6812,6.6812,6.677,6.6686,6.6473,6.6326,6.6443,6.6324,6.6201,6.66,6.7016,6.7493,6.8286,6.8606,6.8696,6.909,6.9091,6.8994,6.8994,6.8994,6.9042,6.9188,6.9484,7.0042,7.1061,7.1821,7.2647,7.3675,7.4455,7.5067,7.5131,7.547,7.5709,7.5709,7.5709,7.5709,7.5709,7.5709,7.5709,7.5709,7.5709,7.5709,7.5709,7.6115,7.6521,7.6893,7.8348,7.9126,7.9126,7.9837,8.0209,8.0209,8.0209,8.0209,3.7814,3.9728,4.146,4.1742,4.2011,4.2439,4.3237,4.2836,4.2464,4.2942,4.2986,4.3538,4.5334,4.7325,4.8763,4.9133,5.397,5.8607,6.1365,6.2483,6.3483,6.4816,6.5158,6.5625,6.6433,6.6693,6.6812,6.6812,6.6812,6.6812,6.6812,6.6812,6.6812,6.6812,6.6812,6.6812,6.6812,6.6812,6.6812,6.6812,6.6812,6.6812,6.6812,6.6812,6.6812,6.6812,6.6812,6.6812,6.6812,6.6812,6.6812,6.6812,6.6812,6.6812,6.6812,6.6812,6.6812,6.6812,6.6812,6.6812,6.677,6.655,6.6302,6.6186,6.6768,6.6754,6.6626,6.6726,6.7512,6.8328,6.8379,6.868,6.8945,6.8945,6.8896,6.8847,6.8847,6.8847,6.8928,6.9027,6.955,7.0419,7.149,7.2281,7.3041,7.4021,7.4622,7.5018,7.5018,7.5422,7.5709,7.5709,7.5709,7.5709,7.5709,7.5709,7.5709,7.5709,7.5709,7.5709,7.5709,7.5709,7.6014,7.669,7.8077,7.8822,7.8923,7.9667,8.0073,8.0209,8.0209,8.0209,3.8316,4.2116,4.4679,4.1003,4.1182,4.2137,4.1781,4.2308,4.2886,4.2961,4.2986,4.4219,4.8065,4.8015,4.8558,5.2215,5.6166,5.9736,6.2632,6.4793,6.5837,6.5103,6.5909,6.6187,6.5349,6.6199,6.6812,6.6812,6.6812,6.6812,6.6812,6.6812,6.6812,6.6812,6.6812,6.6812,6.6812,6.6812,6.6812,6.6812,6.6812,6.6812,6.6812,6.6812,6.6812,6.6812,6.6812,6.6812,6.6812,6.6812,6.6812,6.6812,6.6812,6.6812,6.6812,6.6812,6.6812,6.6812,6.6812,6.6812,6.677,6.655,6.6302,6.6186,6.6768,6.6995,6.7254,6.7848,6.8177,6.8379,6.8763,6.8749,6.8649,6.8649,6.8501,6.8251,6.805,6.8151,6.8546,6.913,6.9509,7.025,7.1811,7.2426,7.294,7.3716,7.4523,7.5018,7.5018,7.5422,7.5709,7.5709,7.5709,7.5709,7.5709,7.5709,7.5709,7.5709,7.5709,7.5709,7.5709,7.5709,7.5743,7.5879,7.6792,7.7536,7.8145,7.8923,7.96,8.0209,8.0209,8.0209,3.804,4.0563,4.2924,4.3309,4.6232,4.9061,4.9089,4.9033,4.8538,4.7028,4.6674,4.7185,4.8755,5.0546,5.3758,5.9747,6.0281,6.0947,6.3824,6.4305,6.4551,6.4926,6.5498,6.5881,6.5982,6.6487,6.6812,6.6812,6.6812,6.6812,6.6812,6.6812,6.6812,6.6812,6.6812,6.6812,6.6812,6.6812,6.6812,6.6812,6.6812,6.6812,6.6812,6.6812,6.6812,6.6812,6.6812,6.6812,6.6812,6.6812,6.6812,6.6812,6.6812,6.6812,6.6812,6.6812,6.6812,6.6812,6.6812,6.6812,6.6728,6.6388,6.6182,6.6253,6.7055,6.7255,6.7424,6.8367,6.8599,6.847,6.8552,6.8351,6.8151,6.8,6.7848,6.7875,6.8107,6.8255,6.855,6.9258,6.9969,7.0682,7.1591,7.2358,7.3009,7.3679,7.4221,7.4639,7.4968,7.5277,7.5566,7.5709,7.5709,7.5709,7.5709,7.5709,7.5709,7.5709,7.5709,7.5709,7.5709,7.5709,7.5709,7.5709,7.6487,7.7266,7.7976,7.8754,7.9498,8.0209,8.0209,8.0209,3.7864,3.965,4.1999,4.5757,4.9409,5.2687,5.481,5.4001,5.2505,5.1423,5.0872,5.053,5.0491,5.3724,5.8358,6.4224,6.3123,6.2419,6.5055,6.4225,6.3862,6.525,6.5448,6.5792,6.6702,6.6812,6.6812,6.6812,6.6812,6.6812,6.6812,6.6812,6.6812,6.6812,6.6812,6.6812,6.6812,6.6812,6.6812,6.6812,6.6812,6.6812,6.6812,6.6812,6.6812,6.6812,6.6812,6.6812,6.6812,6.6812,6.6812,6.6812,6.6812,6.6812,6.6812,6.6812,6.6812,6.6812,6.6812,6.6812,6.6728,6.6268,6.6095,6.6276,6.7194,6.7334,6.7349,6.8503,6.86,6.8351,6.8151,6.7899,6.7644,6.7439,6.7388,6.7612,6.8243,6.8455,6.8711,6.9489,7.0311,7.0995,7.1369,7.2173,7.2985,7.3506,7.3884,7.4306,7.4919,7.5179,7.5422,7.5662,7.5709,7.5709,7.5709,7.5709,7.5709,7.5709,7.5709,7.5709,7.5709,7.5709,7.5709,7.5709,7.6487,7.7266,7.7976,7.8754,7.9498,8.0209,8.0209,8.0209,3.8416,4.1944,4.549,4.6873,4.5527,4.5712,5.2645,5.149,5.0166,5.4404,5.3994,5.3448,5.5322,5.7292,5.894,6.0191,6.2405,6.4594,6.644,6.6546,6.6503,6.6641,6.6684,6.6702,6.677,6.6812,6.6812,6.6812,6.6812,6.6812,6.6812,6.6812,6.6812,6.6812,6.6812,6.6812,6.6812,6.6812,6.6812,6.6812,6.6812,6.6812,6.6812,6.6812,6.6812,6.6812,6.6812,6.6812,6.6812,6.6812,6.6812,6.6812,6.6812,6.6812,6.6812,6.6812,6.6812,6.6812,6.6812,6.6812,6.6728,6.6268,6.6095,6.6232,6.701,6.7053,6.7016,6.8011,6.805,6.7848,6.7848,6.7644,6.7388,6.7388,6.7388,6.7528,6.7969,6.8266,6.8786,6.9826,7.0362,7.0834,7.1506,7.21,7.2615,7.2932,7.3595,7.4306,7.4919,7.5179,7.5422,7.5662,7.5709,7.5709,7.5709,7.5709,7.5709,7.5709,7.5709,7.5709,7.5709,7.5709,7.5709,7.5709,7.6487,7.7266,7.7976,7.8754,7.9498,8.0209,8.0209,8.0209,3.7889,4.1879,4.5894,4.7007,4.7282,4.9045,5.6169,5.7196,5.6888,5.7581,5.8373,5.8455,5.7163,6.0031,6.2405,6.1633,6.3931,6.6057,6.672,6.6812,6.6812,6.6812,6.6812,6.6812,6.6812,6.6812,6.6812,6.6812,6.6812,6.6812,6.6812,6.6812,6.6812,6.6812,6.6812,6.6812,6.6812,6.6812,6.6812,6.6812,6.6812,6.6812,6.6812,6.6812,6.6812,6.6812,6.6812,6.6812,6.6812,6.6812,6.6812,6.6812,6.6812,6.6812,6.6812,6.6812,6.6812,6.6812,6.6812,6.6812,6.6728,6.6268,6.6095,6.6232,6.6964,6.6879,6.6791,6.788,6.7965,6.7599,6.7153,6.7005,6.6891,6.6931,6.6973,6.7234,6.8289,6.8595,6.8933,6.9734,7.0147,7.0553,7.0973,7.1392,7.1916,7.2562,7.3057,7.3698,7.4589,7.4935,7.5228,7.5662,7.5709,7.5709,7.5709,7.5709,7.5709,7.5709,7.5709,7.5709,7.5709,7.5709,7.5709,7.5709,7.598,7.6758,7.7976,7.828,7.9025,8.0209,8.0209,8.0209,3.973,4.3069,4.6602,4.8706,4.9365,5.1316,5.8303,5.9867,6.025,6.1597,6.2351,6.1918,5.8997,6.1558,6.371,6.2572,6.4883,6.6812,6.6812,6.6812,6.6812,6.6812,6.6812,6.6812,6.6812,6.6812,6.6812,6.6812,6.6812,6.6812,6.6812,6.6812,6.6812,6.6812,6.6812,6.6812,6.6812,6.6812,6.6812,6.6812,6.6812,6.6812,6.6812,6.6812,6.6812,6.6812,6.6812,6.6812,6.6812,6.6812,6.6812,6.6812,6.6812,6.6812,6.6812,6.6812,6.6812,6.6812,6.6812,6.6812,6.6728,6.6268,6.6095,6.6232,6.6872,6.6737,6.6598,6.753,6.7692,6.7427,6.6547,6.6663,6.7,6.7003,6.7073,6.7385,6.857,6.882,6.9007,6.9662,6.999,7.0218,7.0388,7.067,7.1203,7.1938,7.239,7.3025,7.4206,7.4639,7.5033,7.5662,7.5709,7.5709,7.5709,7.5709,7.5709,7.5709,7.5709,7.5709,7.5709,7.5709,7.5709,7.5709,7.5946,7.6589,7.7638,7.7874,7.8619,7.987,7.96,7.9634,4.4415,4.6034,4.829,5.2257,5.1108,5.0902,5.8056,5.7886,5.84,6.6344,6.5724,6.313,6.1313,6.1671,6.222,6.222,6.4794,6.6812,6.6812,6.6812,6.6812,6.6812,6.6812,6.6812,6.6812,6.6812,6.6812,6.6812,6.6812,6.6812,6.6812,6.6812,6.6812,6.6812,6.6812,6.6812,6.6812,6.6812,6.6812,6.6812,6.6812,6.6812,6.6812,6.6812,6.6812,6.6812,6.6812,6.6812,6.6812,6.6812,6.6812,6.6812,6.6812,6.6812,6.6812,6.6812,6.6812,6.6812,6.6812,6.6812,6.6728,6.6268,6.6095,6.6189,6.664,6.6594,6.6501,6.6901,6.7303,6.7306,6.6121,6.6759,6.7821,6.7821,6.7821,6.7953,6.8638,6.8763,6.8981,6.9662,6.9787,6.9787,6.9818,7.0047,7.0444,7.0997,7.1602,7.2464,7.3869,7.4356,7.4803,7.558,7.5709,7.5709,7.5709,7.5709,7.5709,7.5709,7.5709,7.5709,7.5709,7.5709,7.5709,7.5709,7.6487,7.6893,7.6893,7.7638,7.8382,7.9092,7.8348,7.8382,3.9816,4.5052,5.0152,4.9319,5.3424,5.8049,5.9693,6.0312,6.1958,6.69,6.5742,6.3359,6.1846,6.3308,6.4191,6.2492,6.4794,6.6812,6.6812,6.6812,6.6812,6.6812,6.6812,6.6812,6.6812,6.6812,6.6812,6.6812,6.6812,6.6812,6.6812,6.6812,6.6812,6.6812,6.6812,6.6812,6.6812,6.6812,6.6812,6.6812,6.6812,6.6812,6.6812,6.6812,6.6812,6.6812,6.6812,6.6812,6.6812,6.6812,6.6812,6.6812,6.6812,6.6812,6.6812,6.6812,6.6812,6.6812,6.6812,6.6812,6.6728,6.6268,6.6009,6.5958,6.6373,6.6177,6.5962,6.654,6.7171,6.7534,6.672,6.7016,6.7446,6.6725,6.6824,6.7222,6.7494,6.7923,6.8321,6.8505,6.8535,6.8595,6.88,6.8917,6.9151,6.9756,7.0124,7.0908,7.2415,7.4238,7.5268,7.4952,7.5405,7.5709,7.5709,7.5709,7.5709,7.5709,7.5709,7.5709,7.5709,7.5709,7.5709,7.5709,7.5946,7.6318,7.6893,7.713,7.7604,7.8314,7.8077,7.8111,4.5223,4.9609,5.3237,5.4682,5.8107,6.1491,6.2841,6.3594,6.4731,6.7269,6.6355,6.481,6.3947,6.501,6.5592,6.4126,6.5547,6.6812,6.6812,6.6812,6.6812,6.6812,6.6812,6.6812,6.6812,6.6812,6.6812,6.6812,6.6812,6.6812,6.6812,6.6812,6.6812,6.6812,6.6812,6.6812,6.6812,6.6812,6.6812,6.6812,6.6812,6.6812,6.6812,6.6812,6.6812,6.6812,6.6812,6.6812,6.6812,6.6812,6.6812,6.6812,6.6812,6.6812,6.6812,6.6812,6.6812,6.6812,6.6812,6.6728,6.6601,6.6225,6.5878,6.5735,6.6231,6.6031,6.5714,6.628,6.6784,6.7113,6.6568,6.6531,6.666,6.645,6.6452,6.6634,6.6907,6.7361,6.7666,6.7969,6.803,6.809,6.8238,6.8238,6.8417,6.8858,6.9495,7.037,7.1675,7.3592,7.4661,7.4208,7.51,7.5574,7.5303,7.554,7.5709,7.5709,7.5709,7.5709,7.5709,7.5709,7.5709,7.5709,7.5709,7.5946,7.642,7.642,7.6826,7.7536,7.7232,7.7232,5.5393,5.6634,5.7024,6.4351,6.3771,6.2468,6.6521,6.6957,6.6663,6.7426,6.721,6.6923,6.6746,6.6641,6.6507,6.6507,6.6677,6.6812,6.6812,6.6812,6.6812,6.6812,6.6812,6.6812,6.6812,6.6812,6.6812,6.6812,6.6812,6.6812,6.6812,6.6812,6.6812,6.6812,6.6812,6.6812,6.6812,6.6812,6.6812,6.6812,6.6812,6.6812,6.6812,6.6812,6.6812,6.6812,6.6812,6.6812,6.6812,6.6812,6.6812,6.6812,6.6812,6.6812,6.6812,6.6812,6.6812,6.6812,6.677,6.6643,6.6464,6.6172,6.5769,6.5532,6.6137,6.5999,6.5678,6.5986,6.6145,6.6164,6.5894,6.5611,6.5617,6.6516,6.6302,6.606,6.6605,6.6787,6.7,6.7606,6.7788,6.7819,6.7819,6.7879,6.803,6.8238,6.9201,7.0244,7.1108,7.2377,7.3193,7.3231,7.4485,7.5093,7.4661,7.5202,7.5642,7.5709,7.5709,7.5709,7.5709,7.5709,7.5709,7.5709,7.5709,7.5709,7.5709,7.5709,7.6082,7.6758,7.6048,7.6082,4.7422,5.2962,5.8799,6.0934,6.3396,6.5487,6.6239,6.6286,6.6433,6.7124,6.7202,6.6945,6.6343,6.6359,6.6507,6.6507,6.6677,6.6812,6.6812,6.6812,6.6812,6.6812,6.6812,6.6812,6.6812,6.6812,6.6812,6.6812,6.6812,6.6812,6.6812,6.6812,6.6812,6.6812,6.6812,6.6812,6.6812,6.6812,6.6812,6.6812,6.6812,6.6812,6.6812,6.6812,6.6812,6.6812,6.6812,6.6812,6.6812,6.6812,6.6812,6.6812,6.6812,6.6812,6.6812,6.6812,6.6812,6.677,6.6635,6.655,6.6378,6.578,6.5565,6.5638,6.5724,6.5628,6.5552,6.5719,6.5902,6.5878,6.5288,6.4916,6.4714,6.4631,6.4902,6.5082,6.4751,6.5022,6.5472,6.5592,6.6042,6.6463,6.6463,6.6883,6.7213,6.7274,6.8043,6.8488,6.8106,6.9361,7.0499,7.0975,7.185,7.3005,7.4465,7.4762,7.51,7.5676,7.5709,7.5709,7.5709,7.5709,7.5709,7.5709,7.5709,7.5709,7.5709,7.5709,7.5777,7.5946,7.5777,7.5777,4.994,5.4157,5.782,6.218,6.4877,6.6507,6.6473,6.6388,6.6402,6.6901,6.6916,6.6772,6.6498,6.6558,6.6643,6.6643,6.6728,6.6812,6.6812,6.6812,6.6812,6.6812,6.6812,6.6812,6.6812,6.6812,6.6812,6.6812,6.6812,6.6812,6.6812,6.6812,6.6812,6.6812,6.6812,6.6812,6.6812,6.6812,6.6812,6.6812,6.6812,6.6812,6.6812,6.6812,6.6812,6.6812,6.6812,6.6812,6.6812,6.6812,6.6812,6.6812,6.6812,6.6812,6.6812,6.6812,6.6728,6.6635,6.655,6.6292,6.5911,6.5514,6.539,6.5363,6.5545,6.5554,6.5565,6.5674,6.5435,6.5136,6.4957,6.4347,6.385,6.3975,6.4036,6.4066,6.4006,6.4276,6.4635,6.4964,6.5293,6.5533,6.5533,6.6071,6.664,6.6939,6.7366,6.7497,6.7111,6.8412,6.92,6.8871,7.0095,7.1567,7.2986,7.3466,7.3967,7.462,7.4687,7.4687,7.4687,7.4687,7.5015,7.5709,7.5709,7.5709,7.5709,7.5709,7.5709,7.5709,7.5709,7.5709,5.3197,5.5712,5.687,6.482,6.6643,6.6592,6.677,6.6677,6.6592,6.677,6.6677,6.6592,6.677,6.6812,6.6812,6.6812,6.6812,6.6812,6.6812,6.6812,6.6812,6.6812,6.6812,6.6812,6.6812,6.6812,6.6812,6.6812,6.6812,6.6812,6.6812,6.6812,6.6812,6.6812,6.6812,6.6812,6.6812,6.6812,6.6812,6.6812,6.6812,6.6812,6.6812,6.6812,6.6812,6.6812,6.6812,6.6812,6.6812,6.6812,6.6812,6.6812,6.6812,6.6812,6.6812,6.677,6.6643,6.6464,6.6335,6.5911,6.5381,6.5201,6.512,6.5174,6.5332,6.5498,6.5534,6.5598,6.4991,6.4392,6.4688,6.393,6.3199,6.3707,6.3438,6.3228,6.3737,6.3827,6.4006,6.4575,6.4784,6.4874,6.4994,6.5562,6.6161,6.658,6.664,6.6643,6.659,6.75,6.779,6.6901,6.8415,6.9861,7.0861,7.1602,7.2324,7.2995,7.3159,7.3328,7.3617,7.3599,7.429,7.5676,7.5709,7.5709,7.5709,7.5709,7.5709,7.5709,7.5709,7.5709,4.4514,5.1809,5.9848,6.5395,6.677,6.677,6.677,6.677,6.677,6.677,6.677,6.677,6.6812,6.6812,6.6812,6.6812,6.6812,6.6812,6.6812,6.6812,6.6812,6.6812,6.6812,6.6812,6.6812,6.6812,6.6812,6.6812,6.6812,6.6812,6.6812,6.6812,6.6812,6.6812,6.6812,6.6812,6.6812,6.6812,6.6812,6.6812,6.6812,6.6812,6.6812,6.6812,6.6812,6.6812,6.6812,6.6812,6.6812,6.6812,6.6812,6.6812,6.6812,6.6812,6.677,6.6592,6.6507,6.6421,6.578,6.547,6.5291,6.4472,6.4785,6.5396,6.4824,6.5125,6.5629,6.5429,6.4746,6.4049,6.4084,6.3599,6.3109,6.3169,6.3139,6.3109,6.3169,6.3199,6.3228,6.3318,6.3767,6.4336,6.4934,6.5562,6.5832,6.5353,6.5293,6.5053,6.4509,6.4146,6.4297,6.5282,6.5631,6.6623,6.8556,6.9335,7.0042,7.077,7.136,7.2282,7.3566,7.3617,7.4256,7.5676,7.5709,7.5709,7.5709,7.5709,7.5709,7.5709,7.5709,7.5709,4.5937,5.3445,6.0435,6.5547,6.6812,6.6812,6.6812,6.6812,6.6812,6.6812,6.6812,6.6812,6.6812,6.6812,6.6812,6.6812,6.6812,6.6812,6.6812,6.6812,6.6812,6.6812,6.6812,6.6728,6.6643,6.6635,6.6635,6.6635,6.6635,6.6643,6.677,6.6812,6.6812,6.6812,6.6812,6.6812,6.6812,6.6812,6.6812,6.6812,6.6812,6.6812,6.6812,6.6812,6.6812,6.6812,6.6812,6.6812,6.6812,6.6812,6.6812,6.6812,6.6812,6.6728,6.6635,6.655,6.6249,6.5824,6.5514,6.5066,6.4564,6.4146,6.4159,6.4416,6.4507,6.4675,6.4963,6.5258,6.4691,6.3993,6.3993,6.3538,6.3079,6.3079,6.3079,6.3079,6.3079,6.3079,6.3079,6.3079,6.3288,6.3677,6.4336,6.4695,6.4904,6.5024,6.5024,6.4784,6.4096,6.4096,6.409,6.3963,6.4262,6.5213,6.7,6.7391,6.8021,6.9122,6.9122,6.9525,7.0508,7.0563,7.1263,7.2704,7.4683,7.5709,7.5709,7.5709,7.5709,7.5709,7.5709,7.5709,4.6243,5.2164,5.7025,6.3311,6.5091,6.5536,6.6551,6.6812,6.6812,6.6812,6.6812,6.6812,6.6812,6.6812,6.6812,6.6812,6.6812,6.6812,6.6812,6.6812,6.6812,6.6812,6.6812,6.6728,6.6507,6.6507,6.6507,6.6507,6.6507,6.6592,6.677,6.6812,6.6812,6.6812,6.6812,6.6812,6.6812,6.6812,6.6812,6.6812,6.6812,6.6812,6.6812,6.6812,6.6812,6.6812,6.6812,6.6812,6.6812,6.6812,6.6812,6.677,6.6728,6.6635,6.6464,6.6292,6.5867,6.5381,6.5156,6.461,6.3959,6.377,6.3579,6.3584,6.3936,6.4173,6.4398,6.473,6.4401,6.3993,6.388,6.3481,6.3079,6.3079,6.3079,6.3079,6.3079,6.3079,6.3079,6.3079,6.3079,6.3228,6.3677,6.3887,6.4126,6.4485,6.4665,6.4515,6.3857,6.4216,6.4156,6.3169,6.3498,6.4229,6.5361,6.554,6.6062,6.7051,6.6862,6.7033,6.79,6.8086,6.8882,7.0353,7.3171,7.4785,7.5161,7.5532,7.5709,7.5709,7.5709,7.5709,4.0375,4.364,4.7817,5.7253,6.0409,6.2163,6.5951,6.6812,6.6812,6.6812,6.6812,6.6812,6.6812,6.6812,6.6812,6.6812,6.6812,6.6812,6.6812,6.6812,6.6812,6.6812,6.6812,6.6728,6.6507,6.6507,6.6507,6.6507,6.6507,6.6592,6.677,6.6812,6.6812,6.6812,6.6812,6.6812,6.6812,6.6812,6.6812,6.6812,6.6812,6.6812,6.6812,6.6812,6.6812,6.6812,6.6812,6.6812,6.6812,6.6812,6.6812,6.677,6.6592,6.6507,6.6421,6.5736,6.5425,6.5291,6.4379,6.4053,6.3865,6.3099,6.3137,6.3388,6.2879,6.3453,6.4166,6.3653,6.3756,6.3936,6.3595,6.3309,6.3079,6.3079,6.3079,6.3079,6.3079,6.3079,6.3079,6.3079,6.3079,6.3079,6.3109,6.3617,6.3827,6.3258,6.3677,6.3827,6.3199,6.3169,6.3139,6.3079,6.3109,6.3166,6.3224,6.3764,6.4123,6.4213,6.4783,6.5789,6.7187,6.7894,6.8882,7.0353,7.1198,7.2335,7.3701,7.5064,7.5709,7.5709,7.5709,7.5709,3.8054,4.0354,4.3263,5.1498,5.6039,5.9203,6.1808,6.4719,6.6812,6.6812,6.6812,6.6812,6.6812,6.6812,6.6812,6.6812,6.6812,6.6812,6.6812,6.6812,6.6812,6.6812,6.6812,6.6728,6.6507,6.6507,6.6507,6.6507,6.6507,6.6592,6.677,6.6812,6.6812,6.6812,6.6812,6.6812,6.6812,6.6812,6.6812,6.6812,6.6812,6.6812,6.6812,6.6812,6.6812,6.6812,6.6812,6.6812,6.6812,6.6812,6.6728,6.6592,6.655,6.6206,6.5736,6.5303,6.4852,6.4426,6.3912,6.3389,6.2922,6.2629,6.2323,6.2081,6.2312,6.2827,6.3341,6.3391,6.367,6.3936,6.3595,6.3309,6.3079,6.3079,6.3079,6.3079,6.3079,6.3079,6.3079,6.3079,6.3079,6.3079,6.3079,6.3258,6.3318,6.3109,6.3258,6.3318,6.3109,6.3079,6.3079,6.3079,6.3079,6.3079,6.3079,6.3288,6.3588,6.3977,6.3857,6.4208,6.5119,6.5392,6.5715,6.6313,6.827,7.0777,7.3617,7.4106,7.4835,7.5709,7.5709,7.5709,3.417,3.6008,3.8746,4.611,5.0443,5.4221,5.921,6.2486,6.4939,6.6483,6.6812,6.6812,6.6812,6.6812,6.6812,6.6812,6.6812,6.6812,6.6812,6.6812,6.6812,6.6812,6.6812,6.6728,6.6507,6.6507,6.6507,6.6507,6.6507,6.6592,6.677,6.6812,6.6812,6.6812,6.6812,6.6812,6.6812,6.6812,6.6812,6.6812,6.6812,6.6812,6.6812,6.6812,6.6812,6.6812,6.6728,6.6686,6.6686,6.6686,6.655,6.6249,6.6162,6.5736,6.5123,6.4806,6.4254,6.3675,6.3341,6.2776,6.2234,6.2135,6.1714,6.1247,6.1608,6.1985,6.2365,6.2415,6.293,6.3403,6.312,6.3072,6.3079,6.3079,6.3079,6.3079,6.3079,6.3079,6.3079,6.3079,6.3079,6.3079,6.3079,6.3079,6.3079,6.3079,6.3079,6.3079,6.3079,6.3079,6.3079,6.3079,6.3079,6.3079,6.3079,6.3079,6.3258,6.3647,6.3318,6.3258,6.3677,6.3887,6.4006,6.4006,6.6083,6.8658,7.1787,7.2522,7.3617,7.5015,7.5015,7.5258,0.0,0.0,0.0,4.0958,4.3517,4.7185,5.7995,6.0213,6.1261,6.5706,6.6736,6.6812,6.6812,6.6812,6.6812,6.6812,6.6812,6.6812,6.6812,6.6812,6.6812,6.6812,6.6812,6.6728,6.655,6.6507,6.6507,6.6507,6.6507,6.6592,6.677,6.6812,6.6812,6.6812,6.6812,6.6812,6.6812,6.6812,6.6812,6.6812,6.6812,6.6812,6.6812,6.677,6.677,6.677,6.6592,6.6464,6.6464,6.6464,6.6206,6.5736,6.5514,6.5111,6.461,6.4146,6.3628,6.3068,6.258,6.2184,6.1916,6.1633,6.141,6.1134,6.0845,6.1046,6.1279,6.0687,6.1459,6.2427,6.2148,6.257,6.3049,6.3079,6.3079,6.3079,6.3079,6.3079,6.3079,6.3079,6.3079,6.3079,6.3079,6.3079,6.3079,6.3079,6.3079,6.3079,6.3079,6.3079,6.3079,6.3079,6.3079,6.3079,6.3079,6.3079,6.3079,6.3079,6.3079,6.3079,6.3079,6.3647,6.3977,6.3977,6.4635,6.6003,6.806,7.0236,7.2089,7.3566,7.3566,7.4356,2.6921,0.0,0.0,0.0,0.0,0.0,4.9049,5.5146,6.001,6.2101,6.4824,6.6812,6.6812,6.6812,6.6812,6.6812,6.6812,6.6812,6.6812,6.6812,6.6812,6.6812,6.6812,6.677,6.6728,6.6686,6.6686,6.6686,6.6686,6.6728,6.6812,6.6812,6.6812,6.6812,6.6812,6.6812,6.6812,6.6812,6.6812,6.6812,6.6812,6.6812,6.6812,6.6677,6.6592,6.655,6.6162,6.5867,6.5736,6.5911,6.578,6.547,6.5066,6.461,6.41,6.3389,6.2954,6.2531,6.1985,6.1481,6.1103,6.1052,6.069,6.0302,6.025,6.0654,6.1011,6.0633,6.1127,6.1825,6.2028,6.2241,6.248,6.2959,6.3079,6.3079,6.3079,6.3079,6.3079,6.3079,6.3079,6.3079,6.3079,6.3079,6.3079,6.3079,6.3079,6.3079,6.3079,6.3079,6.3079,6.3079,6.3079,6.3079,6.3079,6.3079,6.3079,6.3079,6.3079,6.3079,6.3079,6.3228,6.3318,6.3318,6.3947,6.4601,6.513,6.7843,7.0086,7.2036,7.3121,7.4356,2.6367,2.6836,2.8069,3.1434,0.0,0.0,4.6861,5.2279,5.7019,6.2266,6.5197,6.6812,6.6812,6.6812,6.6812,6.6812,6.6812,6.6812,6.6812,6.6812,6.6812,6.6812,6.6812,6.6812,6.6812,6.6812,6.6812,6.6812,6.6812,6.6812,6.6812,6.6812,6.6812,6.6812,6.6812,6.6812,6.6812,6.6812,6.6812,6.6812,6.6812,6.6728,6.6677,6.643,6.6259,6.6206,6.5603,6.5246,6.5111,6.4806,6.4761,6.4793,6.4254,6.3738,6.326,6.271,6.2216,6.1834,6.1379,6.1,6.0586,6.0481,6.025,5.9963,5.9827,6.0069,6.0318,5.9994,6.0421,6.1027,6.1549,6.1882,6.2181,6.257,6.2869,6.3079,6.3079,6.3079,6.3079,6.3079,6.3079,6.3079,6.3079,6.3079,6.3079,6.3079,6.3079,6.3079,6.3079,6.3079,6.3079,6.3079,6.3079,6.3079,6.3079,6.3079,6.3079,6.3079,6.3079,6.3079,6.3079,6.3079,6.3079,6.3079,6.3438,6.3737,6.4006,6.5936,6.7791,6.9675,7.1132,7.2593,2.682,2.7226,2.8549,3.1249,3.1918,0.0,4.723,4.9678,5.2205,6.2256,6.4686,6.5058,6.5234,6.5335,6.5402,6.5402,6.5807,6.6289,6.6736,6.6812,6.6812,6.6812,6.6812,6.6812,6.6812,6.6812,6.6812,6.6812,6.6812,6.6812,6.6812,6.6812,6.6812,6.6812,6.6812,6.6812,6.6812,6.6812,6.677,6.677,6.6728,6.6601,6.6421,6.6052,6.5834,6.5647,6.4885,6.4531,6.4439,6.3452,6.3357,6.3865,6.326,6.2776,6.2284,6.1966,6.1563,6.1052,6.0794,6.0534,6.0272,5.9986,5.991,5.9773,5.9476,5.9369,5.9315,5.9099,5.9523,6.0181,6.0924,6.1613,6.2091,6.2091,6.26,6.3049,6.2989,6.3019,6.3079,6.3079,6.3079,6.3079,6.3079,6.3079,6.3079,6.3079,6.3079,6.3079,6.3079,6.3079,6.3079,6.3079,6.3079,6.3079,6.3079,6.3079,6.3079,6.3079,6.3079,6.3079,6.3079,6.3079,6.3079,6.3079,6.3079,6.3348,6.3887,6.4665,6.5759,6.7237,6.8549,6.9905,2.8805,2.8555,2.9545,3.0867,3.1931,0.0,3.7186,4.0565,4.4088,4.7998,5.1334,5.4099,5.5657,5.6295,5.6591,5.6591,5.9663,6.3155,6.6323,6.6812,6.6812,6.6812,6.6812,6.6812,6.6812,6.6812,6.6812,6.6812,6.6812,6.6812,6.6812,6.6812,6.6812,6.6812,6.6812,6.6812,6.6812,6.6812,6.6728,6.655,6.6345,6.6129,6.5911,6.5291,6.4943,6.4885,6.3879,6.35,6.3404,6.2333,6.2481,6.326,6.2531,6.2035,6.1683,6.1206,6.0845,6.0534,6.025,5.9986,5.9636,5.9369,5.9129,5.8912,5.8555,5.8415,5.847,5.8719,5.9249,5.9989,6.0869,6.1613,6.2091,6.2091,6.26,6.2929,6.2391,6.272,6.3079,6.3079,6.3079,6.3079,6.3079,6.3079,6.3079,6.3079,6.3079,6.3079,6.3079,6.3079,6.3079,6.3079,6.3079,6.3079,6.3079,6.3079,6.3079,6.3079,6.3079,6.3079,6.3079,6.3079,6.3079,6.3079,6.3079,6.3139,6.3258,6.4455,6.5759,6.7237,6.7485,6.8419,2.9607,2.9082,2.9833,3.0721,3.1252,0.0,0.0,3.8931,4.1465,4.6028,4.8226,4.99,5.1757,5.2396,5.2888,5.3594,5.7759,6.0857,6.0857,6.4254,6.6812,6.6812,6.6812,6.6812,6.6812,6.6812,6.6812,6.6812,6.6812,6.6812,6.6812,6.6812,6.6812,6.6812,6.6812,6.6728,6.6677,6.6516,6.6345,6.6162,6.5746,6.5437,6.5246,6.4439,6.3973,6.3658,6.2776,6.2333,6.2135,6.1328,6.1226,6.1551,6.1277,6.1155,6.0918,6.0377,6.0061,5.9902,5.9506,5.9237,5.9045,5.8773,5.8555,5.839,5.8114,5.7863,5.7807,5.7948,5.846,5.9062,5.95,6.0373,6.1104,6.1104,6.1852,6.251,6.2181,6.26,6.3079,6.3079,6.3079,6.3079,6.3079,6.3079,6.3079,6.3079,6.3079,6.3079,6.3079,6.3079,6.3079,6.3079,6.3079,6.3079,6.3079,6.3079,6.3079,6.3079,6.3079,6.3079,6.3079,6.3079,6.3079,6.3079,6.3079,6.3079,6.3079,6.3737,6.4415,6.5159,6.5159,6.5942,3.061,2.9863,3.0332,3.0879,3.0859,3.2058,0.0,0.0,0.0,4.5021,4.5656,4.5751,4.7587,4.8347,4.9092,5.0252,5.4925,5.7276,5.407,5.9905,6.4517,6.4517,6.5874,6.6475,6.5722,6.5688,6.5951,6.6736,6.6103,6.6027,6.6736,6.6728,6.6686,6.6686,6.6601,6.643,6.6215,6.6009,6.5746,6.5425,6.4955,6.4545,6.4207,6.3468,6.2841,6.227,6.1551,6.1124,6.0866,6.0294,5.9872,5.9629,6.0031,6.0167,6.0008,5.9529,5.9315,5.9207,5.8664,5.85,5.8445,5.8114,5.7918,5.7807,5.7613,5.7332,5.7078,5.7134,5.7447,5.7871,5.8206,5.9185,6.0053,6.0091,6.1104,6.2032,6.1762,6.2241,6.272,6.2869,6.278,6.278,6.3019,6.3079,6.3079,6.3079,6.3079,6.3079,6.3079,6.3079,6.3079,6.3079,6.2959,6.2899,6.2899,6.278,6.275,6.2869,6.2899,6.2959,6.3079,6.3079,6.3079,6.3079,6.3079,6.3079,6.3079,6.3079,6.3079,6.3079,6.3079,6.3706,3.3212,3.2109,3.2266,3.1621,3.1973,3.2311,3.1552,0.0,3.2301,3.3975,0.0,3.4789,3.675,0.0,0.0,3.9985,4.5358,4.9399,4.8929,5.3159,5.6265,5.6265,6.2505,6.5426,6.1898,6.1588,6.3045,6.6551,6.3573,6.3078,6.6584,6.6397,6.6182,6.6182,6.5746,6.5437,6.518,6.5135,6.4773,6.4081,6.38,6.3276,6.2565,6.2053,6.15,6.0908,6.0368,5.9948,5.9629,5.9099,5.8719,5.847,5.9315,5.9315,5.8882,5.8857,5.8609,5.8305,5.8003,5.7892,5.7781,5.722,5.688,5.6566,5.6566,5.6365,5.6193,5.648,5.636,5.6552,5.823,5.916,5.983,6.0049,6.1104,6.1762,6.0565,6.0864,6.1493,6.2091,6.1732,6.1702,6.2869,6.3079,6.3079,6.3079,6.3079,6.3079,6.3079,6.3079,6.3079,6.3079,6.254,6.2211,6.2211,6.1672,6.1583,6.2181,6.2211,6.248,6.3049,6.3079,6.3079,6.3079,6.3079,6.3079,6.3079,6.3079,6.3079,6.3079,6.3079,6.3194,3.3236,3.3235,3.3943,3.2333,3.2915,3.3375,3.1407,3.0918,3.1073,3.1732,0.0,0.0,0.0,0.0,0.0,0.0,4.263,4.5861,4.4335,4.9853,5.4231,5.4843,5.7887,6.0156,6.0857,6.2968,6.4924,6.6287,6.485,6.4443,6.568,6.5581,6.5315,6.5012,6.4786,6.4466,6.3844,6.3735,6.326,6.2485,6.209,6.1589,6.1133,6.0442,5.9864,5.9462,5.8847,5.8495,5.8221,5.7974,5.7584,5.7191,5.7584,5.7751,5.7892,5.7725,5.7557,5.7389,5.7078,5.688,5.6652,5.625,5.5845,5.5613,5.5613,5.5261,5.4908,5.4998,5.4901,5.5007,5.5777,5.722,5.8494,5.8165,5.9862,6.1253,6.0296,6.0625,6.1194,6.1463,6.1313,6.1283,6.1852,6.1942,6.1942,6.1942,6.1942,6.1942,6.1942,6.1942,6.1942,6.1942,6.1702,6.1523,6.1523,6.1283,6.1224,6.1493,6.1882,6.2391,6.3049,6.3079,6.3079,6.3079,6.3079,6.3079,6.3079,6.3079,6.3079,6.3079,6.3079,6.3079,3.3538,3.3923,3.4674,3.2711,3.3075,3.3569,3.1742,3.1191,3.1113,3.1309,3.0918,0.0,0.0,0.0,3.3901,3.5977,0.0,4.2601,4.0753,4.5966,5.0368,5.1323,5.2482,5.4854,5.8875,6.1433,6.3165,6.3957,6.3448,6.3412,6.3981,6.3904,6.3645,6.3271,6.3275,6.2859,6.2144,6.1977,6.1508,6.0691,6.0307,5.9887,5.9462,5.8847,5.8301,5.786,5.7387,5.7049,5.6794,5.6794,5.6509,5.5991,5.5991,5.6164,5.6451,5.648,5.6537,5.648,5.6106,5.5845,5.5582,5.532,5.5026,5.473,5.473,5.4314,5.3833,5.3713,5.3477,5.3268,5.3664,5.5095,5.6439,5.6623,5.8485,6.0093,5.9912,6.0206,6.0625,6.0805,6.0685,6.0625,6.0805,6.0984,6.1104,6.1104,6.1104,6.1104,6.1104,6.1104,6.1104,6.1104,6.0954,6.0835,6.0835,6.0655,6.0655,6.0805,6.1463,6.2121,6.278,6.281,6.281,6.281,6.2989,6.2899,6.254,6.272,6.272,6.254,6.2899,6.3079,3.4922,3.4383,3.4077,3.2566,3.2229,3.2054,3.1113,3.1211,3.1387,3.0996,3.1211,3.1348,3.1015,3.215,3.3134,3.3247,3.6213,0.0,0.0,4.0281,4.1929,4.2565,4.6436,5.0675,5.4696,5.3734,5.4469,5.8327,5.6858,5.7425,6.1294,6.1122,6.0938,6.089,6.0862,6.0515,5.9879,5.9879,5.9485,5.8684,5.8684,5.8191,5.7416,5.736,5.6851,5.5991,5.5991,5.5817,5.5554,5.5554,5.5379,5.5026,5.5026,5.473,5.4314,5.5203,5.5554,5.5496,5.5144,5.4877,5.4667,5.4667,5.4401,5.4134,5.4134,5.3652,5.3044,5.2738,5.1934,5.1471,5.2692,5.312,5.3759,5.6106,5.7282,5.8057,5.8922,5.9159,5.9368,5.9997,5.9608,5.9368,5.9997,6.0685,6.1104,6.1104,6.1104,6.1104,6.1104,6.1104,6.1104,6.1104,6.0505,6.0116,6.0116,5.9548,5.9428,6.0086,6.0775,6.1433,6.2091,6.2121,6.2121,6.2121,6.275,6.245,6.1194,6.1822,6.1792,6.1224,6.248,6.3079,3.3905,3.4792,3.5417,3.3144,3.3457,3.3818,3.1781,3.1406,3.1406,3.0976,3.123,3.1387,3.0976,3.1325,3.1977,3.2907,3.4924,3.6306,0.0,3.8027,3.9382,3.9606,4.4785,4.8916,5.0255,5.3129,5.5201,5.5821,5.6335,5.6978,5.7857,5.8329,5.842,5.8136,5.8453,5.8377,5.7801,5.7605,5.7131,5.648,5.6251,5.5906,5.544,5.5205,5.497,5.4616,5.4465,5.4314,5.4254,5.4254,5.4074,5.3713,5.3713,5.347,5.32,5.4194,5.4433,5.4194,5.3833,5.3652,5.3558,5.3349,5.3227,5.3078,5.3078,5.265,5.2094,5.197,5.122,5.055,5.0968,5.2025,5.3103,5.3504,5.486,5.6352,5.7332,5.7496,5.7918,5.9205,5.9249,5.9189,5.9398,5.9638,5.9787,5.9787,5.9787,5.9787,5.9787,5.9787,5.9787,5.9787,5.9578,5.9428,5.9428,5.9219,5.9398,6.0057,6.0296,6.0745,6.1433,6.1433,6.1433,6.1433,6.1672,6.1553,6.1104,6.1343,6.1343,6.1134,6.1583,6.1792,3.3717,3.4792,3.5375,3.3322,3.3616,3.3983,3.1938,3.1641,3.1621,3.1191,3.1328,3.1484,3.1367,3.1094,3.1228,3.215,3.3436,3.4417,0.0,3.6758,3.8102,3.8268,4.2857,4.603,4.603,4.988,5.2249,5.1733,5.3207,5.4128,5.4023,5.4856,5.5233,5.5049,5.5794,5.5907,5.5414,5.5239,5.4856,5.441,5.4171,5.3932,5.3658,5.3416,5.3234,5.3113,5.2956,5.2922,5.2922,5.2922,5.2738,5.2553,5.2553,5.2368,5.2156,5.32,5.347,5.3227,5.2983,5.2922,5.2861,5.2553,5.2342,5.2218,5.2094,5.1659,5.122,5.1094,5.0614,5.0065,4.9912,5.0844,5.1799,5.1944,5.309,5.4468,5.5644,5.6308,5.7018,5.8026,5.8689,5.9099,5.9099,5.9099,5.9099,5.9099,5.9099,5.9099,5.9099,5.9099,5.9099,5.9099,5.9099,5.9099,5.9099,5.9099,5.9279,5.9697,5.9727,6.0057,6.0715,6.0745,6.0745,6.0745,6.0984,6.0894,6.0416,6.0625,6.0625,6.0416,6.0416,6.0416]}]]